[[{"header":{"parameterUnit":"m.s-1","parameterCategory":1,"la1":31.0,"la2":29.5877,"lo1":-88.7671,"lo2":-86.6584,"dy":0.0162,"dx":0.0185,"nx":115,"ny":88,"refTime":"2026-03-05T00:00:00:Z","depth":0,"parameterNumber":2,"parameterNumberName":"U-component_of_WINDS"},"data":[0.0,0.0,0.0,0.0,0.0,0.0,0.0,0.0,0.0,0.0,0.0,0.0,0.0,0.0,0.0,0.0,0.0,0.0,0.0,0.0,0.0,0.0,0.0,0.0,0.0,0.0,0.0,0.0,0.0,0.0,0.0,0.0,0.0,0.0,0.0,0.0,0.0,0.0,0.0,0.0,0.0,0.0,0.0,0.0,0.0,0.0,0.0,0.0,0.0,0.0,0.0,0.0,0.0,0.0,0.0,0.0,0.0,0.0,0.0,0.0,0.0,0.0,0.0,0.0,0.0,0.0,0.0,0.0,0.0,0.0,0.0,0.0,0.0,0.0,0.0,0.0,0.0,0.0,0.0,0.0,0.0,0.0,0.0,0.0,0.0,0.0,0.0,0.0,0.0,0.0,0.0,0.0,0.0,0.0,0.0,0.0,0.0,0.0,0.0,0.0,0.0,0.0,0.0,0.0,0.0,0.0,0.0,0.0,0.0,0.0,0.0,0.0,0.0,0.0,0.0,0.0,0.0,0.0,0.0,0.0,0.0,0.0,0.0,0.0,0.0,0.0,0.0,0.0,0.0,0.0,0.0,0.0,0.0,0.0,0.0,0.0,0.0,0.0,0.0,0.0,0.0,0.0,0.0,0.0,0.0,0.0,0.0,0.0,0.0,0.0,0.0,0.0,0.0,0.0,0.0,0.0,0.0,0.0,0.0,0.0,0.0,0.0,0.0,0.0,0.0,0.0,0.0,0.0,0.0,0.0,0.0,0.0,0.0,0.0,0.0,0.0,0.0,0.0,0.0,0.0,0.0,0.0,0.0,0.0,0.0,0.0,0.0,0.0,0.0,0.0,0.0,0.0,0.0,0.0,0.0,0.0,0.0,0.0,0.0,0.0,0.0,0.0,0.0,0.0,0.0,0.0,0.0,0.0,0.0,0.0,0.0,0.0,0.0,0.0,0.0,0.0,0.0,0.0,0.0,0.0,0.0,0.0,0.0,0.0,0.0,0.0,0.0,0.0,0.0,0.0,0.0,0.0,0.0,0.0,0.0,0.0,0.0,0.0,0.0,0.0,0.0,0.0,0.0,0.0,0.0,0.0,0.0,0.0,0.0,0.0,0.0,0.0,0.0,0.0,0.0,0.0,0.0,0.0,0.0,0.0,0.0,0.0,0.0,0.0,0.0,0.0,0.0,0.0,0.0,0.0,0.0,0.0,0.0,0.0,0.0,0.0,0.0,0.0,0.0,0.0,0.0,0.0,0.0,0.0,0.0,0.0,0.0,0.0,0.0,0.0,0.0,0.0,0.0,0.0,0.0,0.0,0.0,0.0,0.0,0.0,0.0,0.0,0.0,0.0,0.0,0.0,0.0,0.0,0.0,0.0,0.0,0.0,0.0,0.0,0.0,0.0,0.0,0.0,0.0,0.0,0.0,0.0,0.0,0.0,0.0,0.0,0.0,0.0,0.0,0.0,0.0,0.0,0.0,0.0,0.0,0.0,0.0,0.0,0.0,0.0,0.0,0.0,0.0,0.0,0.0,0.0,0.0,0.0,0.0,0.0,0.0,0.0,0.0,0.0,0.0,0.0,0.0,0.0,0.0,0.0,0.0,0.0,0.0,0.0,0.0,0.0,0.0,0.0,0.0,0.0,0.0,0.0,0.0,0.0,0.0,0.0,0.0,0.0,0.0,0.0,0.0,0.0,0.0,0.0,0.0,0.0,0.0,0.0,0.0,0.0,0.0,0.0,0.0,0.0,0.0,0.0,0.0,0.0,0.0,0.0,0.0,0.0,0.0,0.0,0.0,0.0,0.0,0.0,0.0,0.0,0.0,0.0,0.0,0.0,0.0,0.0,0.0,0.0,0.0,0.0,0.0,0.0,0.0,0.0,0.0,0.0,0.0,0.0,0.0,0.0,0.0,0.0,0.0,0.0,0.0,0.0,0.0,0.0,0.0,0.0,0.0,0.0,0.0,0.0,0.0,0.0,0.0,0.0,0.0,0.0,0.0,0.0,0.0,0.0,0.0,0.0,0.0,0.0,0.0,0.0,0.0,0.0,0.0,0.0,0.0,0.0,0.0,0.0,0.0,0.0,0.0,0.0,0.0,0.0,0.0,0.0,0.0,0.0,0.0,0.0,0.0,0.0,0.0,0.0,0.0,0.0,0.0,0.0,0.0,0.0,0.0,0.0,0.0,0.0,0.0,0.0,0.0,0.0,0.0,0.0,0.0,0.0,0.0,0.0,0.0,0.0,0.0,0.0,0.0,0.0,0.0,0.0,0.0,0.0,0.0,0.0,0.0,0.0,0.0,0.0,0.0,0.0,0.0,0.0,0.0,0.0,0.0,0.0,0.0,0.0,0.0,0.0,0.0,0.0,0.0,0.0,0.0,0.0,0.0,0.0,0.0,0.0,0.0,0.0,0.0,0.0,0.0,0.0,0.0,0.0,0.0,0.0,0.0,0.0,0.0,0.0,0.0,0.0,0.0,0.0,0.0,0.0,0.0,0.0,0.0,0.0,0.0,0.0,0.0,0.0,0.0,0.0,0.0,0.0,0.0,0.0,0.0,0.0,0.0,0.0,0.0,0.0,0.0,0.0,0.0,0.0,0.0,0.0,0.0,0.0,0.0,0.0,0.0,0.0,0.0,0.0,0.0,0.0,0.0,0.0,0.0,0.0,0.0,0.0,0.0,0.0,0.0,0.0,0.0,0.0,0.0,0.0,0.0,0.0,0.0,0.0,0.0,0.0,0.0,0.0,0.0,0.0,0.0,0.0,0.0,0.0,0.0,0.0,0.0,0.0,0.0,0.0,0.0,0.0,0.0,0.0,0.0,0.0,0.0,0.0,0.0,0.0,0.0,0.0,0.0,0.0,0.0,0.0,0.0,0.0,0.0,0.0,0.0,0.0,0.0,0.0,0.0,0.0,0.0,0.0,0.0,0.0,0.0,0.0,0.0,0.0,0.0,0.0,0.0,0.0,0.0,0.0,0.0,0.0,0.0,0.0,0.0,0.0,0.0,0.0,0.0,0.0,0.0,0.0,0.0,0.0,0.0,0.0,0.0,0.0,0.0,0.0,0.0,0.0,0.0,0.0,0.0,0.0,0.0,0.0,0.0,0.0,0.0,0.0,0.0,0.0,0.0,0.0,0.0,0.0,0.0,0.0,0.0,0.0,0.0,0.0,0.0,0.0,0.0,0.0,0.0,0.0,0.0,0.0,0.0,0.0,0.0,0.0,0.0,0.0,0.0,0.0,0.0,0.0,0.0,0.0,0.0,0.0,0.0,0.0,0.0,0.0,0.0,0.0,0.0,0.0,0.0,0.0,0.0,0.0,0.0,0.0,0.0,0.0,0.0,0.0,0.0,0.0,0.0,0.0,0.0,0.0,0.0,0.0,0.0,0.0,0.0,0.0,0.0,0.0,0.0,0.0,0.0,0.0,0.0,0.0,0.0,0.0,0.0,0.0,0.0,0.0,0.0,0.0,0.0,0.0,0.0,0.0,0.0,0.0,0.0,0.0,0.0,0.0,0.0,0.0,0.0,0.0,0.0,0.0,0.0,0.0,0.0,0.0,0.0,0.0,0.0,0.0,0.0,0.0,0.0,0.0,0.0,0.0,0.0,0.0,0.0,0.0,0.0,0.0,0.0,0.0,0.0,0.0,0.0,0.0,0.0,0.0,0.0,0.0,0.0,0.0,0.0,0.0,0.0,0.0,0.0,0.0,0.0,0.0,0.0,0.0,0.0,0.0,0.0,0.0,0.0,0.0,0.0,0.0,0.0,0.0,0.0,0.0,0.0,0.0,0.0,0.0,0.0,0.0,0.0,0.0,0.0,0.0,0.0,0.0,0.0,0.0,0.0,0.0,0.0,0.0,0.0,0.0,0.0,0.0,0.0,0.0,0.0,0.0,0.0,0.0,0.0,0.0,0.0,0.0,0.0,0.0,0.0,0.0,0.0,0.0,0.0,0.0,0.0,0.0,0.0,0.0,0.0,0.0,0.0,0.0,0.0,0.0,0.0,0.0,0.0,0.0,0.0,0.0,0.0,0.0,0.0,0.0,0.0,0.0,0.0,0.0,0.0,0.0,0.0,0.0,0.0,0.0,0.0,0.0,0.0,0.0,0.0,0.0,0.0,0.0,0.0,0.0,0.0,0.0,0.0,0.0,0.0,0.0,0.0,0.0,0.0,0.0,0.0,0.0,0.0,0.0,0.0,0.0,0.0,0.0,0.0,0.0,0.0,0.0,0.0,0.0,0.0,0.0,0.0,0.0,0.0,0.0,0.0,0.0,-1.9358,0.0,0.0,0.0,0.0,0.0,0.0,0.0,0.0,0.0,0.0,0.0,0.0,0.0,0.0,0.0,0.0,0.0,0.0,0.0,0.0,0.0,0.0,0.0,0.0,0.0,0.0,0.0,0.0,0.0,0.0,0.0,0.0,0.0,0.0,0.0,0.0,0.0,0.0,0.0,0.0,0.0,0.0,0.0,0.0,0.0,0.0,0.0,0.0,0.0,0.0,0.0,0.0,0.0,0.0,0.0,0.0,0.0,0.0,0.0,0.0,0.0,0.0,0.0,0.0,0.0,0.0,0.0,0.0,0.0,0.0,0.0,0.0,0.0,0.0,0.0,0.0,0.0,0.0,0.0,0.0,0.0,0.0,0.0,0.0,0.0,0.0,0.0,0.0,0.0,0.0,0.0,0.0,0.0,0.0,0.0,0.0,0.0,0.0,0.0,0.0,0.0,0.0,0.0,0.0,0.0,0.0,0.0,0.0,0.0,0.0,-2.2254,-2.2239,-2.153,-2.0633,-1.9531,0.0,0.0,0.0,0.0,0.0,0.0,0.0,0.0,0.0,0.0,0.0,0.0,0.0,0.0,0.0,0.0,0.0,0.0,0.0,0.0,0.0,0.0,0.0,0.0,0.0,0.0,0.0,0.0,0.0,0.0,0.0,0.0,0.0,0.0,0.0,0.0,0.0,0.0,0.0,0.0,0.0,0.0,0.0,0.0,0.0,0.0,0.0,0.0,0.0,0.0,0.0,0.0,0.0,0.0,0.0,0.0,0.0,0.0,0.0,0.0,0.0,0.0,0.0,0.0,0.0,0.0,0.0,0.0,0.0,0.0,0.0,0.0,0.0,0.0,0.0,0.0,0.0,0.0,0.0,0.0,0.0,0.0,0.0,0.0,0.0,0.0,0.0,0.0,0.0,0.0,0.0,0.0,0.0,0.0,0.0,0.0,0.0,0.0,0.0,0.0,0.0,0.0,0.0,0.0,0.0,0.0,0.0,0.0,0.0,0.0,0.0,0.0,-2.1774,-2.0651,-1.9309,0.0,0.0,0.0,0.0,0.0,0.0,0.0,0.0,0.0,0.0,0.0,0.0,0.0,0.0,0.0,0.0,0.0,0.0,0.0,0.0,0.0,0.0,0.0,0.0,0.0,0.0,0.0,0.0,0.0,0.0,0.0,0.0,0.0,0.0,0.0,0.0,0.0,0.0,0.0,0.0,0.0,0.0,0.0,0.0,0.0,0.0,0.0,0.0,0.0,0.0,0.0,0.0,0.0,0.0,0.0,0.0,0.0,0.0,0.0,0.0,0.0,0.0,0.0,0.0,0.0,0.0,0.0,0.0,0.0,0.0,0.0,0.0,0.0,0.0,0.0,0.0,0.0,0.0,0.0,0.0,0.0,0.0,0.0,0.0,0.0,0.0,0.0,0.0,0.0,0.0,0.0,0.0,0.0,0.0,0.0,0.0,0.0,0.0,0.0,0.0,0.0,0.0,0.0,0.0,0.0,0.0,0.0,0.0,0.0,0.0,-2.2089,-2.2643,-2.1327,0.0,-1.8889,0.0,0.0,0.0,0.0,0.0,0.0,0.0,0.0,0.0,0.0,0.0,0.0,0.0,0.0,0.0,0.0,0.0,0.0,0.0,0.0,0.0,0.0,0.0,0.0,0.0,0.0,0.0,0.0,0.0,0.0,0.0,0.0,0.0,0.0,0.0,0.0,0.0,0.0,0.0,0.0,0.0,0.0,0.0,0.0,0.0,0.0,0.0,0.0,0.0,0.0,0.0,0.0,0.0,0.0,0.0,0.0,0.0,0.0,0.0,0.0,0.0,0.0,0.0,0.0,0.0,0.0,0.0,0.0,0.0,0.0,0.0,0.0,0.0,0.0,0.0,0.0,0.0,0.0,0.0,0.0,0.0,0.0,0.0,0.0,0.0,0.0,0.0,0.0,0.0,0.0,0.0,0.0,0.0,0.0,0.0,0.0,0.0,0.0,0.0,0.0,0.0,0.0,0.0,0.0,0.0,0.0,0.0,0.0,0.0,0.0,-2.1425,-2.2104,-2.0843,-1.9623,0.0,0.0,0.0,0.0,0.0,0.0,0.0,0.0,0.0,0.0,0.0,0.0,0.0,0.0,0.0,0.0,0.0,0.0,0.0,0.0,0.0,0.0,0.0,0.0,0.0,0.0,0.0,0.0,0.0,0.0,0.0,0.0,0.0,0.0,0.0,0.0,0.0,0.0,0.0,0.0,0.0,0.0,0.0,0.0,0.0,0.0,0.0,0.0,0.0,0.0,0.0,0.0,0.0,0.0,0.0,0.0,0.0,0.0,0.0,0.0,0.0,0.0,0.0,0.0,0.0,0.0,0.0,0.0,0.0,0.0,0.0,0.0,0.0,0.0,0.0,0.0,0.0,0.0,0.0,0.0,0.0,0.0,0.0,0.0,0.0,0.0,0.0,0.0,0.0,0.0,0.0,0.0,0.0,0.0,0.0,0.0,0.0,0.0,0.0,0.0,0.0,0.0,0.0,0.0,0.0,0.0,0.0,0.0,0.0,0.0,-2.0291,0.0,-2.0897,-2.0164,-1.9208,-1.8117,0.0,0.0,0.0,0.0,0.0,0.0,0.0,0.0,0.0,0.0,0.0,0.0,0.0,0.0,0.0,0.0,0.0,0.0,0.0,0.0,0.0,0.0,0.0,0.0,0.0,0.0,0.0,0.0,0.0,0.0,0.0,0.0,0.0,0.0,0.0,0.0,0.0,0.0,0.0,0.0,0.0,0.0,0.0,0.0,0.0,0.0,0.0,0.0,0.0,0.0,0.0,0.0,0.0,0.0,0.0,0.0,0.0,0.0,0.0,0.0,0.0,0.0,0.0,0.0,0.0,0.0,0.0,0.0,0.0,0.0,0.0,0.0,0.0,0.0,0.0,0.0,0.0,0.0,0.0,0.0,0.0,0.0,0.0,0.0,0.0,0.0,0.0,0.0,0.0,0.0,0.0,0.0,0.0,0.0,0.0,0.0,0.0,0.0,0.0,0.0,0.0,0.0,0.0,0.0,0.0,0.0,0.0,0.0,0.0,-1.9454,-1.9357,-1.9147,-1.9248,-1.883,0.0,0.0,0.0,0.0,0.0,0.0,0.0,0.0,0.0,0.0,0.0,0.0,0.0,0.0,0.0,0.0,0.0,0.0,0.0,0.0,0.0,0.0,0.0,0.0,0.0,0.0,0.0,0.0,0.0,0.0,0.0,0.0,0.0,0.0,0.0,0.0,0.0,0.0,0.0,0.0,0.0,0.0,0.0,0.0,0.0,0.0,0.0,0.0,0.0,0.0,0.0,0.0,0.0,0.0,0.0,0.0,0.0,0.0,0.0,0.0,0.0,0.0,0.0,0.0,0.0,0.0,0.0,0.0,0.0,0.0,0.0,0.0,0.0,0.0,0.0,0.0,0.0,0.0,0.0,0.0,0.0,0.0,0.0,0.0,0.0,0.0,0.0,0.0,0.0,0.0,0.0,0.0,0.0,0.0,0.0,0.0,0.0,0.0,0.0,0.0,0.0,0.0,0.0,0.0,0.0,0.0,0.0,0.0,0.0,-1.913,-1.9097,-1.8912,-1.8581,-1.8581,-1.8248,0.0,0.0,0.0,0.0,0.0,0.0,0.0,0.0,0.0,0.0,0.0,0.0,0.0,0.0,0.0,0.0,0.0,0.0,0.0,0.0,0.0,0.0,0.0,0.0,0.0,0.0,0.0,0.0,0.0,0.0,0.0,0.0,0.0,0.0,0.0,0.0,0.0,0.0,0.0,0.0,0.0,0.0,0.0,0.0,0.0,0.0,0.0,0.0,0.0,0.0,0.0,0.0,0.0,0.0,0.0,0.0,0.0,0.0,0.0,0.0,0.0,0.0,0.0,0.0,0.0,0.0,0.0,0.0,0.0,0.0,0.0,0.0,0.0,0.0,0.0,0.0,0.0,0.0,0.0,0.0,0.0,0.0,0.0,0.0,0.0,0.0,0.0,0.0,0.0,0.0,0.0,0.0,0.0,0.0,0.0,0.0,0.0,0.0,0.0,0.0,0.0,0.0,0.0,0.0,0.0,0.0,0.0,0.0,0.0,-1.8731,0.0,-1.8378,0.0,-1.7882,-1.7632,0.0,0.0,0.0,0.0,0.0,0.0,0.0,0.0,0.0,0.0,0.0,0.0,0.0,0.0,0.0,0.0,0.0,0.0,0.0,0.0,0.0,0.0,0.0,0.0,0.0,0.0,0.0,0.0,0.0,0.0,0.0,0.0,0.0,0.0,0.0,0.0,0.0,0.0,0.0,0.0,0.0,0.0,0.0,0.0,0.0,0.0,0.0,0.0,0.0,0.0,0.0,0.0,0.0,0.0,0.0,0.0,0.0,0.0,0.0,0.0,0.0,0.0,0.0,0.0,0.0,0.0,0.0,0.0,0.0,0.0,0.0,0.0,0.0,0.0,0.0,0.0,0.0,0.0,0.0,0.0,0.0,0.0,0.0,0.0,0.0,0.0,0.0,0.0,0.0,0.0,0.0,0.0,0.0,0.0,0.0,0.0,0.0,0.0,0.0,0.0,0.0,0.0,0.0,0.0,0.0,0.0,0.0,0.0,-1.8169,-1.8169,-1.7922,-1.772,-1.7475,-1.7173,-1.6964,0.0,0.0,0.0,0.0,0.0,0.0,0.0,0.0,0.0,0.0,0.0,0.0,0.0,0.0,0.0,0.0,0.0,0.0,0.0,0.0,0.0,0.0,0.0,0.0,0.0,0.0,0.0,0.0,0.0,0.0,0.0,0.0,0.0,0.0,0.0,0.0,0.0,0.0,0.0,0.0,0.0,0.0,0.0,0.0,0.0,0.0,0.0,0.0,0.0,0.0,0.0,0.0,0.0,0.0,0.0,0.0,0.0,0.0,0.0,0.0,0.0,0.0,0.0,0.0,0.0,0.0,0.0,0.0,0.0,0.0,0.0,0.0,0.0,0.0,0.0,0.0,0.0,0.0,0.0,0.0,0.0,0.0,0.0,0.0,0.0,0.0,0.0,0.0,0.0,0.0,0.0,0.0,0.0,0.0,0.0,0.0,0.0,0.0,0.0,0.0,0.0,0.0,0.0,0.0,0.0,0.0,0.0,0.0,0.0,-1.7359,-1.7284,-1.7055,-1.6697,-1.657,-1.6475,0.0,0.0,0.0,0.0,0.0,0.0,0.0,0.0,0.0,0.0,0.0,0.0,0.0,0.0,0.0,0.0,0.0,0.0,0.0,0.0,0.0,0.0,0.0,0.0,0.0,0.0,0.0,0.0,0.0,0.0,0.0,0.0,0.0,0.0,0.0,0.0,0.0,0.0,0.0,0.0,0.0,0.0,0.0,0.0,0.0,0.0,0.0,0.0,0.0,0.0,0.0,0.0,0.0,0.0,0.0,0.0,0.0,0.0,0.0,0.0,0.0,0.0,0.0,0.0,0.0,0.0,0.0,0.0,0.0,0.0,0.0,0.0,0.0,0.0,0.0,0.0,0.0,0.0,0.0,0.0,0.0,0.0,0.0,0.0,0.0,0.0,0.0,0.0,0.0,0.0,0.0,0.0,0.0,0.0,0.0,0.0,0.0,0.0,0.0,0.0,0.0,0.0,0.0,0.0,0.0,0.0,0.0,0.0,0.0,-1.6607,-1.6529,-1.6299,-1.5954,-1.5876,-1.5879,-1.5913,0.0,0.0,0.0,0.0,0.0,0.0,0.0,0.0,0.0,0.0,0.0,0.0,0.0,0.0,0.0,0.0,0.0,0.0,0.0,0.0,0.0,0.0,0.0,0.0,0.0,0.0,0.0,0.0,0.0,0.0,0.0,0.0,0.0,0.0,0.0,0.0,0.0,0.0,0.0,0.0,0.0,0.0,0.0,0.0,0.0,0.0,0.0,0.0,0.0,0.0,0.0,0.0,0.0,0.0,0.0,0.0,0.0,0.0,0.0,0.0,0.0,0.0,0.0,0.0,0.0,0.0,0.0,0.0,0.0,0.0,0.0,0.0,0.0,0.0,0.0,0.0,0.0,0.0,0.0,0.0,0.0,0.0,0.0,0.0,0.0,0.0,0.0,0.0,0.0,0.0,0.0,0.0,0.0,0.0,0.0,0.0,0.0,0.0,0.0,0.0,0.0,0.0,0.0,0.0,0.0,0.0,0.0,0.0,-1.5973,-1.5693,-1.5505,-1.5347,-1.5188,-1.5222,0.0,0.0,0.0,0.0,0.0,0.0,0.0,0.0,0.0,0.0,0.0,0.0,0.0,0.0,0.0,0.0,0.0,0.0,0.0,0.0,0.0,0.0,0.0,0.0,0.0,0.0,0.0,0.0,0.0,0.0,0.0,0.0,0.0,0.0,0.0,0.0,0.0,0.0,0.0,0.0,0.0,0.0,0.0,0.0,0.0,0.0,0.0,0.0,0.0,0.0,0.0,0.0,0.0,0.0,0.0,0.0,0.0,0.0,0.0,0.0,0.0,0.0,0.0,0.0,0.0,0.0,0.0,0.0,0.0,0.0,0.0,0.0,0.0,0.0,0.0,0.0,0.0,0.0,0.0,0.0,0.0,0.0,0.0,0.0,0.0,0.0,0.0,0.0,0.0,0.0,0.0,0.0,0.0,0.0,0.0,0.0,0.0,0.0,0.0,0.0,0.0,0.0,0.0,0.0,0.0,0.0,0.0,0.0,0.0,-1.5434,-1.529,-1.53,-1.5414,-1.5121,-1.5231,0.0,0.0,0.0,0.0,0.0,0.0,0.0,0.0,0.0,0.0,0.0,0.0,0.0,0.0,0.0,0.0,0.0,0.0,0.0,0.0,0.0,0.0,0.0,0.0,0.0,0.0,0.0,0.0,0.0,0.0,0.0,0.0,0.0,0.0,0.0,0.0,0.0,0.0,0.0,0.0,0.0,0.0,0.0,0.0,0.0,0.0,0.0,0.0,0.0,0.0,0.0,0.0,0.0,0.0,0.0,0.0,0.0,0.0,0.0,0.0,0.0,0.0,0.0,0.0,0.0,0.0,0.0,0.0,0.0,0.0,0.0,0.0,0.0,0.0,0.0,0.0,0.0,0.0,0.0,0.0,0.0,0.0,0.0,0.0,0.0,0.0,0.0,0.0,0.0,0.0,0.0,0.0,0.0,0.0,0.0,0.0,0.0,0.0,0.0,0.0,0.0,0.0,0.0,0.0,0.0,0.0,0.0,0.0,-1.5935,-1.5644,-1.5195,-1.5163,-1.5562,-1.5081,-1.504,0.0,0.0,0.0,0.0,0.0,0.0,0.0,0.0,0.0,0.0,0.0,0.0,0.0,0.0,0.0,0.0,0.0,0.0,0.0,0.0,0.0,0.0,0.0,0.0,0.0,0.0,0.0,0.0,0.0,0.0,0.0,0.0,0.0,0.0,0.0,0.0,0.0,0.0,0.0,0.0,0.0,0.0,0.0,0.0,0.0,0.0,0.0,0.0,0.0,0.0,0.0,0.0,0.0,0.0,0.0,0.0,0.0,0.0,0.0,0.0,0.0,0.0,0.0,0.0,0.0,0.0,0.0,0.0,0.0,0.0,0.0,0.0,0.0,0.0,0.0,0.0,0.0,0.0,0.0,0.0,0.0,0.0,0.0,0.0,0.0,0.0,0.0,0.0,0.0,0.0,0.0,0.0,0.0,0.0,0.0,0.0,0.0,0.0,0.0,0.0,0.0,0.0,0.0,0.0,0.0,0.0,0.0,0.0,-1.6177,-1.6116,-1.5318,-1.5144,-1.5603,-1.5034,-1.4879,0.0,0.0,0.0,0.0,0.0,0.0,0.0,0.0,0.0,0.0,0.0,0.0,0.0,0.0,0.0,0.0,0.0,0.0,0.0,0.0,0.0,0.0,0.0,0.0,0.0,0.0,0.0,0.0,0.0,0.0,0.0,0.0,0.0,0.0,0.0,0.0,0.0,0.0,0.0,0.0,0.0,0.0,0.0,0.0,0.0,0.0,0.0,0.0,0.0,0.0,0.0,0.0,0.0,0.0,0.0,0.0,0.0,0.0,0.0,0.0,0.0,0.0,0.0,0.0,0.0,0.0,0.0,0.0,0.0,0.0,0.0,0.0,0.0,0.0,0.0,0.0,0.0,0.0,0.0,0.0,0.0,0.0,0.0,0.0,0.0,0.0,0.0,0.0,0.0,0.0,0.0,0.0,0.0,0.0,0.0,0.0,0.0,0.0,0.0,0.0,0.0,0.0,0.0,0.0,0.0,0.0,0.0,0.0,-1.6042,-1.5752,-1.5594,-1.5513,-1.5468,-1.5119,-1.5205,0.0,0.0,0.0,0.0,0.0,0.0,0.0,0.0,0.0,0.0,0.0,0.0,0.0,0.0,0.0,0.0,0.0,0.0,0.0,0.0,0.0,0.0,0.0,0.0,0.0,0.0,0.0,0.0,0.0,0.0,0.0,0.0,0.0,0.0,0.0,0.0,0.0,0.0,0.0,0.0,0.0,0.0,0.0,0.0,0.0,0.0,0.0,0.0,-1.1508,0.0,0.0,0.0,0.0,0.0,0.0,0.0,0.0,0.0,0.0,0.0,0.0,0.0,0.0,0.0,0.0,0.0,0.0,0.0,0.0,0.0,0.0,0.0,0.0,0.0,0.0,0.0,0.0,0.0,0.0,0.0,0.0,0.0,0.0,0.0,0.0,0.0,0.0,0.0,0.0,0.0,0.0,0.0,0.0,0.0,0.0,0.0,0.0,0.0,0.0,0.0,0.0,0.0,0.0,0.0,0.0,0.0,0.0,0.0,-1.6203,-1.5851,-1.5744,-1.5604,-1.541,-1.5281,-1.5396,0.0,0.0,0.0,0.0,0.0,0.0,0.0,0.0,0.0,0.0,0.0,0.0,0.0,0.0,0.0,0.0,0.0,0.0,0.0,0.0,0.0,0.0,0.0,0.0,0.0,0.0,0.0,0.0,0.0,0.0,0.0,0.0,0.0,0.0,0.0,0.0,0.0,0.0,0.0,0.0,0.0,0.0,0.0,0.0,0.0,0.0,0.0,0.0,0.0,0.0,0.0,0.0,0.0,0.0,0.0,0.0,0.0,0.0,0.0,0.0,0.0,0.0,0.0,0.0,0.0,0.0,0.0,0.0,0.0,0.0,0.0,0.0,0.0,0.0,0.0,0.0,0.0,0.0,0.0,0.0,0.0,0.0,0.0,0.0,0.0,0.0,0.0,0.0,0.0,0.0,0.0,0.0,0.0,0.0,0.0,0.0,0.0,0.0,0.0,0.0,0.0,0.0,0.0,0.0,0.0,0.0,0.0,-1.6333,-1.6381,-1.6056,-1.5778,-1.5575,-1.542,-1.542,-1.5478,-1.5623,0.0,0.0,0.0,0.0,0.0,0.0,0.0,0.0,0.0,0.0,0.0,0.0,0.0,0.0,0.0,0.0,0.0,0.0,0.0,0.0,0.0,0.0,0.0,0.0,0.0,0.0,0.0,0.0,0.0,0.0,0.0,0.0,0.0,0.0,0.0,0.0,0.0,0.0,-0.9004,-0.9467,0.0,0.0,0.0,0.0,0.0,0.0,0.0,0.0,-1.1591,0.0,0.0,0.0,0.0,0.0,0.0,0.0,0.0,0.0,0.0,0.0,0.0,0.0,0.0,0.0,0.0,0.0,0.0,0.0,0.0,0.0,0.0,0.0,0.0,0.0,0.0,0.0,0.0,0.0,0.0,0.0,0.0,0.0,0.0,0.0,0.0,0.0,0.0,0.0,0.0,0.0,0.0,0.0,0.0,0.0,0.0,0.0,0.0,0.0,0.0,0.0,0.0,0.0,0.0,0.0,0.0,-1.5827,-1.6045,-1.6056,-1.5759,-1.5565,-1.5439,-1.542,-1.542,-1.542,-1.541,0.0,0.0,0.0,0.0,0.0,0.0,0.0,0.0,0.0,0.0,0.0,0.0,0.0,0.0,0.0,0.0,0.0,0.0,0.0,0.0,0.0,0.0,0.0,0.0,0.0,0.0,0.0,0.0,0.0,0.0,0.0,0.0,0.0,0.0,0.0,0.0,0.0,0.0,0.0,-0.9829,-1.0167,0.0,0.0,0.0,0.0,0.0,0.0,0.0,0.0,-1.1809,0.0,0.0,0.0,0.0,0.0,0.0,0.0,0.0,0.0,0.0,0.0,0.0,0.0,0.0,0.0,0.0,0.0,0.0,0.0,0.0,0.0,0.0,0.0,0.0,0.0,0.0,0.0,0.0,0.0,0.0,0.0,0.0,0.0,0.0,0.0,0.0,0.0,0.0,0.0,0.0,0.0,0.0,0.0,0.0,0.0,0.0,0.0,0.0,0.0,0.0,0.0,0.0,0.0,0.0,0.0,-1.5605,-1.5804,-1.5817,-1.5701,-1.5507,-1.542,-1.542,-1.542,-1.542,0.0,0.0,0.0,0.0,0.0,0.0,0.0,0.0,0.0,0.0,0.0,0.0,0.0,0.0,0.0,0.0,0.0,0.0,0.0,0.0,0.0,0.0,0.0,0.0,0.0,0.0,0.0,0.0,0.0,0.0,0.0,0.0,0.0,0.0,0.0,0.0,0.0,0.0,0.0,0.0,-0.9997,-1.0227,-1.0546,0.0,0.0,0.0,0.0,0.0,0.0,-1.1363,-1.177,0.0,0.0,0.0,0.0,0.0,0.0,0.0,0.0,0.0,0.0,0.0,0.0,0.0,0.0,0.0,0.0,0.0,0.0,0.0,0.0,0.0,0.0,0.0,0.0,0.0,0.0,0.0,0.0,0.0,0.0,0.0,0.0,0.0,0.0,0.0,0.0,0.0,0.0,0.0,0.0,0.0,0.0,0.0,0.0,0.0,0.0,0.0,0.0,0.0,0.0,0.0,0.0,0.0,0.0,0.0,-1.5462,-1.5608,-1.5672,-1.5643,-1.5478,-1.542,-1.542,-1.542,-1.542,0.0,0.0,0.0,0.0,0.0,0.0,0.0,0.0,0.0,0.0,0.0,0.0,0.0,0.0,0.0,0.0,0.0,0.0,0.0,0.0,0.0,0.0,0.0,0.0,0.0,0.0,0.0,0.0,0.0,0.0,0.0,0.0,0.0,0.0,0.0,0.0,0.0,0.0,0.0,0.0,0.0,-1.0401,-1.0727,-1.0935,0.0,0.0,0.0,0.0,-1.143,-1.1625,0.0,0.0,0.0,0.0,0.0,0.0,0.0,0.0,0.0,0.0,0.0,0.0,0.0,0.0,0.0,0.0,0.0,0.0,0.0,0.0,0.0,0.0,0.0,0.0,0.0,0.0,0.0,0.0,0.0,0.0,0.0,0.0,0.0,0.0,0.0,0.0,0.0,0.0,0.0,0.0,0.0,0.0,0.0,0.0,0.0,0.0,0.0,0.0,0.0,0.0,0.0,0.0,0.0,0.0,0.0,0.0,-1.565,-1.5671,-1.5614,-1.5449,-1.542,-1.542,-1.542,-1.542,-1.542,0.0,0.0,0.0,0.0,0.0,0.0,0.0,0.0,0.0,0.0,0.0,0.0,0.0,0.0,0.0,0.0,0.0,0.0,0.0,0.0,0.0,0.0,0.0,0.0,0.0,0.0,0.0,0.0,0.0,0.0,0.0,0.0,0.0,0.0,0.0,0.0,0.0,0.0,0.0,0.0,0.0,-1.0995,-1.1249,-1.1356,-1.1376,0.0,0.0,-1.143,-1.143,-1.1798,0.0,0.0,0.0,0.0,0.0,0.0,0.0,0.0,0.0,0.0,0.0,0.0,0.0,0.0,0.0,0.0,0.0,0.0,0.0,0.0,0.0,0.0,0.0,0.0,0.0,0.0,0.0,0.0,0.0,0.0,0.0,0.0,0.0,0.0,0.0,0.0,0.0,0.0,0.0,0.0,0.0,0.0,0.0,0.0,0.0,0.0,0.0,0.0,0.0,0.0,0.0,0.0,0.0,0.0,0.0,-1.4725,-1.5507,-1.5536,-1.5517,-1.542,-1.542,-1.542,-1.542,-1.542,-1.542,0.0,0.0,0.0,0.0,0.0,0.0,0.0,0.0,0.0,0.0,0.0,0.0,0.0,0.0,0.0,0.0,0.0,0.0,0.0,0.0,0.0,0.0,0.0,0.0,0.0,0.0,0.0,0.0,0.0,0.0,0.0,0.0,0.0,0.0,0.0,0.0,0.0,0.0,0.0,0.0,0.0,0.0,-1.1233,-1.1433,0.0,0.0,0.0,-1.2296,-1.2401,0.0,0.0,0.0,0.0,0.0,0.0,0.0,0.0,0.0,0.0,0.0,0.0,0.0,0.0,0.0,0.0,0.0,0.0,0.0,0.0,0.0,0.0,0.0,0.0,0.0,0.0,0.0,0.0,0.0,0.0,0.0,0.0,0.0,0.0,0.0,0.0,0.0,0.0,0.0,0.0,0.0,0.0,0.0,0.0,0.0,0.0,0.0,0.0,0.0,0.0,0.0,0.0,0.0,0.0,0.0,0.0,0.0,-1.5391,-1.542,-1.542,-1.542,-1.542,-1.542,-1.542,-1.542,0.0,0.0,0.0,0.0,0.0,0.0,0.0,0.0,0.0,0.0,0.0,0.0,0.0,0.0,0.0,0.0,0.0,0.0,0.0,0.0,0.0,0.0,0.0,0.0,0.0,0.0,0.0,-0.9965,0.0,0.0,0.0,0.0,0.0,0.0,0.0,0.0,0.0,0.0,0.0,0.0,0.0,0.0,-1.0887,-1.124,-1.1502,-1.1783,0.0,0.0,-1.277,-1.2929,-1.2766,-1.2583,0.0,0.0,0.0,0.0,0.0,0.0,0.0,0.0,0.0,0.0,0.0,0.0,0.0,0.0,0.0,0.0,0.0,0.0,0.0,0.0,0.0,0.0,0.0,0.0,0.0,0.0,0.0,0.0,0.0,0.0,0.0,0.0,0.0,0.0,0.0,0.0,0.0,0.0,0.0,0.0,0.0,0.0,0.0,0.0,0.0,0.0,0.0,0.0,0.0,0.0,0.0,0.0,0.0,0.0,0.0,-1.5381,-1.542,-1.542,-1.542,-1.542,-1.542,-1.542,-1.542,-1.5234,0.0,0.0,0.0,0.0,0.0,0.0,0.0,0.0,0.0,0.0,0.0,0.0,0.0,0.0,0.0,0.0,0.0,0.0,0.0,0.0,0.0,0.0,0.0,0.0,0.0,0.0,0.0,0.0,0.0,0.0,0.0,0.0,0.0,0.0,0.0,0.0,0.0,0.0,0.0,0.0,0.0,-1.1073,-1.1437,-1.15,-1.1592,0.0,0.0,-1.224,-1.2286,-1.2512,-1.2601,-1.2271,0.0,0.0,0.0,0.0,0.0,0.0,0.0,0.0,0.0,0.0,0.0,0.0,0.0,0.0,0.0,0.0,0.0,0.0,0.0,0.0,0.0,0.0,0.0,0.0,0.0,0.0,0.0,0.0,0.0,0.0,0.0,0.0,0.0,0.0,0.0,0.0,0.0,0.0,0.0,0.0,0.0,0.0,0.0,0.0,0.0,0.0,0.0,0.0,0.0,0.0,0.0,0.0,0.0,-1.4533,-1.5391,-1.542,-1.542,-1.542,-1.542,-1.542,-1.542,-1.542,-1.5157,0.0,0.0,0.0,0.0,0.0,0.0,0.0,0.0,0.0,0.0,0.0,0.0,0.0,0.0,0.0,0.0,0.0,0.0,0.0,0.0,0.0,0.0,0.0,0.0,0.0,0.0,0.0,0.0,-1.031,-1.0053,-0.9612,0.0,0.0,0.0,0.0,0.0,0.0,0.0,0.0,0.0,0.0,-1.0465,-1.0711,-1.0854,0.0,0.0,-1.2069,-1.2451,-1.27,-1.292,-1.2903,-1.2406,-1.2382,0.0,0.0,0.0,0.0,0.0,0.0,0.0,0.0,0.0,0.0,0.0,0.0,0.0,0.0,0.0,0.0,0.0,0.0,0.0,0.0,0.0,0.0,0.0,0.0,0.0,0.0,0.0,0.0,0.0,0.0,0.0,0.0,0.0,0.0,0.0,0.0,0.0,0.0,0.0,0.0,0.0,0.0,0.0,0.0,0.0,0.0,0.0,0.0,0.0,0.0,0.0,0.0,-1.4746,-1.5596,-1.5615,-1.5664,-1.5801,-1.5811,-1.5742,-1.5615,-1.5605,-1.5235,0.0,0.0,0.0,0.0,0.0,0.0,0.0,0.0,0.0,0.0,0.0,0.0,0.0,0.0,0.0,0.0,0.0,0.0,0.0,0.0,0.0,0.0,0.0,0.0,0.0,0.0,0.0,0.0,-1.0295,-1.0021,-0.959,0.0,0.0,0.0,0.0,0.0,0.0,0.0,0.0,0.0,0.0,-0.9865,-0.9968,-1.0136,-1.0549,-1.1176,-1.1806,-1.2363,-1.2796,-1.3079,-1.3095,-1.2739,0.0,0.0,0.0,0.0,0.0,0.0,0.0,0.0,0.0,0.0,0.0,0.0,0.0,0.0,0.0,0.0,0.0,0.0,0.0,0.0,0.0,0.0,0.0,0.0,0.0,0.0,0.0,-1.4898,0.0,0.0,-1.4143,0.0,0.0,0.0,0.0,0.0,0.0,0.0,0.0,0.0,0.0,0.0,0.0,0.0,0.0,0.0,0.0,0.0,0.0,0.0,0.0,0.0,0.0,-1.5214,-1.6065,-1.6065,-1.625,-1.6638,-1.6668,-1.6443,-1.6105,-1.6085,-1.543,-1.4067,0.0,0.0,0.0,0.0,0.0,0.0,0.0,0.0,0.0,0.0,0.0,0.0,0.0,0.0,0.0,0.0,0.0,0.0,0.0,0.0,0.0,0.0,0.0,0.0,0.0,0.0,-1.0806,-1.0258,-0.9897,0.0,0.0,0.0,0.0,0.0,0.0,0.0,0.0,0.0,0.0,-0.9534,-0.9456,-0.9247,-0.9461,-0.9816,-1.0304,-1.1122,-1.1897,-1.2369,-1.2751,-1.3067,0.0,0.0,0.0,0.0,0.0,0.0,0.0,0.0,0.0,0.0,0.0,0.0,0.0,0.0,0.0,0.0,0.0,0.0,0.0,0.0,0.0,0.0,0.0,0.0,0.0,0.0,0.0,-1.6855,-1.6306,0.0,0.0,0.0,0.0,0.0,0.0,0.0,0.0,0.0,0.0,0.0,-1.6515,-1.6212,0.0,0.0,0.0,0.0,0.0,0.0,0.0,0.0,0.0,0.0,0.0,0.0,-1.5032,-1.5722,-1.5861,-1.5961,-1.616,-1.6294,-1.6259,-1.5962,-1.5913,-1.527,-1.3961,0.0,0.0,0.0,0.0,0.0,0.0,0.0,0.0,0.0,0.0,0.0,0.0,0.0,0.0,0.0,0.0,0.0,0.0,0.0,0.0,0.0,0.0,0.0,0.0,0.0,-1.1049,0.0,0.0,0.0,0.0,0.0,0.0,0.0,0.0,0.0,0.0,0.0,-0.971,-0.9212,-0.9094,-0.8963,-0.8569,-0.8842,-0.9308,0.0,0.0,0.0,0.0,0.0,0.0,0.0,0.0,0.0,0.0,0.0,0.0,0.0,0.0,-1.444,-1.4653,-1.4425,-1.4131,-1.3805,0.0,0.0,0.0,0.0,0.0,0.0,0.0,0.0,0.0,0.0,0.0,0.0,0.0,0.0,-1.702,0.0,-1.5933,0.0,0.0,0.0,0.0,0.0,0.0,0.0,0.0,-1.6957,-1.698,-1.7025,-1.6496,-1.5901,0.0,-1.4789,-1.4289,0.0,0.0,0.0,0.0,0.0,0.0,0.0,0.0,-1.5112,-1.562,-1.5905,-1.6083,-1.6149,-1.6285,-1.6211,-1.5932,-1.5489,-1.4805,-1.387,-1.2617,-1.1805,0.0,0.0,0.0,0.0,0.0,0.0,0.0,0.0,0.0,0.0,0.0,0.0,0.0,0.0,0.0,0.0,0.0,0.0,0.0,0.0,0.0,0.0,0.0,-1.0897,0.0,0.0,0.0,0.0,0.0,0.0,0.0,0.0,0.0,-0.93,-0.9401,-0.9273,-0.8869,-0.8762,-0.8644,-0.8273,0.0,0.0,0.0,0.0,0.0,0.0,0.0,-1.4187,-1.4139,-1.4455,-1.4649,-1.4563,-1.4754,-1.4943,-1.5215,0.0,0.0,-1.4993,-1.4815,-1.4547,-1.4268,-1.4152,-1.4149,-1.425,-1.4421,-1.4569,0.0,0.0,0.0,0.0,0.0,0.0,0.0,0.0,-1.6443,-1.6183,0.0,-1.5525,0.0,0.0,0.0,0.0,0.0,-1.6313,0.0,0.0,-1.757,-1.777,-1.8177,-1.6955,-1.612,-1.5647,-1.4547,-1.3688,-1.3044,-1.3262,0.0,0.0,0.0,0.0,0.0,0.0,-1.5429,-1.5698,-1.6206,-1.6502,-1.6532,-1.655,-1.6379,-1.5941,-1.4854,-1.4102,-1.3769,-1.2616,-1.1809,-1.1507,-1.0985,0.0,0.0,0.0,0.0,0.0,0.0,0.0,0.0,0.0,0.0,0.0,0.0,0.0,0.0,0.0,0.0,0.0,0.0,0.0,0.0,-1.087,0.0,0.0,0.0,0.0,0.0,0.0,0.0,0.0,0.0,0.0,-0.9311,-0.9085,-0.885,-0.8682,0.0,0.0,0.0,0.0,-0.9449,-1.014,-1.1277,-1.2385,-1.3389,-1.3934,-1.4437,-1.4925,0.0,0.0,-1.5384,-1.5665,-1.5925,-1.6274,-1.6268,-1.5981,-1.4997,-1.4697,-1.4542,-1.4472,-1.4545,-1.4669,-1.4988,-1.5283,-1.5511,-1.4997,0.0,0.0,0.0,0.0,-1.7014,-1.7271,-1.7424,-1.6955,-1.6693,-1.6517,-1.5411,0.0,0.0,0.0,0.0,0.0,0.0,-1.7728,-1.862,-1.8718,-1.8617,-1.8356,-1.7697,-1.6739,-1.5483,-1.4632,-1.3766,-1.2941,-1.2755,-1.2767,-1.2868,0.0,0.0,0.0,0.0,-1.5201,-1.5668,-1.5996,-1.5968,-1.5613,-1.5736,-1.5661,-1.5376,-1.5064,-1.4567,-1.3845,-1.3119,-1.236,-1.1555,-1.0943,0.0,0.0,0.0,0.0,0.0,0.0,0.0,0.0,0.0,0.0,0.0,0.0,0.0,0.0,0.0,0.0,0.0,0.0,0.0,-1.0839,-1.0822,-1.0744,0.0,0.0,0.0,0.0,0.0,0.0,0.0,0.0,0.0,-0.8931,-0.8894,-0.8706,0.0,0.0,-0.8635,-0.8594,-0.9196,-0.9973,-1.0919,-1.2047,0.0,-1.3868,-1.4648,-1.5179,-1.5251,-1.5665,-1.5992,-1.6279,-1.64,-1.648,-1.6573,-1.6587,-1.6476,-1.621,-1.592,-1.5671,-1.5457,-1.5618,-1.5785,-1.5892,-1.6126,-1.6346,-1.5079,-1.51,-1.5677,-1.6094,-1.6368,-1.6627,-1.6914,-1.7077,-1.6599,-1.6364,-1.6322,-1.5205,-1.4788,-1.4949,-1.4931,0.0,0.0,0.0,-1.8322,-1.9153,-1.9329,-1.9229,-1.8843,-1.808,-1.6995,-1.5729,-1.4802,-1.3837,-1.294,-1.2821,-1.2718,-1.2678,0.0,0.0,-1.3995,-1.4549,-1.4983,-1.5291,-1.5634,-1.547,-1.4867,-1.4812,-1.4778,-1.47,-1.4734,-1.4421,-1.3745,-1.3249,-1.2553,-1.1669,-1.0995,-1.0595,0.0,0.0,0.0,0.0,0.0,0.0,0.0,0.0,0.0,0.0,0.0,-1.1477,-1.0989,0.0,0.0,0.0,-1.0334,-1.055,-1.0848,-1.0889,0.0,0.0,0.0,0.0,0.0,0.0,0.0,-0.9665,-0.9044,-0.8602,-0.8674,-0.8783,-0.8706,-0.8219,-0.8486,-0.88,-0.9033,0.0,-1.0623,-1.1758,-1.2748,-1.3705,-1.4424,-1.5098,-1.5568,-1.5758,-1.6274,-1.671,-1.684,-1.6974,-1.7048,-1.7054,-1.7054,-1.7054,-1.7054,-1.6907,-1.6653,-1.6266,-1.6319,-1.6473,-1.6643,-1.676,-1.6907,-1.5345,-1.5387,-1.5661,-1.5796,-1.5842,-1.605,-1.6232,-1.634,-1.5737,-1.5598,-1.5673,-1.4991,-1.4717,-1.489,-1.5939,0.0,-1.7123,-1.8106,-1.8892,-1.9478,-1.9659,-1.9696,-1.9545,-1.8237,-1.7094,-1.6166,-1.4988,-1.3945,-1.3088,-1.3206,-1.2991,-1.2514,-1.2888,-1.3263,-1.3603,-1.4502,-1.494,-1.4859,-1.5359,-1.5179,-1.4276,-1.3906,-1.3826,-1.4057,-1.4077,-1.3955,-1.3632,-1.3135,-1.2543,-1.1862,-1.1162,-1.0665,-1.0314,0.0,0.0,0.0,0.0,0.0,0.0,0.0,0.0,0.0,0.0,0.0,0.0,0.0,0.0,0.0,-1.0431,0.0,-1.1002,-1.1029,0.0,0.0,0.0,-1.1303,-1.1331,-1.0824,-1.0329,-1.0006,0.0,0.0,-0.8665,-0.887,-0.8835,-0.8371,-0.8573,-0.9005,-0.9563,-1.0435,-1.1398,-1.2565,-1.3426,-1.4202,-1.4956,-1.535,-1.5728,-1.6186,-1.679,-1.7112,-1.7186,-1.7414,-1.7601,-1.7549,-1.7582,-1.7569,-1.7582,-1.7528,-1.7415,-1.6867,-1.678,-1.686,-1.7152,-1.7226,-1.7306,-1.5671,-1.5658,-1.5788,-1.5875,-1.5973,-1.6148,-1.6286,-1.6294,-1.6125,-1.6096,-1.6096,-1.5596,-1.5548,-1.5917,-1.6798,-1.7791,-1.8833,-1.9546,-2.025,-2.0972,-2.1041,-2.0642,-1.985,-1.8807,-1.7548,-1.6124,-1.5043,-1.4179,-1.346,-1.3286,-1.3253,-1.3258,-1.3684,-1.4081,-1.4438,-1.5093,-1.5747,-1.636,-1.637,-1.56,-1.4126,-1.3506,-1.331,-1.3637,-1.3952,-1.3995,-1.3741,-1.3548,-1.2979,-1.2069,-1.1292,-1.0682,-1.0329,-1.0191,0.0,0.0,0.0,0.0,0.0,0.0,0.0,0.0,0.0,-1.1166,-1.0715,0.0,-1.0185,0.0,-1.0636,-1.1009,-1.1262,-1.1289,0.0,0.0,-1.1778,-1.1771,-1.169,-1.1337,-1.0899,-1.0479,-0.9938,-0.9549,-0.9435,-0.937,-0.9312,-0.9294,-0.9331,-0.958,-1.0149,-1.1107,-1.2104,-1.3119,-1.4004,-1.4736,-1.5255,-1.5594,-1.5843,-1.6219,-1.658,-1.6881,-1.7159,-1.7388,-1.7589,-1.7589,-1.7589,-1.7589,-1.7575,-1.7589,-1.7542,-1.7402,-1.7375,-1.7388,-1.7462,-1.7527,-1.7495,-1.5825,-1.5825,-1.5825,-1.5832,-1.5895,-1.6032,-1.6123,-1.626,-1.6233,-1.6265,-1.6386,-1.6338,-1.6561,-1.7014,-1.777,-1.8681,-1.9633,-2.0297,-2.0913,-2.1495,-2.14,-2.0902,-2.0007,-1.8873,-1.7604,-1.6152,-1.5126,-1.4365,-1.3828,-1.3681,-1.3642,-1.374,-1.4258,-1.4823,-1.5407,-1.5757,-1.6149,-1.6628,-1.6248,-1.5502,-1.4385,-1.3834,-1.3615,-1.3726,-1.3926,-1.3808,-1.3389,-1.3224,-1.2772,-1.1978,-1.1247,-1.0739,-1.0462,-1.0297,-1.0275,0.0,0.0,0.0,0.0,0.0,0.0,0.0,0.0,0.0,0.0,0.0,-1.0516,-1.0757,-1.1182,-1.1503,-1.179,-1.1937,-1.2138,-1.2438,-1.2611,-1.2661,-1.2506,-1.2288,-1.1923,-1.1519,-1.089,-1.049,-1.0403,-1.0285,-1.029,-1.0449,-1.0605,-1.0757,-1.0953,-1.1824,-1.2845,-1.3859,-1.4634,-1.5166,-1.5594,-1.5843,-1.6079,-1.6253,-1.6513,-1.6767,-1.6921,-1.7081,-1.7194,-1.7188,-1.7194,-1.7241,-1.7414,-1.7395,-1.7422,-1.7549,-1.7589,-1.7589,-1.7589,-1.7589,-1.7589,-1.5825,-1.5825,-1.5825,-1.5825,-1.5825,-1.5825,-1.5927,-1.6204,-1.6209,-1.6412,-1.6817,-1.7286,-1.7774,-1.8284,-1.8936,-1.96,-2.0242,-2.0837,-2.1343,-2.1669,-2.1469,-2.0936,-2.0162,-1.8761,-1.7528,-1.6337,-1.524,-1.4551,-1.4135,-1.4102,-1.4115,-1.4145,-1.4734,-1.5486,-1.6436,-1.6575,-1.6618,-1.6571,-1.5955,-1.5428,-1.4892,-1.4516,-1.4231,-1.4034,-1.4057,-1.3711,-1.3009,-1.275,-1.2393,-1.1838,-1.1235,-1.086,-1.0693,-1.0515,-1.041,0.0,-1.0528,0.0,0.0,0.0,0.0,0.0,0.0,0.0,0.0,-1.066,-1.1093,-1.1543,-1.183,-1.2134,-1.2392,-1.2685,-1.3025,-1.3293,-1.354,-1.366,-1.3553,-1.3361,-1.312,-1.2757,-1.2222,-1.1779,-1.1587,-1.1468,-1.1531,-1.1727,-1.2024,-1.217,-1.2073,-1.2694,-1.3565,-1.4592,-1.5213,-1.5594,-1.575,-1.6032,-1.6186,-1.6226,-1.6433,-1.6647,-1.6647,-1.67,-1.672,-1.6727,-1.6747,-1.6814,-1.7105,-1.7172,-1.7293,-1.7514,-1.7542,-1.7582,-1.7589,-1.7589,-1.7589,-1.5825,-1.5825,-1.5825,-1.5825,-1.5825,-1.5825,-1.5927,-1.6218,-1.668,-1.7392,-1.8402,-1.8918,-1.9475,-2.0142,-2.0678,-2.1272,-2.1933,-2.2292,-2.2553,-2.2761,-2.237,-2.1624,-2.0627,-1.9442,-1.8069,-1.663,-1.5569,-1.4861,-1.4429,-1.4202,-1.4349,-1.4865,-1.5313,-1.6162,-1.7389,0.0,0.0,0.0,-1.7321,-1.6485,-1.5509,-1.519,-1.4835,-1.4253,-1.4261,0.0,-1.3854,-1.3264,-1.2822,-1.2576,-1.1901,0.0,0.0,0.0,0.0,0.0,0.0,0.0,0.0,0.0,0.0,0.0,-1.1743,-1.1612,-1.106,-1.1411,-1.1935,-1.2469,-1.2583,-1.2744,-1.3006,-1.33,-1.3594,-1.3888,-1.4182,-1.4332,-1.4389,-1.4212,-1.394,-1.3658,-1.3216,-1.2889,-1.2779,-1.2759,-1.2732,-1.284,-1.3227,-1.3619,-1.3763,-1.3757,-1.4052,-1.4885,-1.5404,-1.573,-1.5778,-1.5885,-1.5945,-1.5945,-1.6159,-1.6339,-1.6366,-1.6547,-1.6693,-1.668,-1.6707,-1.67,-1.678,-1.6981,-1.7206,-1.7273,-1.7474,-1.7589,-1.7589,-1.7589,-1.7589,-1.5825,0.0,-1.5825,-1.5825,0.0,-1.5825,-1.6021,-1.6454,-1.6918,-1.8032,-1.9554,-2.0093,-2.0682,-2.1365,-2.1633,-2.2043,-2.2574,-2.2759,-2.2925,-2.3047,-2.253,-2.1799,-2.0828,-1.9387,-1.805,-1.6788,-1.5758,-1.5089,-1.473,-1.4596,-1.4745,-1.5149,-1.5762,-1.6591,-1.7529,-1.8616,-1.8993,-1.8665,-1.8144,-1.7446,-1.65,-1.6177,-1.5619,-1.4889,-1.4736,0.0,0.0,0.0,0.0,0.0,0.0,0.0,0.0,0.0,0.0,-1.1526,-1.1526,-1.1662,-1.1867,-1.1887,-1.1914,-1.1992,-1.2425,-1.2449,-1.2033,-1.2204,-1.2589,-1.3126,-1.336,-1.3527,-1.3828,-1.4122,-1.4355,-1.4553,-1.4776,-1.4927,-1.4832,-1.4838,-1.4788,-1.4499,-1.42,-1.3915,-1.3884,-1.3757,-1.3757,-1.3859,-1.41,-1.4442,-1.4777,-1.4682,-1.4736,-1.5309,-1.5642,-1.5778,-1.5825,-1.5825,-1.5825,-1.5852,-1.5959,-1.6039,-1.6052,-1.6172,-1.6273,-1.6273,-1.6224,-1.6306,-1.648,-1.6727,-1.7025,-1.7186,-1.7434,-1.7575,-1.7589,-1.7589,-1.7589,-1.5825,-1.5825,-1.5825,-1.5825,-1.5825,-1.5825,-1.6163,-1.6777,0.0,0.0,0.0,-2.0916,-2.1544,-2.2239,-2.2239,-2.2451,-2.2838,-2.2847,-2.2925,-2.3013,-2.2397,-2.1687,-2.0844,-1.9216,-1.7961,-1.6969,-1.5941,-1.5314,-1.5082,-1.5035,-1.5096,-1.5388,-1.613,-1.6964,-1.7852,-1.9079,-1.954,-1.9141,-1.8669,-1.8112,-1.7351,-1.6935,-1.6307,-1.5498,-1.5281,-1.4668,-1.3667,-1.3272,-1.2906,-1.2676,-1.2048,-1.185,-1.2114,-1.187,-1.1702,-1.1708,-1.1702,-1.1815,-1.2127,-1.2147,-1.2258,-1.2592,-1.3126,-1.3313,-1.3045,-1.3072,-1.3326,-1.3793,-1.4102,-1.4342,-1.4576,-1.4863,-1.5089,-1.5089,-1.5297,-1.5372,-1.5199,-1.5389,-1.5425,-1.5267,-1.4962,-1.4831,-1.4825,-1.4634,-1.4586,-1.4783,-1.4879,-1.5029,-1.5397,-1.5309,-1.5315,-1.5689,-1.5778,-1.5825,-1.5825,-1.5825,-1.5825,-1.5825,-1.5832,-1.5825,-1.5825,-1.5825,-1.5825,-1.5879,-1.5832,-1.5945,-1.6159,-1.6486,-1.6774,-1.7079,-1.74,-1.7589,-1.7589,-1.7589,-1.7589,-1.5825,-1.5825,-1.5825,-1.5825,-1.5825,-1.5825,-1.6346,-1.7279,-1.845,-1.9546,-2.0591,-2.1275,-2.1998,-2.2715,-2.2671,-2.2838,-2.3057,-2.3057,-2.296,-2.2794,-2.2309,-2.1597,-2.0637,-1.9588,-1.841,-1.7238,-1.6388,-1.5789,-1.5357,-1.5135,-1.5294,-1.5881,-1.6397,-1.7581,-1.9363,-1.9925,-1.9996,-1.9761,-1.9035,-1.8144,-1.718,-1.6853,-1.6426,-1.5872,-1.5627,-1.5316,-1.4889,-1.4284,-1.3867,-1.3621,-1.3167,-1.2979,-1.3013,-1.2959,-1.2959,-1.2959,-1.2959,-1.2986,-1.3013,-1.3019,-1.326,-1.3794,-1.4148,-1.4215,-1.3935,-1.4128,-1.4416,-1.4787,-1.4841,-1.4901,-1.4961,-1.517,-1.5337,-1.5351,-1.5591,-1.5718,-1.5651,-1.5697,-1.573,-1.5689,-1.5499,-1.535,-1.535,-1.5302,-1.5302,-1.5397,-1.5452,-1.5635,-1.5683,-1.573,-1.5737,-1.5784,-1.5825,-1.5825,-1.5825,-1.5825,-1.5825,-1.5825,-1.5825,-1.5825,-1.5825,-1.5825,-1.5825,-1.5825,-1.5825,-1.5852,-1.5878,-1.6339,-1.6653,-1.6814,-1.7194,-1.7542,-1.7569,-1.7635,-1.7641,-1.5825,-1.5825,-1.5825,-1.5825,-1.5825,-1.6116,-1.6629,-1.7419,-1.8765,-1.9911,-2.0862,-2.1722,-2.2397,-2.2916,-2.2969,-2.3003,-2.3101,-2.3101,-2.3047,-2.2882,-2.222,-2.1499,-2.0718,-1.9401,-1.8257,-1.7264,-1.6542,-1.5959,-1.5618,-1.5498,-1.5581,-1.5878,-1.664,-1.7858,-1.9324,-1.9793,-1.9922,-1.982,-1.9088,-1.8264,-1.7261,-1.6894,-1.6368,-1.5759,-1.5663,-1.5384,-1.4901,-1.4418,-1.402,-1.3777,-1.3404,-1.3206,-1.3206,-1.3206,-1.3206,-1.3213,-1.332,-1.3473,-1.3681,-1.3988,-1.4275,-1.4586,-1.483,-1.4943,-1.481,-1.4776,-1.4883,-1.5164,-1.5197,-1.5264,-1.5418,-1.5551,-1.5638,-1.5625,-1.5711,-1.5825,-1.5825,-1.5825,-1.5825,-1.5778,-1.5737,-1.5683,-1.5683,-1.5689,-1.5689,-1.5683,-1.5778,-1.5825,-1.5825,-1.5825,-1.5825,-1.5825,-1.5825,-1.5825,-1.5825,-1.5825,-1.5825,-1.5825,-1.5825,-1.5825,-1.5825,-1.5825,-1.5825,-1.5825,-1.5825,-1.5825,-1.5832,-1.6172,-1.6473,-1.6727,-1.7034,-1.7355,-1.7522,-1.7687,-1.7852,-1.5825,-1.5825,-1.5825,-1.5825,-1.5879,-1.6346,-1.6857,-1.7419,-1.8888,-2.0076,-2.1042,-2.1989,-2.2652,-2.3091,-2.3101,-2.3101,-2.3101,-2.3101,-2.3057,-2.2916,-2.2176,-2.1454,-2.0808,-1.9309,-1.811,-1.7326,-1.6588,-1.6123,-1.5832,-1.5825,-1.5866,-1.6093,-1.6981,-1.8053,-1.9105,-1.9462,-1.9643,-1.9642,-1.8946,-1.8196,-1.7392,-1.6891,-1.6281,-1.5592,-1.5496,-1.5255,-1.4818,-1.4432,-1.4146,-1.3947,-1.3601,-1.3434,-1.35,-1.3507,-1.3534,-1.3614,-1.3773,-1.4041,-1.4325,-1.4763,-1.5109,-1.5115,-1.5324,-1.5491,-1.5478,-1.5291,-1.5251,-1.5451,-1.5498,-1.5585,-1.5758,-1.5812,-1.5825,-1.5825,-1.5825,-1.5825,-1.5825,-1.5825,-1.5825,-1.5825,-1.5825,-1.5825,-1.5825,-1.5825,-1.5778,-1.5778,-1.5825,-1.5825,-1.5825,-1.5825,-1.5825,-1.5825,-1.5825,-1.5825,-1.5825,-1.5825,-1.5825,-1.5825,-1.5825,-1.5825,-1.5825,-1.5825,-1.5825,-1.5825,-1.5825,-1.5825,-1.5804,-1.6152,-1.6446,-1.6693,-1.7034,-1.74,-1.7588,-1.7845,-1.8167,-1.5825,-1.5825,-1.5825,-1.5825,-1.5872,-1.6393,-1.6871,-1.7473,-1.8842,-2.0085,-2.1069,-2.1989,-2.2662,-2.3057,-2.3101,-2.3101,-2.3101,-2.3101,-2.3003,-2.2794,-2.2318,-2.1544,-2.0637,-1.96,-1.8496,-1.7372,-1.6777,-1.6305,-1.5832,-1.5825,-1.615,-1.6842,-1.7446,-1.8134,-1.9042,-1.9019,-1.9137,-1.9402,-1.8572,-1.7859,-1.7299,-1.6665,-1.6032,-1.5448,-1.5247,-1.5115,-1.5045,-1.4789,-1.4566,-1.4358,-1.412,-1.4122,-1.4349,-1.4352,-1.4509,-1.4794,-1.4847,-1.4901,-1.4941,-1.5177,-1.5357,-1.5378,-1.5618,-1.5724,-1.5778,-1.5752,-1.5704,-1.5724,-1.5724,-1.5738,-1.5825,-1.5825,-1.5825,-1.5825,-1.5825,-1.5825,-1.5825,-1.5825,-1.5825,-1.5825,-1.5825,-1.5825,-1.5825,-1.5825,-1.5825,-1.5825,-1.5825,-1.5825,-1.5825,-1.5825,-1.5825,-1.5825,-1.5825,-1.5825,-1.5825,-1.5825,-1.5825,-1.5825,-1.5825,-1.5825,-1.5825,-1.5825,-1.5825,-1.5825,-1.5825,-1.5825,-1.5939,-1.6253,-1.662,-1.674,-1.7094,-1.7542,-1.7687,-1.8003,-1.8422,-1.6258,-1.6251,-1.6123,-1.5933,-1.5872,-1.64,-1.7025,-1.7753,-1.9199,-2.0407,-2.1343,-2.2351,-2.2882,-2.3101,-2.3101,-2.3101,-2.3101,-2.3101,-2.3047,-2.2925,-2.2353,-2.1731,-2.1042,-1.9965,-1.8858,-1.7807,-1.716,-1.6548,-1.6076,-1.5879,-1.6069,-1.6501,-1.6871,-1.7466,-1.8241,-1.8394,-1.8659,-1.9014,-1.8552,-1.7955,-1.7274,-1.6615,-1.6111,-1.5778,-1.5504,-1.5417,-1.5373,-1.5156,-1.4989,-1.4945,-1.4734,-1.47,-1.4776,-1.4783,-1.4874,-1.5015,-1.5176,-1.5297,-1.5471,-1.5585,-1.5651,-1.5651,-1.5718,-1.5825,-1.5825,-1.5825,-1.5825,-1.5825,-1.5825,-1.5825,-1.5825,-1.5825,-1.5825,-1.5825,-1.5825,-1.5825,-1.5825,-1.5825,-1.5825,-1.5825,-1.5825,-1.5825,-1.5825,-1.5825,-1.5825,-1.5825,-1.5825,-1.5825,-1.5825,-1.5825,-1.5825,-1.5825,-1.5825,-1.5825,-1.5825,-1.5825,-1.5825,-1.5825,-1.5825,-1.5825,-1.5825,-1.5825,-1.5825,-1.5825,-1.5825,-1.5825,-1.5825,-1.6139,-1.6486,-1.6727,-1.7154,-1.7635,-1.7799,-1.8265,-1.8781,-1.6921,-1.6904,-1.6573,-1.6272,-1.6114,-1.6642,-1.7352,-1.8223,-1.9645,-2.0827,-2.1835,-2.276,-2.3283,-2.3397,-2.3218,-2.3101,-2.3101,-2.3101,-2.3101,-2.3057,-2.2539,-2.1998,-2.1392,-2.0402,-1.9317,-1.8303,-1.7574,-1.6831,-1.6265,-1.6021,-1.6028,-1.6218,-1.64,-1.6824,-1.7473,-1.7707,-1.7986,-1.8311,-1.8172,-1.7772,-1.7126,-1.6574,-1.6147,-1.5826,-1.5575,-1.5435,-1.5435,-1.5277,-1.5194,-1.5187,-1.5053,-1.5048,-1.5122,-1.5129,-1.5162,-1.5204,-1.5398,-1.5605,-1.5818,-1.5825,-1.5825,-1.5825,-1.5825,-1.5825,-1.5825,-1.5825,-1.5825,-1.5825,-1.5825,-1.5825,-1.5825,-1.5825,-1.5825,-1.5825,-1.5825,-1.5825,-1.5825,-1.5825,-1.5825,-1.5825,-1.5825,-1.5825,-1.5825,-1.5825,-1.5825,-1.5825,-1.5825,-1.5825,-1.5825,-1.5825,-1.5825,-1.5825,-1.5825,-1.5825,-1.5825,-1.5825,-1.5825,-1.5825,-1.5825,-1.5825,-1.5825,-1.5825,-1.5825,-1.5825,-1.5825,-1.5905,-1.6019,-1.6233,-1.656,-1.6907,-1.7281,-1.7687,-1.7911,-1.8475,-1.925,-1.769,-1.7679,-1.7246,-1.6889,-1.671,-1.7237,-1.7902,-1.8762,-2.0055,-2.1314,-2.2528,-2.3317,-2.3913,-2.4212,-2.35,-2.311,-2.311,-2.3101,-2.3101,-2.3091,-2.2847,-2.2388,-2.165,-2.0907,-1.994,-1.8842,-1.8064,-1.7192,-1.6265,-1.617,-1.6177,-1.617,-1.6218,-1.6508,-1.6925,-1.7066,-1.716,-1.7426,-1.7254,-1.7106,-1.6951,-1.6492,-1.5975,-1.5476,-1.5163,-1.51,-1.508,-1.5022,-1.5028,-1.5028,-1.5048,-1.5149,-1.5337,-1.5384,-1.5491,-1.5684,-1.5785,-1.5758,-1.5771,-1.5825,-1.5825,-1.5825,-1.5825,-1.5825,-1.5825,-1.5825,-1.5825,-1.5825,-1.5825,-1.5825,-1.5825,-1.5825,-1.5825,-1.5825,-1.5825,-1.5825,-1.5825,-1.5825,-1.5825,-1.5825,-1.5825,-1.5825,-1.5825,-1.5825,-1.5825,-1.5825,-1.5825,-1.5825,-1.5825,-1.5825,-1.5825,-1.5825,-1.5825,-1.5825,-1.5825,-1.5825,-1.5825,-1.5825,-1.5825,-1.5825,-1.5825,-1.5825,-1.5825,-1.5845,-1.5885,-1.6005,-1.6274,-1.6583,-1.6914,-1.7215,-1.7447,-1.7747,-1.8115,-1.8803,-1.968,-1.8773,-1.8375,-1.7845,-1.7356,-1.7014,-1.7541,-1.8259,-1.9142,-2.0622,-2.1853,-2.2934,-2.3747,-2.422,-2.4394,-2.4102,-2.3809,-2.3545,-2.3227,-2.3101,-2.3091,-2.2882,-2.2574,-2.2122,-2.1445,-2.0637,-1.9729,-1.8842,-1.7738,-1.6541,-1.6312,-1.6123,-1.5974,-1.5927,-1.6123,-1.6407,-1.6515,-1.669,-1.7066,-1.7026,-1.6979,-1.6979,-1.6791,-1.653,-1.6142,-1.5704,-1.5518,-1.5518,-1.5518,-1.5518,-1.5518,-1.5518,-1.5558,-1.5611,-1.5671,-1.5712,-1.5812,-1.5825,-1.5825,-1.5825,-1.5825,-1.5825,-1.5825,-1.5825,-1.5825,-1.5825,-1.5825,-1.5825,-1.5825,-1.5825,-1.5825,-1.5825,-1.5825,-1.5825,-1.5825,-1.5825,-1.5825,-1.5825,-1.5825,-1.5825,-1.5825,-1.5825,-1.5825,-1.5825,-1.5825,-1.5825,-1.5825,-1.5825,-1.5825,-1.5825,-1.5825,-1.5825,-1.5825,-1.5825,-1.5825,-1.5825,-1.5825,-1.5825,-1.5825,-1.5825,-1.5825,-1.5825,-1.5825,-1.5825,-1.5865,-1.5919,-1.6146,-1.6435,-1.6811,-1.7206,-1.7447,-1.7635,-1.795,-1.8415,-1.9257,-2.0285,-1.9756,-1.8999,-1.8454,-1.7944,-1.7604,-1.7987,-1.8766,-1.9735,-2.1137,-2.2397,-2.3438,-2.4167,-2.4584,-2.475,-2.4697,-2.4482,-2.417,-2.376,-2.351,-2.3491,-2.3241,-2.2951,-2.2656,-2.2045,-2.1365,-2.0546,-1.9446,-1.8249,-1.7052,-1.6643,-1.6265,-1.5981,-1.5825,-1.5879,-1.6076,-1.617,-1.6414,-1.6697,-1.6885,-1.7026,-1.7073,-1.716,-1.7145,-1.6911,-1.648,-1.6157,-1.5933,-1.5832,-1.5825,-1.5825,-1.5825,-1.5825,-1.5825,-1.5825,-1.5825,-1.5825,-1.5825,-1.5825,-1.5825,-1.5825,-1.5825,-1.5825,-1.5825,-1.5825,-1.5825,-1.5825,-1.5825,-1.5825,-1.5825,-1.5825,-1.5927,-1.5927,-1.5879,-1.5832,-1.5825,-1.5825,-1.5825,-1.5825,-1.5825,-1.5825,-1.5825,-1.5825,-1.5825,-1.5825,-1.5825,-1.5825,-1.5825,-1.5825,-1.5825,-1.5825,-1.5825,-1.5825,-1.5825,-1.5825,-1.5825,-1.5825,-1.5825,-1.5825,-1.5825,-1.5825,-1.5825,-1.5825,-1.5852,-1.5892,-1.6059,-1.6306,-1.667,-1.7045,-1.7326,-1.7574,-1.7793,-1.8115,-1.8885,-1.9864,-2.0944,-2.056,-1.9613,-1.9052,-1.8613,-1.839,-1.8695,-1.9413,-2.0495,-2.1633,-2.2868,-2.3952,-2.4648,-2.5139,-2.5441,-2.5177,-2.5049,-2.4951,-2.4553,-2.4319,-2.4222,-2.3955,-2.3654,-2.3355,-2.277,-2.2119,-2.1383,-1.9945,-1.8743,-1.7783,-1.7268,-1.6737,-1.6218,-1.5974,-1.5832,-1.5825,-1.6082,-1.6224,-1.6414,-1.6838,-1.7153,-1.7326,-1.7652,-1.7785,-1.7692,-1.7419,-1.6911,-1.6265,-1.5981,-1.5832,-1.5825,-1.5825,-1.5825,-1.5825,-1.5825,-1.5825,-1.5825,-1.5825,-1.5825,-1.5825,-1.5825,-1.5825,-1.5825,-1.5825,-1.5825,-1.5825,-1.5825,-1.5825,-1.5825,-1.5825,-1.5879,-1.6123,-1.6177,-1.6123,-1.5879,-1.5879,-1.5927,-1.5872,-1.5825,-1.5825,-1.5825,-1.5825,-1.5825,-1.5825,-1.5825,-1.5825,-1.5825,-1.5825,-1.5825,-1.5825,-1.5825,-1.5825,-1.5825,-1.5825,-1.5825,-1.5825,-1.5825,-1.5825,-1.5825,-1.5825,-1.5825,-1.5825,-1.5832,-1.5899,-1.5965,-1.6333,-1.6643,-1.6967,-1.7353,-1.7506,-1.774,-1.7957,-1.8429,-1.9406,-2.0431,-2.1548,-2.1029,-2.0452,-1.9731,-1.916,-1.881,-1.9212,-1.982,-2.0637,-2.2013,-2.3238,-2.4134,-2.4833,-2.5294,-2.5362,-2.5276,-2.5228,-2.5218,-2.5064,-2.4811,-2.4446,-2.4287,-2.4183,-2.4052,-2.3717,-2.311,-2.2169,-2.0965,-1.9871,-1.8895,-1.7952,-1.7138,-1.6541,-1.6218,-1.5981,-1.5825,-1.6076,-1.6366,-1.6791,-1.7239,-1.7746,-1.8311,-1.8581,-1.8719,-1.8673,-1.8172,-1.7574,-1.6958,-1.6407,-1.6028,-1.5825,-1.5825,-1.5825,-1.5825,-1.5825,-1.5825,-1.5825,-1.5825,-1.5825,-1.5825,-1.5825,-1.5825,-1.5825,-1.5825,-1.5825,-1.5825,-1.5825,-1.5825,-1.5825,-1.5825,-1.5879,-1.617,-1.6407,-1.6447,-1.6353,-1.6346,-1.6346,-1.6298,-1.617,-1.6028,-1.5825,-1.5825,-1.5825,-1.5825,-1.5825,-1.5825,-1.5825,-1.5825,-1.5825,-1.5825,-1.5825,-1.5825,-1.5825,-1.5825,-1.5832,-1.5784,-1.5872,-1.5919,-1.5892,-1.5865,-1.5832,-1.5825,-1.5905,-1.5965,-1.6213,-1.6616,-1.6951,-1.7333,-1.7541,-1.7667,-1.8003,-1.8318,-1.9042,-1.9975,-2.1046,-2.2165,-2.1418,-2.0814,-2.0042,-1.9583,-1.9376,-1.9635,-2.0189,-2.1046,-2.2316,-2.3379,-2.4282,-2.4981,-2.5284,-2.5284,-2.5284,-2.5284,-2.5284,-2.5284,-2.515,-2.4884,-2.4697,-2.4668,-2.4582,-2.4251,-2.3775,-2.2981,-2.2013,-2.1045,-2.0169,-1.8942,-1.798,-1.7319,-1.6746,-1.6359,-1.6157,-1.6359,-1.6697,-1.7113,-1.7699,-1.8342,-1.9004,-1.9417,-1.9646,-1.9646,-1.905,-1.835,-1.7692,-1.6918,-1.6312,-1.5927,-1.5825,-1.5825,-1.5825,-1.5825,-1.5825,-1.5825,-1.5825,-1.5825,-1.5825,-1.5825,-1.5825,-1.5825,-1.5825,-1.5825,-1.5825,-1.5825,-1.5825,-1.5825,-1.5825,-1.5927,-1.6312,-1.6683,-1.6951,-1.7232,-1.7138,-1.6998,-1.6864,-1.6548,-1.6265,-1.6028,-1.5879,-1.5825,-1.5825,-1.5825,-1.5825,-1.5825,-1.5825,-1.5825,-1.5825,-1.5825,-1.5832,-1.5838,-1.5825,-1.5832,-1.5798,-1.5912,-1.5999,-1.5972,-1.5925,-1.5865,-1.5825,-1.6005,-1.6126,-1.654,-1.6971,-1.7248,-1.7592,-1.7725,-1.7852,-1.8265,-1.8781,-1.9613,-2.0542,-2.1658,-2.2778,-2.1573,-2.0865,-2.0094,-1.9939,-2.0086,-1.9931,-2.055,-2.1725,-2.2627,-2.3529,-2.444,-2.5088,-2.5333,-2.5294,-2.5284,-2.5284,-2.5284,-2.5284,-2.5411,-2.544,-2.5303,-2.5107,-2.5068,-2.4617,-2.42,-2.3758,-2.3053,-2.2345,-2.1492,-2.0194,-1.913,-1.8432,-1.7614,-1.6961,-1.6786,-1.6947,-1.7059,-1.7333,-1.8071,-1.8812,-1.9546,-2.0102,-2.0473,-2.0654,-2.0011,-1.9217,-1.8434,-1.7434,-1.6602,-1.5927,-1.5825,-1.5825,-1.5825,-1.5825,-1.5825,-1.5825,-1.5825,-1.5832,-1.5832,-1.5879,-1.5825,-1.5825,-1.5825,-1.5825,-1.5825,-1.5825,-1.5825,-1.5825,-1.5832,-1.6062,-1.6541,-1.7052,-1.7652,-1.8334,-1.8156,-1.7738,-1.7372,-1.6911,-1.6541,-1.6224,-1.5981,-1.5825,-1.5825,-1.5825,-1.5825,-1.5825,-1.5825,-1.5825,-1.5845,-1.5811,-1.5818,-1.5905,-1.5972,-1.6079,-1.6159,-1.6206,-1.6293,-1.6266,-1.6206,-1.6139,-1.6086,-1.6259,-1.6531,-1.6948,-1.7309,-1.7601,-1.7828,-1.8067,-1.8422,-1.8885,-1.9561,-2.0225,-2.1251,-2.2417,-2.3477,-2.1377,-2.1121,-2.0565,-2.0454,-2.066,-2.0609,-2.1113,-2.208,-2.3079,-2.3827,-2.4587,-2.5284,-2.544,-2.5284,-2.5294,-2.5284,-2.5313,-2.5313,-2.544,-2.5674,-2.5635,-2.5557,-2.5557,-2.5363,-2.5121,-2.4775,-2.4173,-2.3507,-2.2693,-2.1518,-2.0535,-1.975,-1.8701,-1.7955,-1.76,-1.7377,-1.7246,-1.7419,-1.8272,-1.9104,-1.9828,-2.0654,-2.1114,-2.1159,-2.0645,-1.9903,-1.8996,-1.7714,-1.6643,-1.5872,-1.5825,-1.5825,-1.5825,-1.5872,-1.5927,-1.6076,-1.6123,-1.6076,-1.6123,-1.6123,-1.6028,-1.5825,-1.5825,-1.5825,-1.5825,-1.5825,-1.5825,-1.5825,-1.5974,-1.6312,-1.6878,-1.7527,-1.8488,-1.9629,-1.9342,-1.8643,-1.8032,-1.7426,-1.6911,-1.6305,-1.5974,-1.5832,-1.5852,-1.5852,-1.5865,-1.5872,-1.5885,-1.5885,-1.5917,-1.6066,-1.6152,-1.6239,-1.6319,-1.6433,-1.652,-1.656,-1.6587,-1.6587,-1.6573,-1.6573,-1.6643,-1.677,-1.7089,-1.7442,-1.7781,-1.8077,-1.8366,-1.8617,-1.9094,-1.9665,-2.0328,-2.1089,-2.2165,-2.3297,-2.4254,-2.1623,-2.1623,-2.1173,-2.1224,-2.153,-2.142,-2.1878,-2.2627,-2.3379,-2.3985,-2.4587,-2.5245,-2.5391,-2.5156,-2.5417,-2.5602,-2.5602,-2.5612,-2.5769,-2.5927,-2.5771,-2.5684,-2.5674,-2.5684,-2.5635,-2.5421,-2.4986,-2.4494,-2.3809,-2.2777,-2.1886,-2.1124,-2.0047,-1.9263,-1.8766,-1.827,-1.8062,-1.815,-1.8714,-1.936,-2.013,-2.095,-2.1472,-2.1517,-2.1186,-2.0402,-1.9234,-1.8087,-1.7059,-1.6346,-1.6116,-1.6116,-1.6163,-1.6258,-1.6359,-1.6555,-1.6595,-1.6683,-1.6643,-1.6595,-1.6454,-1.6305,-1.6116,-1.5981,-1.5933,-1.5879,-1.5825,-1.5825,-1.6076,-1.6461,-1.7066,-1.8079,-1.9528,-2.0772,-2.0706,-1.9941,-1.8974,-1.8203,-1.7419,-1.673,-1.6218,-1.5994,-1.5985,-1.6019,-1.6086,-1.6172,-1.6253,-1.6246,-1.6259,-1.6373,-1.646,-1.6526,-1.658,-1.666,-1.676,-1.6814,-1.6982,-1.6988,-1.7272,-1.7221,-1.7316,-1.7432,-1.7637,-1.7981,-1.8317,-1.8691,-1.9094,-1.9554,-2.0122,-2.0688,-2.1293,-2.2021,-2.3055,-2.4072,-2.5067,-2.2173,-2.2173,-2.1928,-2.2123,-2.2526,-2.2375,-2.2677,-2.3329,-2.3678,-2.4084,-2.4548,-2.5087,-2.531,-2.5076,-2.5752,-2.6085,-2.6145,-2.6135,-2.6245,-2.6278,-2.6094,-2.582,-2.5869,-2.5723,-2.5693,-2.5635,-2.544,-2.5148,-2.4643,-2.3818,-2.3107,-2.2416,-2.1451,-2.0653,-2.0022,-1.9488,-1.9218,-1.9069,-1.9287,-1.9787,-2.053,-2.1276,-2.1898,-2.2142,-2.1707,-2.0797,-1.9662,-1.8681,-1.7939,-1.7005,-1.6817,-1.6723,-1.6723,-1.6972,-1.7113,-1.7207,-1.7333,-1.7419,-1.738,-1.7293,-1.7149,-1.7084,-1.6672,-1.6395,-1.6416,-1.6265,-1.6073,-1.608,-1.6177,-1.677,-1.768,-1.9055,-2.0545,-2.1721,-2.2023,-2.1513,-2.0434,-1.9269,-1.8217,-1.7301,-1.6707,-1.6409,-1.6365,-1.6388,-1.64,-1.644,-1.6506,-1.6493,-1.654,-1.6653,-1.672,-1.6817,-1.6807,-1.6847,-1.6954,-1.7105,-1.7288,-1.74,-1.795,-1.8133,-1.8147,-1.8262,-1.8346,-1.8615,-1.9117,-1.9672,-2.0181,-2.0696,-2.1216,-2.1809,-2.246,-2.3167,-2.3913,-2.49,-2.5888,-2.2526,-2.2728,-2.2677,-2.2979,-2.337,-2.3379,-2.3587,-2.3926,-2.4183,-2.4341,-2.4613,-2.5164,-2.5555,-2.5762,-2.6256,-2.657,-2.6732,-2.6773,-2.6834,-2.6816,-2.6445,-2.6269,-2.6162,-2.5937,-2.5703,-2.5693,-2.5635,-2.5479,-2.5089,-2.473,-2.4242,-2.3677,-2.2766,-2.1979,-2.1269,-2.0533,-1.9811,-1.9568,-1.9886,-2.0384,-2.1038,-2.1975,-2.2677,-2.2945,-2.23,-2.1399,-2.0462,-1.9812,-1.9301,-1.875,-1.8071,-1.7729,-1.7613,-1.7753,-1.7986,-1.8071,-1.8164,-1.8203,-1.8164,-1.8141,-1.8045,-1.798,-1.7706,-1.7486,-1.7583,-1.7078,-1.6845,-1.6866,-1.7063,-1.7679,-1.8974,-2.0467,-2.1637,-2.246,-2.3028,-2.301,-2.2265,-2.0894,-1.951,-1.8529,-1.7708,-1.714,-1.6955,-1.672,-1.6717,-1.6714,-1.6734,-1.672,-1.682,-1.6954,-1.7001,-1.7105,-1.7128,-1.7174,-1.7369,-1.7547,-1.7839,-1.8154,-1.8651,-1.9338,-1.9354,-1.9391,-1.9627,-1.9797,-2.0012,-2.0609,-2.1383,-2.1936,-2.2477,-2.3077,-2.3687,-2.4359,-2.5047,-2.5942,-2.6445,-2.3288,-2.3628,-2.3678,-2.3877,-2.4223,-2.4233,-2.4291,-2.4332,-2.443,-2.4551,-2.4687,-2.512,-2.5601,-2.6133,-2.6628,-2.7046,-2.7273,-2.7324,-2.7197,-2.7021,-2.6748,-2.6582,-2.6377,-2.6152,-2.5967,-2.5742,-2.5684,-2.5586,-2.544,-2.5235,-2.4913,-2.4627,-2.3797,-2.3175,-2.2565,-2.1758,-2.118,-2.0875,-2.0958,-2.1322,-2.1895,-2.2618,-2.3299,-2.3514,-2.3094,-2.2492,-2.1951,-2.1463,-2.1064,-2.062,-2.0046,-1.9271,-1.8727,-1.8804,-1.8988,-1.9072,-1.9217,-1.9263,-1.9271,-1.9333,-1.9325,-1.9091,-1.8801,-1.8548,-1.8247,-1.7704,-1.7263,-1.722,-1.7449,-1.8185,-1.9909,-2.1109,-2.2173,-2.3228,-2.373,-2.3918,-2.3583,-2.2197,-2.0523,-1.9519,-1.8607,-1.8024,-1.7595,-1.7356,-1.718,-1.7224,-1.7233,-1.7226,-1.7201,-1.7315,-1.7328,-1.7434,-1.7468,-1.7568,-1.7784,-1.8105,-1.8495,-1.8925,-1.9517,-2.0335,-2.0916,-2.0928,-2.1024,-2.1171,-2.1353,-2.1993,-2.2707,-2.3248,-2.3845,-2.4503,-2.5076,-2.5609,-2.6117,-2.666,-2.7069,-2.4174,-2.4578,-2.4578,-2.4726,-2.4932,-2.4981,-2.4833,-2.4637,-2.4653,-2.4796,-2.4919,-2.5136,-2.5816,-2.6347,-2.7017,-2.7472,-2.7711,-2.7796,-2.7598,-2.7363,-2.7187,-2.6982,-2.6728,-2.6543,-2.6338,-2.5898,-2.5742,-2.5703,-2.5635,-2.5499,-2.5284,-2.5128,-2.4677,-2.406,-2.3701,-2.3161,-2.2533,-2.2264,-2.2266,-2.2432,-2.2895,-2.3375,-2.3862,-2.4095,-2.3982,-2.3645,-2.3252,-2.2888,-2.2544,-2.229,-2.2254,-2.1476,-2.0597,-2.0056,-2.0272,-2.0289,-2.0548,-2.0672,-2.0801,-2.0826,-2.081,-2.0531,-2.0183,-1.9775,-1.9254,-1.8533,-1.7945,-1.7672,-1.7887,-1.8625,-2.0272,-2.1533,-2.2681,-2.3721,-2.4315,-2.463,-2.4549,-2.3281,-2.1947,-2.0582,-1.9755,-1.9119,-1.8484,-1.8096,-1.7901,-1.7718,-1.7713,-1.774,-1.7747,-1.7733,-1.7798,-1.7777,-1.7877,-1.8153,-1.8377,-1.9071,-1.9428,-2.0112,-2.0599,-2.1582,-2.2505,-2.291,-2.298,-2.2621,-2.2852,-2.3484,-2.4083,-2.4632,-2.5242,-2.5909,-2.6299,-2.6586,-2.7008,-2.7386,-2.7594,-2.4784,-2.4843,-2.5079,-2.5177,-2.5284,-2.544,-2.5382,-2.5194,-2.5273,-2.522,-2.5177,-2.5862,-2.6317,-2.6859,-2.7448,-2.7951,-2.8125,-2.8105,-2.8086,-2.793,-2.7715,-2.7451,-2.7305,-2.7031,-2.6846,-2.6621,-2.6161,-2.581,-2.5771,-2.5645,-2.5615,-2.5332,-2.5175,-2.4881,-2.4399,-2.3985,-2.3628,-2.3429,-2.3363,-2.3565,-2.3874,-2.4307,-2.4602,-2.4858,-2.4677,-2.4391,-2.4039,-2.371,-2.3495,-2.3429,-2.3429,-2.3243,-2.2686,-2.1907,-2.1672,-2.1843,-2.1916,-2.2061,-2.2288,-2.2469,-2.2476,-2.2268,-2.1865,-2.1329,-2.0758,-1.988,-1.8979,-1.8604,-1.8773,-1.9529,-2.0996,-2.2127,-2.3305,-2.426,-2.4906,-2.5285,-2.5119,-2.4547,-2.355,-2.2216,-2.1235,-2.0257,-1.9609,-1.9015,-1.8726,-1.853,-1.8401,-1.8422,-1.837,-1.8318,-1.8304,-1.8297,-1.8258,-1.8632,-1.9004,-1.9865,-2.0584,-2.1494,-2.2214,-2.3168,-2.4078,-2.4878,-2.5006,-2.4573,-2.4493,-2.4924,-2.547,-2.6007,-2.6294,-2.6687,-2.7091,-2.7497,-2.7623,-2.777,-2.7935,-2.5186,-2.5342,-2.5489,-2.5489,-2.5538,-2.5645,-2.5538,-2.5351,-2.5626,-2.573,-2.5848,-2.6313,-2.6886,-2.7342,-2.7684,-2.8067,-2.8237,-2.8301,-2.8301,-2.8232,-2.8086,-2.7851,-2.7767,-2.7432,-2.7207,-2.6973,-2.6532,-2.6337,-2.6406,-2.6366,-2.616,-2.5906,-2.5719,-2.5416,-2.4979,-2.4627,-2.4449,-2.4341,-2.4341,-2.444,-2.4677,-2.5137,-2.5334,-2.5334,-2.5304,-2.5102,-2.4985,-2.4813,-2.4602,-2.4485,-2.4428,-2.4302,-2.3913,-2.3545,-2.3079,-2.3083,-2.3075,-2.3131,-2.3374,-2.3523,-2.3537,-2.3356,-2.3059,-2.2512,-2.171,-2.0716,-1.9776,-1.916,-1.916,-1.9835,-2.1132,-2.2375,-2.3429,-2.4381,-2.5079,-2.544,-2.544,-2.5235,-2.4529,-2.3628,-2.255,-2.15,-2.0617,-2.0128,-1.9642,-1.9354,-1.9198,-1.9101,-1.9101,-1.9049,-1.9049,-1.9226,-1.9345,-1.9904,-2.041,-2.1259,-2.202,-2.2875,-2.3705,-2.4672,-2.5368,-2.6091,-2.6464,-2.648,-2.6483,-2.6234,-2.6499,-2.6868,-2.7149,-2.7369,-2.7668,-2.7949,-2.8018,-2.8144,-2.8242,-2.5479,-2.5684,-2.5684,-2.5684,-2.5684,-2.5684,-2.5654,-2.5643,-2.5979,-2.6241,-2.6427,-2.6855,-2.7342,-2.7776,-2.795,-2.8121,-2.8301,-2.8301,-2.8301,-2.8291,-2.8262,-2.8086,-2.7943,-2.7816,-2.7656,-2.7451,-2.7324,-2.7178,-2.6924,-2.6894,-2.6777,-2.6551,-2.6253,-2.6058,-2.5708,-2.5569,-2.5326,-2.5222,-2.5212,-2.5291,-2.5401,-2.5586,-2.5684,-2.5684,-2.5684,-2.5654,-2.5577,-2.5518,-2.5382,-2.5235,-2.5128,-2.5011,-2.4719,-2.4631,-2.4491,-2.4153,-2.404,-2.4021,-2.4164,-2.4374,-2.4468,-2.4234,-2.396,-2.3335,-2.2316,-2.1148,-2.0034,-1.9331,-1.9279,-1.9887,-2.1165,-2.2274,-2.3329,-2.4282,-2.4981,-2.5382,-2.5538,-2.5489,-2.5284,-2.443,-2.3578,-2.2728,-2.1869,-2.1191,-2.0739,-2.0483,-2.0336,-2.0189,-2.0138,-1.999,-2.0021,-2.0298,-2.0628,-2.1315,-2.2034,-2.2927,-2.36,-2.4323,-2.5095,-2.5934,-2.6545,-2.7088,-2.7385,-2.7534,-2.7377,-2.717,-2.7486,-2.7626,-2.7756,-2.7935,-2.8203,-2.8271,-2.8213,-2.8203,-2.8271,-2.5693,-2.5684,-2.5684,-2.5684,-2.5684,-2.5703,-2.5918,-2.6278,-2.6435,-2.6756,-2.706,-2.7554,-2.7776,-2.795,-2.8184,-2.8237,-2.8301,-2.8301,-2.8301,-2.8301,-2.8291,-2.8262,-2.8203,-2.8213,-2.8115,-2.7959,-2.8027,-2.7676,-2.7314,-2.7148,-2.7031,-2.6902,-2.6892,-2.6824,-2.6557,-2.6449,-2.6559,-2.6277,-2.6199,-2.6014,-2.5723,-2.5713,-2.5684,-2.5684,-2.5684,-2.5684,-2.5684,-2.5684,-2.5615,-2.5596,-2.5577,-2.5567,-2.5538,-2.5538,-2.5538,-2.5372,-2.5197,-2.5109,-2.5285,-2.5344,-2.5286,-2.4975,-2.4648,-2.4026,-2.282,-2.1353,-2.0138,-1.9732,-1.9628,-2.0145,-2.1165,-2.2224,-2.3329,-2.4211,-2.4988,-2.54,-2.5654,-2.582,-2.5644,-2.5351,-2.4514,-2.385,-2.3081,-2.2392,-2.1818,-2.1615,-2.1479,-2.1409,-2.1372,-2.1409,-2.1466,-2.1843,-2.2262,-2.2909,-2.3462,-2.4373,-2.4995,-2.5706,-2.6383,-2.7046,-2.7386,-2.7738,-2.7931,-2.8014,-2.7892,-2.7843,-2.7912,-2.8052,-2.8213,-2.8252,-2.8291,-2.8301,-2.8291,-2.8301,-2.8301,-2.5684,-2.5684,-2.5684,-2.5684,-2.5713,-2.5996,-2.6201,-2.6494,-2.6987,-2.7315,-2.7548,-2.7936,-2.813,-2.813,-2.8291,-2.8301,-2.8301,-2.8301,-2.8301,-2.8301,-2.8301,-2.8301,-2.8281,-2.8291,-2.8291,-2.8301,-2.8281,-2.8144,-2.7773,-2.7676,-2.7646,-2.7393,-2.7363,-2.7217,-2.7139,-2.7031,-2.6904,-2.6719,-2.6523,-2.6299,-2.6094,-2.584,-2.5693,-2.5693,-2.5693,-2.5693,-2.5684,-2.5684,-2.5684,-2.5684,-2.5684,-2.5684,-2.5684,-2.5674,-2.5674,-2.5664,-2.5518,-2.5499,-2.5635,-2.5674,-2.5635,-2.5479,-2.5088,-2.4381,-2.312,-2.165,-2.0498,-2.0205,-1.9983,-2.0395,-2.1216,-2.2123,-2.3129,-2.408,-2.506,-2.562,-2.5955,-2.6064,-2.6034,-2.5769,-2.5486,-2.4889,-2.435,-2.3826,-2.3426,-2.3379,-2.3278,-2.3237,-2.3315,-2.3419,-2.3522,-2.3687,-2.4148,-2.4645,-2.5109,-2.5767,-2.6153,-2.6793,-2.7218,-2.7762,-2.7922,-2.8218,-2.8291,-2.8301,-2.813,-2.815,-2.8301,-2.8291,-2.8271,-2.8281,-2.8291,-2.8301,-2.8301,-2.8301,-2.8301,-2.5684,-2.5684,-2.5684,-2.5684,-2.5723,-2.6211,-2.6455,-2.6641,-2.7334,-2.7767,-2.7891,-2.8154,-2.8291,-2.8301,-2.8301,-2.8301,-2.8301,-2.8301,-2.8301,-2.8301,-2.8301,-2.8301,-2.8301,-2.8301,-2.8301,-2.8301,-2.8301,-2.8242,-2.8262,-2.8223,-2.8047,-2.7832,-2.7822,-2.7676,-2.7451,-2.7402,-2.7373,-2.7158,-2.6787,-2.6582,-2.6494,-2.626,-2.6064,-2.5957,-2.584,-2.5791,-2.5693,-2.5684,-2.5684,-2.5684,-2.5684,-2.5684,-2.5684,-2.5684,-2.5684,-2.5684,-2.5625,-2.5635,-2.5674,-2.5684,-2.5684,-2.5586,-2.5284,-2.4529,-2.332,-2.2005,-2.12,-2.0865,-2.0704,-2.0901,-2.1487,-2.23,-2.3322,-2.4373,-2.5261,-2.5865,-2.6392,-2.6493,-2.6543,-2.6394,-2.6235,-2.6137,-2.5648,-2.5255,-2.506,-2.5094,-2.5061,-2.5008,-2.5051,-2.5077,-2.5097,-2.5124,-2.5736,-2.6135,-2.6464,-2.6936,-2.7396,-2.7578,-2.8009,-2.8198,-2.8228,-2.8237,-2.8291,-2.8301,-2.8301,-2.8301,-2.8301,-2.8301,-2.8301,-2.8301,-2.8301,-2.8301,-2.8301,-2.8301,-2.8301,-2.5684,-2.5684,-2.5684,-2.5693,-2.5791,-2.6201,-2.6621,-2.7002,-2.748,-2.7953,-2.8174,-2.8281,-2.8301,-2.8301,-2.8301,-2.8301,-2.8301,-2.8301,-2.8301,-2.8301,-2.8301,-2.8301,-2.8301,-2.8301,-2.8301,-2.8301,-2.8301,-2.8301,-2.8301,-2.8291,-2.8271,-2.8252,-2.8144,-2.8193,-2.8115,-2.7969,-2.7851,-2.7598,-2.7197,-2.6992,-2.6963,-2.6826,-2.666,-2.6396,-2.6309,-2.6172,-2.5732,-2.5801,-2.5849,-2.5849,-2.5801,-2.5781,-2.5801,-2.5713,-2.5693,-2.5684,-2.5684,-2.5684,-2.5684,-2.5684,-2.5684,-2.5528,-2.5235,-2.4686,-2.3777,-2.3179,-2.2476,-2.1784,-2.1673,-2.174,-2.2223,-2.292,-2.3945,-2.4863,-2.5729,-2.6356,-2.682,-2.6922,-2.6973,-2.6973,-2.6853,-2.6686,-2.6783,-2.6311,-2.613,-2.6115,-2.6305,-2.6262,-2.6177,-2.6169,-2.629,-2.6455,-2.71,-2.7491,-2.7592,-2.7898,-2.7917,-2.795,-2.816,-2.8281,-2.8291,-2.8301,-2.8301,-2.8301,-2.8301,-2.8301,-2.8301,-2.8301,-2.8301,-2.8301,-2.8301,-2.8301,-2.8301,-2.8301,-2.8301,-2.5684,-2.5684,-2.5684,-2.584,-2.6172,-2.6592,-2.7012,-2.7441,-2.7861,-2.8125,-2.8301,-2.8301,-2.8301,-2.8301,-2.8301,-2.8301,-2.8301,-2.8301,-2.8301,-2.8301,-2.8301,-2.8301,-2.8301,-2.8301,-2.8301,-2.8301,-2.8301,-2.8301,-2.8301,-2.8301,-2.8301,-2.8291,-2.8301,-2.8291,-2.8291,-2.8301,-2.8184,-2.8008,-2.7656,-2.7422,-2.7363,-2.7119,-2.6934,-2.6807,-2.6768,-2.6709,-2.6553,-2.6483,-2.6473,-2.6395,-2.625,-2.6172,-2.6044,-2.5879,-2.5781,-2.5762,-2.5771,-2.5771,-2.5732,-2.5713,-2.5684,-2.5635,-2.5342,-2.496,-2.4436,-2.3954,-2.3379,-2.2931,-2.2808,-2.2963,-2.304,-2.3824,-2.4753,-2.5526,-2.6229,-2.69,-2.7247,-2.736,-2.7412,-2.7412,-2.7236,-2.7019,-2.7226,-2.7331,-2.7227,-2.7162,-2.7303,-2.7405,-2.7228,-2.7185,-2.7184,-2.7241,-2.7791,-2.7985,-2.8067,-2.8184,-2.8301,-2.8301,-2.8301,-2.8301,-2.8301,-2.8301,-2.8301,-2.8301,-2.8301,-2.8301,-2.8301,-2.8301,-2.8301,-2.8301,-2.8301,-2.8301,-2.8301,-2.8301,-2.8301,-2.5684,-2.5703,-2.582,-2.6103,-2.6435,-2.6836,-2.7266,-2.7738,-2.8096,-2.8291,-2.8301,-2.8301,-2.8301,-2.8301,-2.8301,-2.8301,-2.8301,-2.8301,-2.8301,-2.8301,-2.8301,-2.8301,-2.8301,-2.8301,-2.8301,-2.8301,-2.8301,-2.8301,-2.8301,-2.8301,-2.8301,-2.8301,-2.8301,-2.8301,-2.8301,-2.8301,-2.8301,-2.8203,-2.8047,-2.7904,-2.7845,-2.7607,-2.7314,-2.7266,-2.7207,-2.708,-2.6973,-2.6885,-2.6914,-2.6846,-2.6738,-2.6602,-2.6475,-2.6328,-2.6093,-2.6054,-2.6103,-2.6113,-2.6035,-2.5801,-2.5713,-2.5635,-2.5771,-2.5486,-2.5239,-2.4967,-2.4702,-2.4229,-2.4164,-2.4186,-2.423,-2.495,-2.5657,-2.6395,-2.6917,-2.7526,-2.7736,-2.7851,-2.7851,-2.7851,-2.7685,-2.7588,-2.7646,-2.7832,-2.776,-2.7717,-2.7814,-2.7888,-2.7864,-2.7873,-2.7931,-2.798,-2.8145,-2.8237,-2.8291,-2.8301,-2.8301,-2.8301,-2.8301,-2.8301,-2.8301,-2.8301,-2.8301,-2.8301,-2.8301,-2.8301,-2.8301,-2.8301,-2.8301,-2.8301,-2.8301,-2.8301,-2.8301,-2.8301,-2.8301,-2.5684,-2.5791,-2.6182,-2.6367,-2.6484,-2.6846,-2.7285,-2.7806,-2.8125,-2.8301,-2.8301,-2.8301,-2.8301,-2.8301,-2.8301,-2.8301,-2.832,-2.833,-2.8369,-2.8389,-2.8516,-2.8398,-2.8418,-2.8467,-2.8574,-2.835,-2.8447,-2.8525,-2.8418,-2.8516,-2.8467,-2.8447,-2.8535,-2.8408,-2.832,-2.8301,-2.8301,-2.8291,-2.8242,-2.8213,-2.8184,-2.8105,-2.79,-2.7725,-2.7646,-2.751,-2.7344,-2.7275,-2.7285,-2.7236,-2.7109,-2.7012,-2.6973,-2.6894,-2.6816,-2.6826,-2.6855,-2.6894,-2.6894,-2.6142,-2.5888,-2.5908,-2.6151,-2.6148,-2.6085,-2.6126,-2.6075,-2.5382,-2.5553,-2.5628,-2.5828,-2.6095,-2.665,-2.7041,-2.7612,-2.7888,-2.8082,-2.8135,-2.8105,-2.8086,-2.8193,-2.8242,-2.8232,-2.8242,-2.8223,-2.8223,-2.8262,-2.8301,-2.8301,-2.8301,-2.8301,-2.8301,-2.8301,-2.8301,-2.8301,-2.8301,-2.8301,-2.8301,-2.8301,-2.8301,-2.8301,-2.8301,-2.8301,-2.8301,-2.8301,-2.8301,-2.8301,-2.8301,-2.8359,-2.8418,-2.832,-2.8301,-2.8301,-2.8379,-2.8467,-2.5684,-2.5723,-2.6211,-2.6553,-2.6846,-2.7256,-2.7685,-2.8057,-2.8232,-2.8301,-2.8301,-2.8301,-2.8301,-2.8301,-2.8301,-2.8301,-2.835,-2.8652,-2.8711,-2.873,-2.8935,-2.9121,-2.9111,-2.9043,-2.9092,-2.9141,-2.9141,-2.9082,-2.918,-2.9053,-2.9111,-2.915,-2.8984,-2.8799,-2.8447,-2.8301,-2.8301,-2.8301,-2.8291,-2.8291,-2.8301,-2.8291,-2.8223,-2.8047,-2.8047,-2.7939,-2.7793,-2.7744,-2.7744,-2.7715,-2.7598,-2.7451,-2.7383,-2.7295,-2.708,-2.7051,-2.7041,-2.7012,-2.6992,-2.6639,-2.6561,-2.665,-2.6689,-2.6756,-2.6684,-2.6752,-2.6625,-2.6534,-2.6641,-2.6594,-2.6559,-2.7083,-2.7487,-2.7631,-2.7975,-2.8092,-2.8252,-2.8252,-2.8242,-2.8232,-2.8291,-2.8301,-2.8301,-2.8301,-2.8301,-2.8301,-2.8301,-2.8301,-2.8301,-2.8301,-2.8301,-2.8301,-2.8301,-2.8301,-2.8301,-2.8301,-2.8301,-2.8301,-2.8301,-2.8301,-2.8301,-2.8301,-2.8301,-2.8301,-2.8301,-2.8301,-2.8369,-2.8437,-2.8525,-2.8545,-2.8555,-2.8603,-2.8701,-2.8799,-2.8896,-2.5684,-2.5752,-2.6367,-2.6758,-2.707,-2.748,-2.791,-2.8242,-2.8301,-2.8301,-2.8301,-2.8301,-2.8301,-2.8301,-2.8301,-2.8437,-2.8525,-2.8769,-2.9092,-2.9141,-2.9404,-2.9473,-2.9521,-2.96,-2.9463,-2.959,-2.9646,-2.9597,-2.9548,-2.9607,-2.9521,-2.9502,-2.958,-2.9238,-2.8896,-2.8809,-2.8701,-2.8652,-2.8564,-2.8457,-2.8369,-2.8291,-2.8291,-2.8271,-2.8271,-2.8252,-2.8281,-2.8301,-2.8291,-2.8203,-2.8066,-2.7871,-2.7764,-2.7646,-2.7451,-2.7461,-2.7461,-2.748,-2.749,-2.75,-2.7461,-2.7471,-2.7344,-2.7246,-2.7285,-2.7389,-2.7396,-2.7398,-2.7453,-2.7415,-2.7381,-2.7975,-2.7985,-2.8067,-2.8121,-2.8291,-2.8301,-2.8301,-2.8301,-2.8301,-2.8301,-2.8301,-2.8301,-2.8301,-2.8301,-2.8301,-2.8301,-2.8301,-2.8301,-2.8301,-2.8301,-2.8301,-2.8301,-2.8301,-2.8301,-2.8301,-2.8301,-2.8301,-2.832,-2.8359,-2.8301,-2.8301,-2.8301,-2.831,-2.833,-2.8389,-2.8496,-2.8594,-2.8779,-2.8916,-2.8994,-2.9053,-2.9131,-2.9209,-2.9287,-2.5684,-2.582,-2.666,-2.6992,-2.709,-2.7529,-2.7949,-2.8291,-2.8301,-2.8301,-2.8301,-2.8301,-2.8301,-2.8301,-2.832,-2.8535,-2.8896,-2.8994,-2.9287,-2.9541,-2.9775,-2.9756,-2.9766,-2.9775,-2.9873,-2.9812,-2.9746,-2.9912,-2.9678,-2.9834,-2.9814,-2.9736,-2.9844,-2.9717,-2.9658,-2.959,-2.9365,-2.9082,-2.8926,-2.875,-2.8535,-2.8398,-2.8369,-2.834,-2.8301,-2.8301,-2.8301,-2.8301,-2.8301,-2.8281,-2.8262,-2.8262,-2.8262,-2.8281,-2.8291,-2.8262,-2.8213,-2.8164,-2.8125,-2.8096,-2.8125,-2.8008,-2.7842,-2.7734,-2.7744,-2.79,-2.7916,-2.7974,-2.8009,-2.813,-2.8237,-2.8228,-2.8228,-2.8237,-2.8237,-2.8301,-2.8301,-2.8301,-2.8301,-2.8301,-2.8301,-2.8301,-2.8301,-2.8301,-2.8301,-2.8301,-2.8301,-2.8301,-2.8301,-2.8301,-2.8301,-2.8301,-2.8301,-2.8301,-2.8301,-2.8301,-2.8301,-2.8301,-2.8437,-2.8476,-2.8398,-2.8457,-2.8652,-2.8691,-2.8486,-2.8525,-2.8828,-2.9004,-2.9131,-2.9268,-2.9453,-2.9502,-2.958,-2.958,-2.9658,-2.5684,-2.5781,-2.667,-2.7012,-2.7119,-2.7803,-2.8193,-2.8281,-2.8301,-2.8301,-2.8301,-2.8301,-2.831,-2.831,-2.8603,-2.8789,-2.9121,-2.9492,-2.9814,-3.0059,-3.0254,-3.043,-3.0478,-3.043,-3.0488,-3.0478,-3.0459,-3.04,-3.0488,-3.0469,-3.0449,-3.0527,-3.0381,-3.042,-3.043,-3.0488,-2.999,-2.959,-2.9424,-2.9111,-2.8857,-2.874,-2.8603,-2.8437,-2.8359,-2.834,-2.8301,-2.8301,-2.8301,-2.8301,-2.8301,-2.8301,-2.8301,-2.8301,-2.8291,-2.8291,-2.8281,-2.8281,-2.8301,-2.8301,-2.8301,-2.8301,-2.8144,-2.8154,-2.8154,-2.8193,-2.8301,-2.8301,-2.8301,-2.8301,-2.8301,-2.8301,-2.8301,-2.8301,-2.8301,-2.8301,-2.8301,-2.8301,-2.8301,-2.8301,-2.8301,-2.8301,-2.8301,-2.8301,-2.8301,-2.8301,-2.8301,-2.8301,-2.8301,-2.8301,-2.8301,-2.8301,-2.8301,-2.8301,-2.8301,-2.8301,-2.8301,-2.832,-2.8496,-2.8701,-2.8809,-2.8916,-2.9111,-2.9121,-2.8965,-2.9082,-2.9326,-2.9453,-2.9521,-2.9795,-2.999,-3.0,-3.0019,-3.0029,-3.0098,-2.5684,-2.5801,-2.66,-2.7197,-2.7588,-2.8076,-2.8301,-2.8301,-2.8301,-2.8301,-2.8301,-2.8301,-2.8379,-2.8584,-2.8818,-2.9101,-2.9512,-2.9873,-3.0225,-3.0537,-3.0752,-3.0791,-3.0879,-3.0898,-3.084,-3.0898,-3.0898,-3.0781,-3.0898,-3.0898,-3.0859,-3.084,-3.0898,-3.0898,-3.085,-3.0771,-3.0586,-3.0205,-2.9893,-2.957,-2.9346,-2.916,-2.8916,-2.8643,-2.8545,-2.8476,-2.833,-2.832,-2.8301,-2.8301,-2.8301,-2.8301,-2.8301,-2.8301,-2.8301,-2.8301,-2.8301,-2.8301,-2.8301,-2.8301,-2.8301,-2.8301,-2.8301,-2.8281,-2.8271,-2.8281,-2.8301,-2.8301,-2.8301,-2.8301,-2.8301,-2.8301,-2.8301,-2.8301,-2.8301,-2.8301,-2.8301,-2.8301,-2.8301,-2.8301,-2.8301,-2.8301,-2.8301,-2.8301,-2.8301,-2.8301,-2.8301,-2.8301,-2.8301,-2.8301,-2.8301,-2.8301,-2.8301,-2.8301,-2.831,-2.8379,-2.8457,-2.8535,-2.8691,-2.8896,-2.9131,-2.9297,-2.9414,-2.9482,-2.9492,-2.9629,-2.9775,-2.9834,-2.9932,-3.0205,-3.042,-3.0439,-3.0449,-3.0478,-3.0596,-2.5684,-2.5762,-2.661,-2.749,-2.8232,-2.8291,-2.8301,-2.8301,-2.8301,-2.8301,-2.8301,-2.8301,-2.8506,-2.8789,-2.9014,-2.9473,-2.9873,-3.0244,-3.0518,-3.0869,-3.0859,-3.0898,-3.0898,-3.0898,-3.0898,-3.0898,-3.0898,-3.0898,-3.0898,-3.0898,-3.0898,-3.0898,-3.0898,-3.0898,-3.0898,-3.0898,-3.0781,-3.0664,-3.0361,-3.0059,-2.9736,-2.956,-2.9414,-2.9053,-2.8916,-2.8818,-2.8486,-2.835,-2.832,-2.831,-2.8301,-2.8301,-2.8301,-2.8301,-2.8301,-2.8301,-2.8301,-2.8301,-2.8301,-2.8301,-2.8301,-2.8301,-2.8301,-2.8301,-2.8301,-2.8301,-2.8301,-2.8301,-2.8301,-2.8301,-2.8301,-2.8301,-2.8301,-2.8301,-2.8301,-2.8301,-2.8301,-2.8301,-2.8301,-2.8301,-2.8301,-2.8301,-2.8301,-2.8301,-2.8301,-2.8301,-2.8408,-2.8418,-2.8476,-2.8476,-2.8408,-2.8398,-2.832,-2.835,-2.8486,-2.8564,-2.8682,-2.8799,-2.8994,-2.9248,-2.957,-2.9668,-2.9753,-2.9929,-3.0068,-3.0078,-3.0166,-3.0234,-3.0351,-3.0576,-3.0752,-3.083,-3.0859,-3.081,-3.082,-2.5684,-2.5771,-2.666,-2.75,-2.8242,-2.8301,-2.8301,-2.8301,-2.8301,-2.8301,-2.8301,-2.833,-2.8545,-2.8945,-2.9258,-2.9707,-3.0166,-3.0527,-3.0752,-3.0859,-3.0898,-3.0898,-3.0898,-3.0898,-3.0898,-3.0898,-3.0898,-3.0898,-3.0898,-3.0898,-3.0898,-3.0898,-3.0898,-3.0898,-3.0898,-3.0898,-3.0889,-3.0879,-3.0742,-3.0439,-3.0117,-2.999,-2.9853,-2.9551,-2.9375,-2.918,-2.8916,-2.8769,-2.8564,-2.8379,-2.831,-2.8301,-2.8301,-2.8301,-2.8301,-2.8301,-2.8301,-2.8301,-2.8301,-2.8301,-2.8301,-2.8301,-2.8301,-2.8301,-2.8301,-2.8301,-2.8301,-2.8301,-2.8301,-2.8301,-2.8301,-2.8301,-2.8301,-2.8301,-2.8301,-2.8301,-2.8301,-2.8301,-2.8301,-2.8301,-2.8301,-2.831,-2.831,-2.832,-2.8301,-2.8437,-2.8682,-2.8809,-2.8926,-2.8955,-2.875,-2.8672,-2.8398,-2.8418,-2.8613,-2.8838,-2.9004,-2.9297,-2.956,-2.9795,-3.0019,-3.0156,-3.0273,-3.0498,-3.0654,-3.0557,-3.0537,-3.0674,-3.081,-3.0898,-3.0898,-3.0898,-3.0898,-3.0859,-3.0869,-2.5684,-2.5801,-2.666,-2.751,-2.8203,-2.8301,-2.8301,-2.8301,-2.8301,-2.8301,-2.8301,-2.834,-2.8623,-2.9121,-2.9482,-2.9971,-3.043,-3.0742,-3.084,-3.0879,-3.0898,-3.0898,-3.0898,-3.0898,-3.0898,-3.0898,-3.0898,-3.0898,-3.0898,-3.0898,-3.0898,-3.0898,-3.0898,-3.0898,-3.0898,-3.0898,-3.0898,-3.0898,-3.0898,-3.0732,-3.0478,-3.0439,-3.0273,-2.999,-2.9785,-2.959,-2.9365,-2.9209,-2.9082,-2.8926,-2.8926,-2.873,-2.8682,-2.8613,-2.8486,-2.8359,-2.8301,-2.8301,-2.8301,-2.8301,-2.8301,-2.8301,-2.8301,-2.8301,-2.8301,-2.8301,-2.8301,-2.8301,-2.8301,-2.8301,-2.8301,-2.8301,-2.8301,-2.8301,-2.8301,-2.8301,-2.8301,-2.8301,-2.8301,-2.8301,-2.834,-2.8447,-2.8496,-2.8652,-2.8691,-2.8994,-2.9189,-2.9199,-2.9316,-2.9492,-2.9268,-2.9101,-2.8935,-2.8877,-2.9111,-2.9287,-2.9404,-2.9736,-3.0078,-3.0234,-3.04,-3.0654,-3.0869,-3.085,-3.085,-3.084,-3.0859,-3.0898,-3.0898,-3.0898,-3.0898,-3.0898,-3.0898,-3.0898,-3.0898,-2.5762,-2.5957,-2.6709,-2.751,-2.8232,-2.8301,-2.8301,-2.8301,-2.8301,-2.8301,-2.832,-2.8359,-2.8877,-2.9401,-2.9687,-3.0264,-3.0674,-3.083,-3.0889,-3.0898,-3.0898,-3.0898,-3.0898,-3.0898,-3.0898,-3.0898,-3.0898,-3.0898,-3.0898,-3.0898,-3.0898,-3.0898,-3.0898,-3.0898,-3.0898,-3.0898,-3.0898,-3.0898,-3.0898,-3.0898,-3.0879,-3.0889,-3.0615,-3.04,-3.0254,-3.0059,-2.9851,-2.9704,-2.9648,-2.9521,-2.9424,-2.9258,-2.9111,-2.8994,-2.873,-2.8584,-2.8476,-2.8418,-2.832,-2.8301,-2.8301,-2.8301,-2.8301,-2.8301,-2.8301,-2.8301,-2.8301,-2.8301,-2.8301,-2.8301,-2.8301,-2.8301,-2.8301,-2.8301,-2.8301,-2.8369,-2.8379,-2.8408,-2.8428,-2.8437,-2.8574,-2.8691,-2.8809,-2.8965,-2.917,-2.9482,-2.9648,-2.9704,-2.9707,-2.9922,-2.9941,-2.9873,-2.9795,-2.9766,-2.9707,-2.9707,-2.9805,-3.0117,-3.043,-3.0596,-3.0732,-3.084,-3.0898,-3.0889,-3.0889,-3.0898,-3.0898,-3.0898,-3.0898,-3.0898,-3.0898,-3.0898,-3.0898,-3.0898,-3.0898,-2.6093,-2.6736,-2.6912,-2.7519,-2.8232,-2.8301,-2.8301,-2.8301,-2.8301,-2.8301,-2.8379,-2.8691,-2.9111,-2.959,-2.9961,-3.041,-3.0791,-3.0898,-3.0898,-3.0898,-3.0898,-3.0898,-3.0898,-3.0898,-3.0898,-3.0898,-3.0898,-3.0898,-3.0898,-3.0898,-3.0898,-3.0898,-3.0898,-3.0898,-3.0898,-3.0898,-3.0898,-3.0898,-3.0898,-3.0898,-3.0898,-3.0889,-3.0879,-3.0781,-3.0762,-3.0469,-3.0215,-3.0088,-2.9863,-2.9687,-2.9629,-2.9636,-2.9502,-2.9424,-2.9189,-2.8926,-2.8809,-2.8623,-2.8525,-2.8418,-2.8408,-2.8301,-2.8301,-2.8301,-2.8301,-2.8301,-2.8301,-2.8301,-2.8301,-2.8301,-2.8301,-2.8301,-2.8301,-2.832,-2.833,-2.8545,-2.8662,-2.8799,-2.8896,-2.9033,-2.9219,-2.9297,-2.9365,-2.9463,-2.9492,-2.9785,-3.0019,-3.0039,-3.0117,-3.0342,-3.0537,-3.0508,-3.0478,-3.0361,-3.0166,-3.0107,-3.0215,-3.0527,-3.0723,-3.0771,-3.082,-3.0859,-3.0898,-3.0898,-3.0898,-3.0898,-3.0898,-3.0898,-3.0898,-3.0898,-3.0898,-3.0898,-3.0898,-3.0898,-3.0898]},{"header":{"parameterUnit":"m.s-1","parameterCategory":1,"la1":31.0,"la2":29.5877,"lo1":-88.7671,"lo2":-86.6584,"dy":0.0162,"dx":0.0185,"nx":115,"ny":88,"refTime":"2026-03-05T00:00:00:Z","depth":0,"parameterNumber":3,"parameterNumberName":"V-component_of_WINDS"},"data":[0.0,0.0,0.0,0.0,0.0,0.0,0.0,0.0,0.0,0.0,0.0,0.0,0.0,0.0,0.0,0.0,0.0,0.0,0.0,0.0,0.0,0.0,0.0,0.0,0.0,0.0,0.0,0.0,0.0,0.0,0.0,0.0,0.0,0.0,0.0,0.0,0.0,0.0,0.0,0.0,0.0,0.0,0.0,0.0,0.0,0.0,0.0,0.0,0.0,0.0,0.0,0.0,0.0,0.0,0.0,0.0,0.0,0.0,0.0,0.0,0.0,0.0,0.0,0.0,0.0,0.0,0.0,0.0,0.0,0.0,0.0,0.0,0.0,0.0,0.0,0.0,0.0,0.0,0.0,0.0,0.0,0.0,0.0,0.0,0.0,0.0,0.0,0.0,0.0,0.0,0.0,0.0,0.0,0.0,0.0,0.0,0.0,0.0,0.0,0.0,0.0,0.0,0.0,0.0,0.0,0.0,0.0,0.0,0.0,0.0,0.0,0.0,0.0,0.0,0.0,0.0,0.0,0.0,0.0,0.0,0.0,0.0,0.0,0.0,0.0,0.0,0.0,0.0,0.0,0.0,0.0,0.0,0.0,0.0,0.0,0.0,0.0,0.0,0.0,0.0,0.0,0.0,0.0,0.0,0.0,0.0,0.0,0.0,0.0,0.0,0.0,0.0,0.0,0.0,0.0,0.0,0.0,0.0,0.0,0.0,0.0,0.0,0.0,0.0,0.0,0.0,0.0,0.0,0.0,0.0,0.0,0.0,0.0,0.0,0.0,0.0,0.0,0.0,0.0,0.0,0.0,0.0,0.0,0.0,0.0,0.0,0.0,0.0,0.0,0.0,0.0,0.0,0.0,0.0,0.0,0.0,0.0,0.0,0.0,0.0,0.0,0.0,0.0,0.0,0.0,0.0,0.0,0.0,0.0,0.0,0.0,0.0,0.0,0.0,0.0,0.0,0.0,0.0,0.0,0.0,0.0,0.0,0.0,0.0,0.0,0.0,0.0,0.0,0.0,0.0,0.0,0.0,0.0,0.0,0.0,0.0,0.0,0.0,0.0,0.0,0.0,0.0,0.0,0.0,0.0,0.0,0.0,0.0,0.0,0.0,0.0,0.0,0.0,0.0,0.0,0.0,0.0,0.0,0.0,0.0,0.0,0.0,0.0,0.0,0.0,0.0,0.0,0.0,0.0,0.0,0.0,0.0,0.0,0.0,0.0,0.0,0.0,0.0,0.0,0.0,0.0,0.0,0.0,0.0,0.0,0.0,0.0,0.0,0.0,0.0,0.0,0.0,0.0,0.0,0.0,0.0,0.0,0.0,0.0,0.0,0.0,0.0,0.0,0.0,0.0,0.0,0.0,0.0,0.0,0.0,0.0,0.0,0.0,0.0,0.0,0.0,0.0,0.0,0.0,0.0,0.0,0.0,0.0,0.0,0.0,0.0,0.0,0.0,0.0,0.0,0.0,0.0,0.0,0.0,0.0,0.0,0.0,0.0,0.0,0.0,0.0,0.0,0.0,0.0,0.0,0.0,0.0,0.0,0.0,0.0,0.0,0.0,0.0,0.0,0.0,0.0,0.0,0.0,0.0,0.0,0.0,0.0,0.0,0.0,0.0,0.0,0.0,0.0,0.0,0.0,0.0,0.0,0.0,0.0,0.0,0.0,0.0,0.0,0.0,0.0,0.0,0.0,0.0,0.0,0.0,0.0,0.0,0.0,0.0,0.0,0.0,0.0,0.0,0.0,0.0,0.0,0.0,0.0,0.0,0.0,0.0,0.0,0.0,0.0,0.0,0.0,0.0,0.0,0.0,0.0,0.0,0.0,0.0,0.0,0.0,0.0,0.0,0.0,0.0,0.0,0.0,0.0,0.0,0.0,0.0,0.0,0.0,0.0,0.0,0.0,0.0,0.0,0.0,0.0,0.0,0.0,0.0,0.0,0.0,0.0,0.0,0.0,0.0,0.0,0.0,0.0,0.0,0.0,0.0,0.0,0.0,0.0,0.0,0.0,0.0,0.0,0.0,0.0,0.0,0.0,0.0,0.0,0.0,0.0,0.0,0.0,0.0,0.0,0.0,0.0,0.0,0.0,0.0,0.0,0.0,0.0,0.0,0.0,0.0,0.0,0.0,0.0,0.0,0.0,0.0,0.0,0.0,0.0,0.0,0.0,0.0,0.0,0.0,0.0,0.0,0.0,0.0,0.0,0.0,0.0,0.0,0.0,0.0,0.0,0.0,0.0,0.0,0.0,0.0,0.0,0.0,0.0,0.0,0.0,0.0,0.0,0.0,0.0,0.0,0.0,0.0,0.0,0.0,0.0,0.0,0.0,0.0,0.0,0.0,0.0,0.0,0.0,0.0,0.0,0.0,0.0,0.0,0.0,0.0,0.0,0.0,0.0,0.0,0.0,0.0,0.0,0.0,0.0,0.0,0.0,0.0,0.0,0.0,0.0,0.0,0.0,0.0,0.0,0.0,0.0,0.0,0.0,0.0,0.0,0.0,0.0,0.0,0.0,0.0,0.0,0.0,0.0,0.0,0.0,0.0,0.0,0.0,0.0,0.0,0.0,0.0,0.0,0.0,0.0,0.0,0.0,0.0,0.0,0.0,0.0,0.0,0.0,0.0,0.0,0.0,0.0,0.0,0.0,0.0,0.0,0.0,0.0,0.0,0.0,0.0,0.0,0.0,0.0,0.0,0.0,0.0,0.0,0.0,0.0,0.0,0.0,0.0,0.0,0.0,0.0,0.0,0.0,0.0,0.0,0.0,0.0,0.0,0.0,0.0,0.0,0.0,0.0,0.0,0.0,0.0,0.0,0.0,0.0,0.0,0.0,0.0,0.0,0.0,0.0,0.0,0.0,0.0,0.0,0.0,0.0,0.0,0.0,0.0,0.0,0.0,0.0,0.0,0.0,0.0,0.0,0.0,0.0,0.0,0.0,0.0,0.0,0.0,0.0,0.0,0.0,0.0,0.0,0.0,0.0,0.0,0.0,0.0,0.0,0.0,0.0,0.0,0.0,0.0,0.0,0.0,0.0,0.0,0.0,0.0,0.0,0.0,0.0,0.0,0.0,0.0,0.0,0.0,0.0,0.0,0.0,0.0,0.0,0.0,0.0,0.0,0.0,0.0,0.0,0.0,0.0,0.0,0.0,0.0,0.0,0.0,0.0,0.0,0.0,0.0,0.0,0.0,0.0,0.0,0.0,0.0,0.0,0.0,0.0,0.0,0.0,0.0,0.0,0.0,0.0,0.0,0.0,0.0,0.0,0.0,0.0,0.0,0.0,0.0,0.0,0.0,0.0,0.0,0.0,0.0,0.0,0.0,0.0,0.0,0.0,0.0,0.0,0.0,0.0,0.0,0.0,0.0,0.0,0.0,0.0,0.0,0.0,0.0,0.0,0.0,0.0,0.0,0.0,0.0,0.0,0.0,0.0,0.0,0.0,0.0,0.0,0.0,0.0,0.0,0.0,0.0,0.0,0.0,0.0,0.0,0.0,0.0,0.0,0.0,0.0,0.0,0.0,0.0,0.0,0.0,0.0,0.0,0.0,0.0,0.0,0.0,0.0,0.0,0.0,0.0,0.0,0.0,0.0,0.0,0.0,0.0,0.0,0.0,0.0,0.0,0.0,0.0,0.0,0.0,0.0,0.0,0.0,0.0,0.0,0.0,0.0,0.0,0.0,0.0,0.0,0.0,0.0,0.0,0.0,0.0,0.0,0.0,0.0,0.0,0.0,0.0,0.0,0.0,0.0,0.0,0.0,0.0,0.0,0.0,0.0,0.0,0.0,0.0,0.0,0.0,0.0,0.0,0.0,0.0,0.0,0.0,0.0,0.0,0.0,0.0,0.0,0.0,0.0,0.0,0.0,0.0,0.0,0.0,0.0,0.0,0.0,0.0,0.0,0.0,0.0,0.0,0.0,0.0,0.0,0.0,0.0,0.0,0.0,0.0,0.0,0.0,0.0,0.0,0.0,0.0,0.0,0.0,0.0,0.0,0.0,0.0,0.0,0.0,0.0,0.0,0.0,0.0,0.0,0.0,0.0,0.0,0.0,0.0,0.0,0.0,0.0,0.0,0.0,0.0,0.0,0.0,0.0,0.0,0.0,0.0,0.0,0.0,0.0,0.0,0.0,0.0,0.0,0.0,0.0,0.0,0.0,0.0,0.0,0.0,0.0,0.0,0.0,0.0,0.0,0.0,0.0,0.0,0.0,0.0,0.0,0.0,0.0,0.0,0.0,0.0,0.0,0.0,0.0,0.0,0.0,0.0,0.0,1.646,0.0,0.0,0.0,0.0,0.0,0.0,0.0,0.0,0.0,0.0,0.0,0.0,0.0,0.0,0.0,0.0,0.0,0.0,0.0,0.0,0.0,0.0,0.0,0.0,0.0,0.0,0.0,0.0,0.0,0.0,0.0,0.0,0.0,0.0,0.0,0.0,0.0,0.0,0.0,0.0,0.0,0.0,0.0,0.0,0.0,0.0,0.0,0.0,0.0,0.0,0.0,0.0,0.0,0.0,0.0,0.0,0.0,0.0,0.0,0.0,0.0,0.0,0.0,0.0,0.0,0.0,0.0,0.0,0.0,0.0,0.0,0.0,0.0,0.0,0.0,0.0,0.0,0.0,0.0,0.0,0.0,0.0,0.0,0.0,0.0,0.0,0.0,0.0,0.0,0.0,0.0,0.0,0.0,0.0,0.0,0.0,0.0,0.0,0.0,0.0,0.0,0.0,0.0,0.0,0.0,0.0,0.0,0.0,0.0,0.0,1.8632,1.8619,1.8187,1.7584,1.6829,0.0,0.0,0.0,0.0,0.0,0.0,0.0,0.0,0.0,0.0,0.0,0.0,0.0,0.0,0.0,0.0,0.0,0.0,0.0,0.0,0.0,0.0,0.0,0.0,0.0,0.0,0.0,0.0,0.0,0.0,0.0,0.0,0.0,0.0,0.0,0.0,0.0,0.0,0.0,0.0,0.0,0.0,0.0,0.0,0.0,0.0,0.0,0.0,0.0,0.0,0.0,0.0,0.0,0.0,0.0,0.0,0.0,0.0,0.0,0.0,0.0,0.0,0.0,0.0,0.0,0.0,0.0,0.0,0.0,0.0,0.0,0.0,0.0,0.0,0.0,0.0,0.0,0.0,0.0,0.0,0.0,0.0,0.0,0.0,0.0,0.0,0.0,0.0,0.0,0.0,0.0,0.0,0.0,0.0,0.0,0.0,0.0,0.0,0.0,0.0,0.0,0.0,0.0,0.0,0.0,0.0,0.0,0.0,0.0,0.0,0.0,0.0,1.8474,1.7833,1.7083,0.0,0.0,0.0,0.0,0.0,0.0,0.0,0.0,0.0,0.0,0.0,0.0,0.0,0.0,0.0,0.0,0.0,0.0,0.0,0.0,0.0,0.0,0.0,0.0,0.0,0.0,0.0,0.0,0.0,0.0,0.0,0.0,0.0,0.0,0.0,0.0,0.0,0.0,0.0,0.0,0.0,0.0,0.0,0.0,0.0,0.0,0.0,0.0,0.0,0.0,0.0,0.0,0.0,0.0,0.0,0.0,0.0,0.0,0.0,0.0,0.0,0.0,0.0,0.0,0.0,0.0,0.0,0.0,0.0,0.0,0.0,0.0,0.0,0.0,0.0,0.0,0.0,0.0,0.0,0.0,0.0,0.0,0.0,0.0,0.0,0.0,0.0,0.0,0.0,0.0,0.0,0.0,0.0,0.0,0.0,0.0,0.0,0.0,0.0,0.0,0.0,0.0,0.0,0.0,0.0,0.0,0.0,0.0,0.0,0.0,1.8494,1.8958,1.8095,0.0,1.7461,0.0,0.0,0.0,0.0,0.0,0.0,0.0,0.0,0.0,0.0,0.0,0.0,0.0,0.0,0.0,0.0,0.0,0.0,0.0,0.0,0.0,0.0,0.0,0.0,0.0,0.0,0.0,0.0,0.0,0.0,0.0,0.0,0.0,0.0,0.0,0.0,0.0,0.0,0.0,0.0,0.0,0.0,0.0,0.0,0.0,0.0,0.0,0.0,0.0,0.0,0.0,0.0,0.0,0.0,0.0,0.0,0.0,0.0,0.0,0.0,0.0,0.0,0.0,0.0,0.0,0.0,0.0,0.0,0.0,0.0,0.0,0.0,0.0,0.0,0.0,0.0,0.0,0.0,0.0,0.0,0.0,0.0,0.0,0.0,0.0,0.0,0.0,0.0,0.0,0.0,0.0,0.0,0.0,0.0,0.0,0.0,0.0,0.0,0.0,0.0,0.0,0.0,0.0,0.0,0.0,0.0,0.0,0.0,0.0,0.0,1.7978,1.8506,1.8118,1.7903,0.0,0.0,0.0,0.0,0.0,0.0,0.0,0.0,0.0,0.0,0.0,0.0,0.0,0.0,0.0,0.0,0.0,0.0,0.0,0.0,0.0,0.0,0.0,0.0,0.0,0.0,0.0,0.0,0.0,0.0,0.0,0.0,0.0,0.0,0.0,0.0,0.0,0.0,0.0,0.0,0.0,0.0,0.0,0.0,0.0,0.0,0.0,0.0,0.0,0.0,0.0,0.0,0.0,0.0,0.0,0.0,0.0,0.0,0.0,0.0,0.0,0.0,0.0,0.0,0.0,0.0,0.0,0.0,0.0,0.0,0.0,0.0,0.0,0.0,0.0,0.0,0.0,0.0,0.0,0.0,0.0,0.0,0.0,0.0,0.0,0.0,0.0,0.0,0.0,0.0,0.0,0.0,0.0,0.0,0.0,0.0,0.0,0.0,0.0,0.0,0.0,0.0,0.0,0.0,0.0,0.0,0.0,0.0,0.0,0.0,1.7292,0.0,1.7966,1.8236,1.8347,1.8315,0.0,0.0,0.0,0.0,0.0,0.0,0.0,0.0,0.0,0.0,0.0,0.0,0.0,0.0,0.0,0.0,0.0,0.0,0.0,0.0,0.0,0.0,0.0,0.0,0.0,0.0,0.0,0.0,0.0,0.0,0.0,0.0,0.0,0.0,0.0,0.0,0.0,0.0,0.0,0.0,0.0,0.0,0.0,0.0,0.0,0.0,0.0,0.0,0.0,0.0,0.0,0.0,0.0,0.0,0.0,0.0,0.0,0.0,0.0,0.0,0.0,0.0,0.0,0.0,0.0,0.0,0.0,0.0,0.0,0.0,0.0,0.0,0.0,0.0,0.0,0.0,0.0,0.0,0.0,0.0,0.0,0.0,0.0,0.0,0.0,0.0,0.0,0.0,0.0,0.0,0.0,0.0,0.0,0.0,0.0,0.0,0.0,0.0,0.0,0.0,0.0,0.0,0.0,0.0,0.0,0.0,0.0,0.0,0.0,1.6948,1.7088,1.7468,1.8305,1.8707,0.0,0.0,0.0,0.0,0.0,0.0,0.0,0.0,0.0,0.0,0.0,0.0,0.0,0.0,0.0,0.0,0.0,0.0,0.0,0.0,0.0,0.0,0.0,0.0,0.0,0.0,0.0,0.0,0.0,0.0,0.0,0.0,0.0,0.0,0.0,0.0,0.0,0.0,0.0,0.0,0.0,0.0,0.0,0.0,0.0,0.0,0.0,0.0,0.0,0.0,0.0,0.0,0.0,0.0,0.0,0.0,0.0,0.0,0.0,0.0,0.0,0.0,0.0,0.0,0.0,0.0,0.0,0.0,0.0,0.0,0.0,0.0,0.0,0.0,0.0,0.0,0.0,0.0,0.0,0.0,0.0,0.0,0.0,0.0,0.0,0.0,0.0,0.0,0.0,0.0,0.0,0.0,0.0,0.0,0.0,0.0,0.0,0.0,0.0,0.0,0.0,0.0,0.0,0.0,0.0,0.0,0.0,0.0,0.0,1.7225,1.7233,1.7406,1.7788,1.818,1.857,0.0,0.0,0.0,0.0,0.0,0.0,0.0,0.0,0.0,0.0,0.0,0.0,0.0,0.0,0.0,0.0,0.0,0.0,0.0,0.0,0.0,0.0,0.0,0.0,0.0,0.0,0.0,0.0,0.0,0.0,0.0,0.0,0.0,0.0,0.0,0.0,0.0,0.0,0.0,0.0,0.0,0.0,0.0,0.0,0.0,0.0,0.0,0.0,0.0,0.0,0.0,0.0,0.0,0.0,0.0,0.0,0.0,0.0,0.0,0.0,0.0,0.0,0.0,0.0,0.0,0.0,0.0,0.0,0.0,0.0,0.0,0.0,0.0,0.0,0.0,0.0,0.0,0.0,0.0,0.0,0.0,0.0,0.0,0.0,0.0,0.0,0.0,0.0,0.0,0.0,0.0,0.0,0.0,0.0,0.0,0.0,0.0,0.0,0.0,0.0,0.0,0.0,0.0,0.0,0.0,0.0,0.0,0.0,0.0,1.7659,0.0,1.7942,0.0,1.8436,1.8702,0.0,0.0,0.0,0.0,0.0,0.0,0.0,0.0,0.0,0.0,0.0,0.0,0.0,0.0,0.0,0.0,0.0,0.0,0.0,0.0,0.0,0.0,0.0,0.0,0.0,0.0,0.0,0.0,0.0,0.0,0.0,0.0,0.0,0.0,0.0,0.0,0.0,0.0,0.0,0.0,0.0,0.0,0.0,0.0,0.0,0.0,0.0,0.0,0.0,0.0,0.0,0.0,0.0,0.0,0.0,0.0,0.0,0.0,0.0,0.0,0.0,0.0,0.0,0.0,0.0,0.0,0.0,0.0,0.0,0.0,0.0,0.0,0.0,0.0,0.0,0.0,0.0,0.0,0.0,0.0,0.0,0.0,0.0,0.0,0.0,0.0,0.0,0.0,0.0,0.0,0.0,0.0,0.0,0.0,0.0,0.0,0.0,0.0,0.0,0.0,0.0,0.0,0.0,0.0,0.0,0.0,0.0,0.0,1.8208,1.8208,1.8397,1.8592,1.8822,1.9072,1.9258,0.0,0.0,0.0,0.0,0.0,0.0,0.0,0.0,0.0,0.0,0.0,0.0,0.0,0.0,0.0,0.0,0.0,0.0,0.0,0.0,0.0,0.0,0.0,0.0,0.0,0.0,0.0,0.0,0.0,0.0,0.0,0.0,0.0,0.0,0.0,0.0,0.0,0.0,0.0,0.0,0.0,0.0,0.0,0.0,0.0,0.0,0.0,0.0,0.0,0.0,0.0,0.0,0.0,0.0,0.0,0.0,0.0,0.0,0.0,0.0,0.0,0.0,0.0,0.0,0.0,0.0,0.0,0.0,0.0,0.0,0.0,0.0,0.0,0.0,0.0,0.0,0.0,0.0,0.0,0.0,0.0,0.0,0.0,0.0,0.0,0.0,0.0,0.0,0.0,0.0,0.0,0.0,0.0,0.0,0.0,0.0,0.0,0.0,0.0,0.0,0.0,0.0,0.0,0.0,0.0,0.0,0.0,0.0,0.0,1.8903,1.8945,1.9151,1.9464,1.9573,1.9678,0.0,0.0,0.0,0.0,0.0,0.0,0.0,0.0,0.0,0.0,0.0,0.0,0.0,0.0,0.0,0.0,0.0,0.0,0.0,0.0,0.0,0.0,0.0,0.0,0.0,0.0,0.0,0.0,0.0,0.0,0.0,0.0,0.0,0.0,0.0,0.0,0.0,0.0,0.0,0.0,0.0,0.0,0.0,0.0,0.0,0.0,0.0,0.0,0.0,0.0,0.0,0.0,0.0,0.0,0.0,0.0,0.0,0.0,0.0,0.0,0.0,0.0,0.0,0.0,0.0,0.0,0.0,0.0,0.0,0.0,0.0,0.0,0.0,0.0,0.0,0.0,0.0,0.0,0.0,0.0,0.0,0.0,0.0,0.0,0.0,0.0,0.0,0.0,0.0,0.0,0.0,0.0,0.0,0.0,0.0,0.0,0.0,0.0,0.0,0.0,0.0,0.0,0.0,0.0,0.0,0.0,0.0,0.0,0.0,2.0101,1.9786,1.9773,2.0102,2.0139,2.0187,2.0185,0.0,0.0,0.0,0.0,0.0,0.0,0.0,0.0,0.0,0.0,0.0,0.0,0.0,0.0,0.0,0.0,0.0,0.0,0.0,0.0,0.0,0.0,0.0,0.0,0.0,0.0,0.0,0.0,0.0,0.0,0.0,0.0,0.0,0.0,0.0,0.0,0.0,0.0,0.0,0.0,0.0,0.0,0.0,0.0,0.0,0.0,0.0,0.0,0.0,0.0,0.0,0.0,0.0,0.0,0.0,0.0,0.0,0.0,0.0,0.0,0.0,0.0,0.0,0.0,0.0,0.0,0.0,0.0,0.0,0.0,0.0,0.0,0.0,0.0,0.0,0.0,0.0,0.0,0.0,0.0,0.0,0.0,0.0,0.0,0.0,0.0,0.0,0.0,0.0,0.0,0.0,0.0,0.0,0.0,0.0,0.0,0.0,0.0,0.0,0.0,0.0,0.0,0.0,0.0,0.0,0.0,0.0,0.0,2.1734,2.092,2.0622,2.0788,2.0857,2.0808,0.0,0.0,0.0,0.0,0.0,0.0,0.0,0.0,0.0,0.0,0.0,0.0,0.0,0.0,0.0,0.0,0.0,0.0,0.0,0.0,0.0,0.0,0.0,0.0,0.0,0.0,0.0,0.0,0.0,0.0,0.0,0.0,0.0,0.0,0.0,0.0,0.0,0.0,0.0,0.0,0.0,0.0,0.0,0.0,0.0,0.0,0.0,0.0,0.0,0.0,0.0,0.0,0.0,0.0,0.0,0.0,0.0,0.0,0.0,0.0,0.0,0.0,0.0,0.0,0.0,0.0,0.0,0.0,0.0,0.0,0.0,0.0,0.0,0.0,0.0,0.0,0.0,0.0,0.0,0.0,0.0,0.0,0.0,0.0,0.0,0.0,0.0,0.0,0.0,0.0,0.0,0.0,0.0,0.0,0.0,0.0,0.0,0.0,0.0,0.0,0.0,0.0,0.0,0.0,0.0,0.0,0.0,0.0,0.0,2.2144,2.2669,2.2898,2.2798,2.2312,2.2213,0.0,0.0,0.0,0.0,0.0,0.0,0.0,0.0,0.0,0.0,0.0,0.0,0.0,0.0,0.0,0.0,0.0,0.0,0.0,0.0,0.0,0.0,0.0,0.0,0.0,0.0,0.0,0.0,0.0,0.0,0.0,0.0,0.0,0.0,0.0,0.0,0.0,0.0,0.0,0.0,0.0,0.0,0.0,0.0,0.0,0.0,0.0,0.0,0.0,0.0,0.0,0.0,0.0,0.0,0.0,0.0,0.0,0.0,0.0,0.0,0.0,0.0,0.0,0.0,0.0,0.0,0.0,0.0,0.0,0.0,0.0,0.0,0.0,0.0,0.0,0.0,0.0,0.0,0.0,0.0,0.0,0.0,0.0,0.0,0.0,0.0,0.0,0.0,0.0,0.0,0.0,0.0,0.0,0.0,0.0,0.0,0.0,0.0,0.0,0.0,0.0,0.0,0.0,0.0,0.0,0.0,0.0,0.0,2.2652,2.3302,2.3737,2.4265,2.4845,2.3786,2.3326,0.0,0.0,0.0,0.0,0.0,0.0,0.0,0.0,0.0,0.0,0.0,0.0,0.0,0.0,0.0,0.0,0.0,0.0,0.0,0.0,0.0,0.0,0.0,0.0,0.0,0.0,0.0,0.0,0.0,0.0,0.0,0.0,0.0,0.0,0.0,0.0,0.0,0.0,0.0,0.0,0.0,0.0,0.0,0.0,0.0,0.0,0.0,0.0,0.0,0.0,0.0,0.0,0.0,0.0,0.0,0.0,0.0,0.0,0.0,0.0,0.0,0.0,0.0,0.0,0.0,0.0,0.0,0.0,0.0,0.0,0.0,0.0,0.0,0.0,0.0,0.0,0.0,0.0,0.0,0.0,0.0,0.0,0.0,0.0,0.0,0.0,0.0,0.0,0.0,0.0,0.0,0.0,0.0,0.0,0.0,0.0,0.0,0.0,0.0,0.0,0.0,0.0,0.0,0.0,0.0,0.0,0.0,0.0,2.3814,2.4699,2.4514,2.5079,2.6488,2.5145,2.428,0.0,0.0,0.0,0.0,0.0,0.0,0.0,0.0,0.0,0.0,0.0,0.0,0.0,0.0,0.0,0.0,0.0,0.0,0.0,0.0,0.0,0.0,0.0,0.0,0.0,0.0,0.0,0.0,0.0,0.0,0.0,0.0,0.0,0.0,0.0,0.0,0.0,0.0,0.0,0.0,0.0,0.0,0.0,0.0,0.0,0.0,0.0,0.0,0.0,0.0,0.0,0.0,0.0,0.0,0.0,0.0,0.0,0.0,0.0,0.0,0.0,0.0,0.0,0.0,0.0,0.0,0.0,0.0,0.0,0.0,0.0,0.0,0.0,0.0,0.0,0.0,0.0,0.0,0.0,0.0,0.0,0.0,0.0,0.0,0.0,0.0,0.0,0.0,0.0,0.0,0.0,0.0,0.0,0.0,0.0,0.0,0.0,0.0,0.0,0.0,0.0,0.0,0.0,0.0,0.0,0.0,0.0,0.0,2.4585,2.5026,2.5697,2.6269,2.6657,2.5731,2.543,0.0,0.0,0.0,0.0,0.0,0.0,0.0,0.0,0.0,0.0,0.0,0.0,0.0,0.0,0.0,0.0,0.0,0.0,0.0,0.0,0.0,0.0,0.0,0.0,0.0,0.0,0.0,0.0,0.0,0.0,0.0,0.0,0.0,0.0,0.0,0.0,0.0,0.0,0.0,0.0,0.0,0.0,0.0,0.0,0.0,0.0,0.0,0.0,2.8043,0.0,0.0,0.0,0.0,0.0,0.0,0.0,0.0,0.0,0.0,0.0,0.0,0.0,0.0,0.0,0.0,0.0,0.0,0.0,0.0,0.0,0.0,0.0,0.0,0.0,0.0,0.0,0.0,0.0,0.0,0.0,0.0,0.0,0.0,0.0,0.0,0.0,0.0,0.0,0.0,0.0,0.0,0.0,0.0,0.0,0.0,0.0,0.0,0.0,0.0,0.0,0.0,0.0,0.0,0.0,0.0,0.0,0.0,0.0,2.5433,2.5677,2.6268,2.6623,2.6691,2.6269,2.6202,0.0,0.0,0.0,0.0,0.0,0.0,0.0,0.0,0.0,0.0,0.0,0.0,0.0,0.0,0.0,0.0,0.0,0.0,0.0,0.0,0.0,0.0,0.0,0.0,0.0,0.0,0.0,0.0,0.0,0.0,0.0,0.0,0.0,0.0,0.0,0.0,0.0,0.0,0.0,0.0,0.0,0.0,0.0,0.0,0.0,0.0,0.0,0.0,0.0,0.0,0.0,0.0,0.0,0.0,0.0,0.0,0.0,0.0,0.0,0.0,0.0,0.0,0.0,0.0,0.0,0.0,0.0,0.0,0.0,0.0,0.0,0.0,0.0,0.0,0.0,0.0,0.0,0.0,0.0,0.0,0.0,0.0,0.0,0.0,0.0,0.0,0.0,0.0,0.0,0.0,0.0,0.0,0.0,0.0,0.0,0.0,0.0,0.0,0.0,0.0,0.0,0.0,0.0,0.0,0.0,0.0,0.0,2.5211,2.6152,2.633,2.6521,2.664,2.6708,2.6708,2.6674,2.659,0.0,0.0,0.0,0.0,0.0,0.0,0.0,0.0,0.0,0.0,0.0,0.0,0.0,0.0,0.0,0.0,0.0,0.0,0.0,0.0,0.0,0.0,0.0,0.0,0.0,0.0,0.0,0.0,0.0,0.0,0.0,0.0,0.0,0.0,0.0,0.0,0.0,0.0,2.3155,2.5319,0.0,0.0,0.0,0.0,0.0,0.0,0.0,0.0,2.86,0.0,0.0,0.0,0.0,0.0,0.0,0.0,0.0,0.0,0.0,0.0,0.0,0.0,0.0,0.0,0.0,0.0,0.0,0.0,0.0,0.0,0.0,0.0,0.0,0.0,0.0,0.0,0.0,0.0,0.0,0.0,0.0,0.0,0.0,0.0,0.0,0.0,0.0,0.0,0.0,0.0,0.0,0.0,0.0,0.0,0.0,0.0,0.0,0.0,0.0,0.0,0.0,0.0,0.0,0.0,0.0,2.4724,2.574,2.633,2.6555,2.6624,2.6674,2.6708,2.6708,2.6708,2.6624,0.0,0.0,0.0,0.0,0.0,0.0,0.0,0.0,0.0,0.0,0.0,0.0,0.0,0.0,0.0,0.0,0.0,0.0,0.0,0.0,0.0,0.0,0.0,0.0,0.0,0.0,0.0,0.0,0.0,0.0,0.0,0.0,0.0,0.0,0.0,0.0,0.0,0.0,0.0,2.6914,2.7934,0.0,0.0,0.0,0.0,0.0,0.0,0.0,0.0,2.851,0.0,0.0,0.0,0.0,0.0,0.0,0.0,0.0,0.0,0.0,0.0,0.0,0.0,0.0,0.0,0.0,0.0,0.0,0.0,0.0,0.0,0.0,0.0,0.0,0.0,0.0,0.0,0.0,0.0,0.0,0.0,0.0,0.0,0.0,0.0,0.0,0.0,0.0,0.0,0.0,0.0,0.0,0.0,0.0,0.0,0.0,0.0,0.0,0.0,0.0,0.0,0.0,0.0,0.0,0.0,2.5095,2.5981,2.652,2.6589,2.6657,2.6708,2.6708,2.6708,2.6708,0.0,0.0,0.0,0.0,0.0,0.0,0.0,0.0,0.0,0.0,0.0,0.0,0.0,0.0,0.0,0.0,0.0,0.0,0.0,0.0,0.0,0.0,0.0,0.0,0.0,0.0,0.0,0.0,0.0,0.0,0.0,0.0,0.0,0.0,0.0,0.0,0.0,0.0,0.0,0.0,2.7559,2.8099,2.8877,0.0,0.0,0.0,0.0,0.0,0.0,2.9697,2.9223,0.0,0.0,0.0,0.0,0.0,0.0,0.0,0.0,0.0,0.0,0.0,0.0,0.0,0.0,0.0,0.0,0.0,0.0,0.0,0.0,0.0,0.0,0.0,0.0,0.0,0.0,0.0,0.0,0.0,0.0,0.0,0.0,0.0,0.0,0.0,0.0,0.0,0.0,0.0,0.0,0.0,0.0,0.0,0.0,0.0,0.0,0.0,0.0,0.0,0.0,0.0,0.0,0.0,0.0,0.0,2.548,2.6235,2.6606,2.6623,2.6674,2.6708,2.6708,2.6708,2.6708,0.0,0.0,0.0,0.0,0.0,0.0,0.0,0.0,0.0,0.0,0.0,0.0,0.0,0.0,0.0,0.0,0.0,0.0,0.0,0.0,0.0,0.0,0.0,0.0,0.0,0.0,0.0,0.0,0.0,0.0,0.0,0.0,0.0,0.0,0.0,0.0,0.0,0.0,0.0,0.0,0.0,2.8576,2.9372,3.0044,0.0,0.0,0.0,0.0,3.1403,3.0684,0.0,0.0,0.0,0.0,0.0,0.0,0.0,0.0,0.0,0.0,0.0,0.0,0.0,0.0,0.0,0.0,0.0,0.0,0.0,0.0,0.0,0.0,0.0,0.0,0.0,0.0,0.0,0.0,0.0,0.0,0.0,0.0,0.0,0.0,0.0,0.0,0.0,0.0,0.0,0.0,0.0,0.0,0.0,0.0,0.0,0.0,0.0,0.0,0.0,0.0,0.0,0.0,0.0,0.0,0.0,0.0,2.637,2.6539,2.664,2.6691,2.6708,2.6708,2.6708,2.6708,2.6708,0.0,0.0,0.0,0.0,0.0,0.0,0.0,0.0,0.0,0.0,0.0,0.0,0.0,0.0,0.0,0.0,0.0,0.0,0.0,0.0,0.0,0.0,0.0,0.0,0.0,0.0,0.0,0.0,0.0,0.0,0.0,0.0,0.0,0.0,0.0,0.0,0.0,0.0,0.0,0.0,0.0,3.021,3.1011,3.1201,3.1256,0.0,0.0,3.1403,3.1403,3.1141,0.0,0.0,0.0,0.0,0.0,0.0,0.0,0.0,0.0,0.0,0.0,0.0,0.0,0.0,0.0,0.0,0.0,0.0,0.0,0.0,0.0,0.0,0.0,0.0,0.0,0.0,0.0,0.0,0.0,0.0,0.0,0.0,0.0,0.0,0.0,0.0,0.0,0.0,0.0,0.0,0.0,0.0,0.0,0.0,0.0,0.0,0.0,0.0,0.0,0.0,0.0,0.0,0.0,0.0,0.0,2.5124,2.659,2.664,2.6674,2.6708,2.6708,2.6708,2.6708,2.6708,2.6708,0.0,0.0,0.0,0.0,0.0,0.0,0.0,0.0,0.0,0.0,0.0,0.0,0.0,0.0,0.0,0.0,0.0,0.0,0.0,0.0,0.0,0.0,0.0,0.0,0.0,0.0,0.0,0.0,0.0,0.0,0.0,0.0,0.0,0.0,0.0,0.0,0.0,0.0,0.0,0.0,0.0,0.0,3.2054,3.2625,0.0,0.0,0.0,3.4246,3.4187,0.0,0.0,0.0,0.0,0.0,0.0,0.0,0.0,0.0,0.0,0.0,0.0,0.0,0.0,0.0,0.0,0.0,0.0,0.0,0.0,0.0,0.0,0.0,0.0,0.0,0.0,0.0,0.0,0.0,0.0,0.0,0.0,0.0,0.0,0.0,0.0,0.0,0.0,0.0,0.0,0.0,0.0,0.0,0.0,0.0,0.0,0.0,0.0,0.0,0.0,0.0,0.0,0.0,0.0,0.0,0.0,0.0,2.6657,2.6708,2.6708,2.6708,2.6708,2.6708,2.6708,2.6708,0.0,0.0,0.0,0.0,0.0,0.0,0.0,0.0,0.0,0.0,0.0,0.0,0.0,0.0,0.0,0.0,0.0,0.0,0.0,0.0,0.0,0.0,0.0,0.0,0.0,0.0,0.0,1.8791,0.0,0.0,0.0,0.0,0.0,0.0,0.0,0.0,0.0,0.0,0.0,0.0,0.0,0.0,3.1843,3.3352,3.4253,3.4962,0.0,0.0,3.644,3.6384,3.5073,3.3767,0.0,0.0,0.0,0.0,0.0,0.0,0.0,0.0,0.0,0.0,0.0,0.0,0.0,0.0,0.0,0.0,0.0,0.0,0.0,0.0,0.0,0.0,0.0,0.0,0.0,0.0,0.0,0.0,0.0,0.0,0.0,0.0,0.0,0.0,0.0,0.0,0.0,0.0,0.0,0.0,0.0,0.0,0.0,0.0,0.0,0.0,0.0,0.0,0.0,0.0,0.0,0.0,0.0,0.0,0.0,2.664,2.6708,2.6708,2.6708,2.6708,2.6708,2.6708,2.6708,2.6387,0.0,0.0,0.0,0.0,0.0,0.0,0.0,0.0,0.0,0.0,0.0,0.0,0.0,0.0,0.0,0.0,0.0,0.0,0.0,0.0,0.0,0.0,0.0,0.0,0.0,0.0,0.0,0.0,0.0,0.0,0.0,0.0,0.0,0.0,0.0,0.0,0.0,0.0,0.0,0.0,0.0,3.4333,3.52,3.6062,3.6627,0.0,0.0,3.6581,3.6586,3.5703,3.4738,3.3944,0.0,0.0,0.0,0.0,0.0,0.0,0.0,0.0,0.0,0.0,0.0,0.0,0.0,0.0,0.0,0.0,0.0,0.0,0.0,0.0,0.0,0.0,0.0,0.0,0.0,0.0,0.0,0.0,0.0,0.0,0.0,0.0,0.0,0.0,0.0,0.0,0.0,0.0,0.0,0.0,0.0,0.0,0.0,0.0,0.0,0.0,0.0,0.0,0.0,0.0,0.0,0.0,0.0,2.5235,2.6657,2.6708,2.6708,2.6708,2.6708,2.6708,2.6708,2.6708,2.6386,0.0,0.0,0.0,0.0,0.0,0.0,0.0,0.0,0.0,0.0,0.0,0.0,0.0,0.0,0.0,0.0,0.0,0.0,0.0,0.0,0.0,0.0,0.0,0.0,0.0,0.0,0.0,0.0,2.3502,2.4122,2.4637,0.0,0.0,0.0,0.0,0.0,0.0,0.0,0.0,0.0,0.0,3.491,3.6304,3.7239,0.0,0.0,3.8279,3.8177,3.8095,3.7257,3.6186,3.4912,3.3903,0.0,0.0,0.0,0.0,0.0,0.0,0.0,0.0,0.0,0.0,0.0,0.0,0.0,0.0,0.0,0.0,0.0,0.0,0.0,0.0,0.0,0.0,0.0,0.0,0.0,0.0,0.0,0.0,0.0,0.0,0.0,0.0,0.0,0.0,0.0,0.0,0.0,0.0,0.0,0.0,0.0,0.0,0.0,0.0,0.0,0.0,0.0,0.0,0.0,0.0,0.0,0.0,2.5541,2.7012,2.7046,2.7131,2.7368,2.7385,2.7266,2.7046,2.7029,2.6521,0.0,0.0,0.0,0.0,0.0,0.0,0.0,0.0,0.0,0.0,0.0,0.0,0.0,0.0,0.0,0.0,0.0,0.0,0.0,0.0,0.0,0.0,0.0,0.0,0.0,0.0,0.0,0.0,2.4931,2.5441,2.5649,0.0,0.0,0.0,0.0,0.0,0.0,0.0,0.0,0.0,0.0,3.5875,3.7365,3.8331,3.9029,3.9463,3.9382,3.921,3.9092,3.8256,3.7237,3.6099,0.0,0.0,0.0,0.0,0.0,0.0,0.0,0.0,0.0,0.0,0.0,0.0,0.0,0.0,0.0,0.0,0.0,0.0,0.0,0.0,0.0,0.0,0.0,0.0,0.0,0.0,0.0,2.4016,0.0,0.0,2.4558,0.0,0.0,0.0,0.0,0.0,0.0,0.0,0.0,0.0,0.0,0.0,0.0,0.0,0.0,0.0,0.0,0.0,0.0,0.0,0.0,0.0,0.0,2.6285,2.7756,2.7756,2.8146,2.8891,2.8942,2.8553,2.7824,2.779,2.6793,2.4737,0.0,0.0,0.0,0.0,0.0,0.0,0.0,0.0,0.0,0.0,0.0,0.0,0.0,0.0,0.0,0.0,0.0,0.0,0.0,0.0,0.0,0.0,0.0,0.0,0.0,0.0,2.6008,2.6293,2.6472,0.0,0.0,0.0,0.0,0.0,0.0,0.0,0.0,0.0,0.0,3.5581,3.7578,3.8515,3.9407,3.9924,3.9841,3.9601,3.9375,3.9229,3.8387,3.7681,0.0,0.0,0.0,0.0,0.0,0.0,0.0,0.0,0.0,0.0,0.0,0.0,0.0,0.0,0.0,0.0,0.0,0.0,0.0,0.0,0.0,0.0,0.0,0.0,0.0,0.0,0.0,2.6778,2.707,0.0,0.0,0.0,0.0,0.0,0.0,0.0,0.0,0.0,0.0,0.0,2.8534,2.8438,0.0,0.0,0.0,0.0,0.0,0.0,0.0,0.0,0.0,0.0,0.0,0.0,2.6435,2.793,2.7963,2.8355,2.9229,2.9244,2.9107,2.887,2.827,2.7198,2.5646,0.0,0.0,0.0,0.0,0.0,0.0,0.0,0.0,0.0,0.0,0.0,0.0,0.0,0.0,0.0,0.0,0.0,0.0,0.0,0.0,0.0,0.0,0.0,0.0,0.0,2.6923,0.0,0.0,0.0,0.0,0.0,0.0,0.0,0.0,0.0,0.0,0.0,3.3179,3.4231,3.6642,3.8441,3.8851,4.0091,4.0927,0.0,0.0,0.0,0.0,0.0,0.0,0.0,0.0,0.0,0.0,0.0,0.0,0.0,0.0,3.5517,3.4837,3.4826,3.4757,3.4277,0.0,0.0,0.0,0.0,0.0,0.0,0.0,0.0,0.0,0.0,0.0,0.0,0.0,0.0,2.8895,0.0,2.8818,0.0,0.0,0.0,0.0,0.0,0.0,0.0,0.0,2.9519,2.9709,3.0245,2.9913,2.9592,0.0,2.9181,2.8427,0.0,0.0,0.0,0.0,0.0,0.0,0.0,0.0,2.7263,2.8545,2.8767,2.9315,3.0213,3.0228,3.0091,2.9886,2.8527,2.741,2.6645,2.5376,2.4751,0.0,0.0,0.0,0.0,0.0,0.0,0.0,0.0,0.0,0.0,0.0,0.0,0.0,0.0,0.0,0.0,0.0,0.0,0.0,0.0,0.0,0.0,0.0,2.793,0.0,0.0,0.0,0.0,0.0,0.0,0.0,0.0,0.0,3.165,3.2922,3.4458,3.6074,3.7766,3.9195,4.0212,0.0,0.0,0.0,0.0,0.0,0.0,0.0,4.0911,3.9789,3.9987,4.0249,4.001,4.0127,4.037,4.056,0.0,0.0,3.782,3.7491,3.7408,3.6929,3.7601,3.8352,3.8627,3.9355,4.0029,0.0,0.0,0.0,0.0,0.0,0.0,0.0,0.0,2.9741,3.0039,0.0,3.0143,0.0,0.0,0.0,0.0,0.0,2.9278,0.0,0.0,3.0586,3.1012,3.2375,3.1309,3.0802,3.0958,3.0584,3.0036,2.9298,2.7496,0.0,0.0,0.0,0.0,0.0,0.0,2.8715,2.9523,3.016,3.0954,3.1843,3.1878,3.1548,3.0786,2.8687,2.7602,2.7617,2.6376,2.5762,2.592,2.5189,0.0,0.0,0.0,0.0,0.0,0.0,0.0,0.0,0.0,0.0,0.0,0.0,0.0,0.0,0.0,0.0,0.0,0.0,0.0,0.0,2.8317,0.0,0.0,0.0,0.0,0.0,0.0,0.0,0.0,0.0,0.0,3.3718,3.4508,3.5998,3.8566,0.0,0.0,0.0,0.0,4.1757,4.2438,4.2271,4.1981,4.1671,4.1492,4.1341,4.1146,0.0,0.0,4.2268,4.3039,4.3754,4.4563,4.4544,4.3464,3.9453,3.8919,3.8894,3.8836,3.9559,4.0304,4.104,4.1847,4.2616,3.4285,0.0,0.0,0.0,0.0,3.1832,3.2226,3.303,3.3009,3.3208,3.3493,3.2401,0.0,0.0,0.0,0.0,0.0,0.0,3.1575,3.291,3.2584,3.2822,3.3459,3.3283,3.312,3.3015,3.2481,3.1945,3.1339,3.0232,2.8844,2.7208,0.0,0.0,0.0,0.0,2.9123,3.0421,3.0647,3.1255,3.2369,3.2353,3.1933,3.1093,3.0463,2.962,2.8624,2.7738,2.7121,2.6815,2.5548,0.0,0.0,0.0,0.0,0.0,0.0,0.0,0.0,0.0,0.0,0.0,0.0,0.0,0.0,0.0,0.0,0.0,0.0,0.0,2.8329,2.8753,2.8929,0.0,0.0,0.0,0.0,0.0,0.0,0.0,0.0,0.0,3.7927,3.7956,3.828,0.0,0.0,4.1972,4.2718,4.3032,4.32,4.3192,4.3439,0.0,4.2522,4.2694,4.2715,4.2046,4.2893,4.3938,4.4727,4.5057,4.5278,4.5535,4.5571,4.5113,4.4087,4.3299,4.2766,4.2324,4.2765,4.3369,4.3663,4.4305,4.4911,3.8038,3.5899,3.4903,3.4712,3.5102,3.4958,3.5362,3.6107,3.5597,3.5599,3.5919,3.4557,3.3908,3.3773,3.2668,0.0,0.0,0.0,3.3054,3.4112,3.399,3.4248,3.4796,3.4824,3.4846,3.4815,3.4349,3.3822,3.3276,3.2756,3.1578,2.9777,0.0,0.0,2.9506,2.9585,3.0133,3.1092,3.1358,3.1895,3.2718,3.2786,3.2522,3.1978,3.1597,3.0838,2.9644,2.8905,2.8276,2.7743,2.6543,2.5737,0.0,0.0,0.0,0.0,0.0,0.0,0.0,0.0,0.0,0.0,0.0,2.302,2.3235,0.0,0.0,0.0,2.6661,2.7938,2.9307,2.9416,0.0,0.0,0.0,0.0,0.0,0.0,0.0,3.4999,3.6272,3.7823,3.9948,4.0664,4.118,4.1797,4.2421,4.3015,4.3665,0.0,4.3828,4.3882,4.4093,4.3968,4.3264,4.3385,4.351,4.3296,4.4563,4.5755,4.6269,4.6636,4.6838,4.6856,4.6856,4.6856,4.6856,4.6452,4.5755,4.469,4.4837,4.5259,4.5572,4.6049,4.6452,4.1179,4.1017,3.9131,3.8254,3.8129,3.8042,3.8474,3.9085,3.7644,3.7426,3.8072,3.6642,3.5973,3.5838,3.5384,0.0,3.4914,3.4414,3.4525,3.5138,3.5015,3.5442,3.6281,3.6083,3.6142,3.6417,3.6073,3.563,3.5121,3.4972,3.4177,3.2707,3.1699,3.1056,3.0823,3.1188,3.15,3.1775,3.2382,3.2833,3.3129,3.3265,3.3277,3.3117,3.2279,3.1436,3.0618,2.9941,2.9282,2.8637,2.7888,2.7161,2.6438,0.0,0.0,0.0,0.0,0.0,0.0,0.0,0.0,0.0,0.0,0.0,0.0,0.0,0.0,0.0,2.8086,0.0,3.0228,3.0301,0.0,0.0,0.0,3.2029,3.2908,3.3941,3.5012,3.608,0.0,0.0,4.0549,4.2642,4.4164,4.4354,4.3599,4.3531,4.4991,4.4315,4.3876,4.4368,4.4258,4.4036,4.3744,4.3649,4.3805,4.447,4.5975,4.6856,4.7058,4.7681,4.8195,4.8214,4.8306,4.8269,4.8306,4.8159,4.7847,4.6342,4.6104,4.6324,4.6966,4.7168,4.7388,4.2911,4.2875,4.2369,4.1355,4.0037,3.9967,4.0058,4.0202,3.9786,3.9714,3.984,3.8968,3.8123,3.7271,3.686,3.6782,3.6963,3.6569,3.672,3.7257,3.7285,3.724,3.7137,3.7414,3.7525,3.7416,3.7,3.6817,3.6857,3.6256,3.5685,3.5224,3.4851,3.389,3.2333,3.2183,3.2738,3.3917,3.4129,3.423,3.421,3.4397,3.4117,3.3334,3.297,3.2378,3.1509,3.0698,3.003,2.9502,2.8215,2.7469,2.7353,2.6549,0.0,0.0,0.0,0.0,0.0,0.0,0.0,0.0,0.0,2.5302,2.5475,0.0,2.6446,0.0,2.8927,3.0246,3.1048,3.1121,0.0,0.0,3.2917,3.3707,3.4685,3.5684,3.6941,3.8603,3.9491,4.0752,4.278,4.3614,4.4285,4.4928,4.486,4.4828,4.5082,4.4756,4.4395,4.4289,4.4079,4.3881,4.3682,4.3583,4.3826,4.4562,4.5553,4.6379,4.6984,4.7774,4.8324,4.8324,4.8324,4.8324,4.8288,4.8324,4.8196,4.781,4.7737,4.7774,4.7976,4.7993,4.8067,4.3479,4.3479,4.3479,4.2915,4.1953,4.1901,4.1866,4.1813,4.1341,4.116,4.1071,4.0185,3.9374,3.8668,3.8327,3.8196,3.8221,3.7873,3.7826,3.7993,3.8114,3.81,3.8027,3.8167,3.8296,3.8401,3.7914,3.7791,3.7991,3.7588,3.7103,3.6629,3.643,3.5676,3.4403,3.3792,3.3953,3.4763,3.4942,3.5023,3.5054,3.5233,3.4899,3.3973,3.3828,3.3031,3.1448,3.0966,3.0458,2.9834,2.8737,2.8158,2.8263,2.7449,2.6767,0.0,0.0,0.0,0.0,0.0,0.0,0.0,0.0,0.0,0.0,0.0,2.8034,2.9257,3.0516,3.1604,3.2394,3.2797,3.3348,3.4174,3.5005,3.5878,3.6841,3.7819,3.8999,4.0503,4.1182,4.2071,4.354,4.411,4.457,4.5034,4.5038,4.5022,4.4974,4.4713,4.443,4.4124,4.3894,4.3734,4.3583,4.3826,4.4176,4.4654,4.5369,4.6067,4.6489,4.6929,4.7241,4.7223,4.7241,4.737,4.7681,4.7792,4.7865,4.8214,4.8324,4.8324,4.8324,4.8324,4.8324,4.3479,4.3479,4.3479,4.3479,4.3479,4.3479,4.3463,4.3339,4.2502,4.2068,4.1887,4.0848,4.0276,4.0004,3.97,3.9419,3.9093,3.878,3.8504,3.8299,3.8434,3.866,3.8937,3.8787,3.891,3.9319,3.8814,3.8661,3.8836,3.8744,3.8261,3.7457,3.7166,3.6817,3.6381,3.5544,3.5135,3.5136,3.542,3.5589,3.5732,3.5928,3.5559,3.4627,3.4576,3.3515,3.1311,3.1165,3.0867,3.0246,2.9558,2.924,2.928,2.8597,2.7844,0.0,2.69,0.0,0.0,0.0,0.0,0.0,0.0,0.0,0.0,2.8418,3.007,3.1715,3.2504,3.3225,3.4045,3.4853,3.5665,3.6523,3.7327,3.8177,3.9084,3.9933,4.0834,4.189,4.2801,4.3391,4.3624,4.4342,4.4789,4.4739,4.468,4.464,4.4667,4.4453,4.4196,4.3929,4.3718,4.3583,4.3569,4.4048,4.447,4.458,4.5149,4.5736,4.5736,4.5883,4.5938,4.5957,4.6012,4.6195,4.6837,4.7021,4.7351,4.7957,4.8196,4.8306,4.8324,4.8324,4.8324,4.3479,4.3479,4.3479,4.3479,4.3479,4.3479,4.3463,4.3376,4.3032,4.2644,4.2197,4.1754,4.1411,4.1069,4.0802,4.0539,4.0185,4.001,3.9863,3.9722,3.9944,3.9931,3.973,4.0084,4.023,4.0149,3.9651,3.9483,3.9643,3.9019,3.8507,3.8101,3.7902,3.7506,3.6974,0.0,0.0,0.0,3.6726,3.6702,3.6426,3.656,3.5925,3.4517,3.4429,0.0,3.2736,3.222,3.1936,3.1824,3.1206,0.0,0.0,0.0,0.0,0.0,0.0,0.0,0.0,0.0,0.0,0.0,3.0995,3.0752,2.9582,3.0931,3.257,3.4142,3.4454,3.4894,3.5734,3.6541,3.7349,3.8157,3.8964,3.9782,4.0633,4.0985,4.1511,4.2508,4.2893,4.3339,4.4022,4.4313,4.4402,4.4412,4.4298,4.4199,4.4155,4.4136,4.4064,4.3851,4.3651,4.3513,4.3496,4.3644,4.3809,4.3809,4.4397,4.4892,4.4966,4.5461,4.5865,4.5828,4.5902,4.5883,4.6104,4.6654,4.7113,4.7296,4.7846,4.8324,4.8324,4.8324,4.8324,4.3479,0.0,4.3479,4.3479,0.0,4.3479,4.3428,4.3287,4.3087,4.2611,4.1934,4.1657,4.1368,4.1041,4.0901,4.0704,4.0412,4.033,4.0213,4.0121,4.0436,4.0569,4.0549,4.0761,4.0901,4.1035,4.052,4.0357,4.0469,4.0102,3.9568,3.8955,3.8648,3.8043,3.7167,3.6635,3.6485,3.6632,3.6893,3.6991,3.6952,3.7095,3.6464,3.497,3.4929,0.0,0.0,0.0,0.0,0.0,0.0,0.0,0.0,0.0,0.0,3.1347,3.1347,3.1505,3.1845,3.19,3.2078,3.2507,3.368,3.3858,3.2617,3.3303,3.4472,3.6064,3.6582,3.7165,3.7991,3.8799,3.9441,3.9848,4.0598,4.1291,4.174,4.2193,4.2645,4.3177,4.338,4.3636,4.4035,4.4136,4.4136,4.4124,4.4048,4.3958,4.3846,4.3878,4.3881,4.3684,4.3566,4.3496,4.3479,4.3479,4.3479,4.3552,4.3846,4.4066,4.4103,4.4433,4.4709,4.4709,4.4726,4.48,4.5278,4.5957,4.6617,4.7058,4.7736,4.8288,4.8324,4.8324,4.8324,4.3479,4.3479,4.3479,4.3479,4.3479,4.3479,4.3375,4.3142,0.0,0.0,0.0,4.1272,4.0948,4.0641,4.0641,4.0502,4.0263,4.028,4.0213,4.0163,4.051,4.0894,4.1243,4.1209,4.1431,4.1868,4.1392,4.1232,4.1297,4.1168,4.0646,3.9826,3.9426,3.8669,3.7533,3.6749,3.6461,3.6672,3.674,3.693,3.7316,3.7485,3.6952,3.5643,3.5674,3.4767,3.2793,3.285,3.2974,3.3022,3.2549,3.2559,3.317,3.2614,3.226,3.2278,3.226,3.2572,3.3206,3.3261,3.3678,3.4596,3.6064,3.6578,3.572,3.5793,3.649,3.8025,3.8744,3.9405,4.0047,4.0836,4.1315,4.1315,4.2029,4.2522,4.2625,4.3159,4.356,4.3719,4.3763,4.3849,4.383,4.3894,4.391,4.3865,4.3832,4.3802,4.3632,4.3684,4.3703,4.3549,4.3496,4.3479,4.3479,4.3479,4.3479,4.3479,4.3497,4.3479,4.3479,4.3479,4.3479,4.3626,4.3497,4.3809,4.4397,4.5296,4.6085,4.6764,4.7645,4.8324,4.8324,4.8324,4.8324,4.3479,4.3479,4.3479,4.3479,4.3479,4.3479,4.3286,4.2901,4.2432,4.1917,4.1413,4.1088,4.0728,4.0355,4.0379,4.0263,4.0138,4.0138,4.0171,4.0288,4.0558,4.0942,4.1391,4.1768,4.2215,4.2665,4.214,4.1951,4.2049,4.1444,4.0906,4.0577,4.0329,3.972,3.873,3.7672,3.7214,3.7361,3.6859,3.6893,3.7373,3.7522,3.722,3.6503,3.6482,3.6083,3.5076,3.5243,3.543,3.5483,3.5571,3.5661,3.5752,3.5605,3.5605,3.5605,3.5605,3.5679,3.5752,3.5771,3.6431,3.79,3.8872,3.9056,3.8285,3.8817,3.9606,4.049,4.0636,4.0802,4.0967,4.168,4.2139,4.2176,4.2837,4.3331,4.3293,4.3422,4.3513,4.3549,4.3617,4.3649,4.3649,4.3666,4.3666,4.3632,4.3634,4.3548,4.3531,4.3513,4.3532,4.3515,4.3479,4.3479,4.3479,4.3479,4.3479,4.3479,4.3479,4.3479,4.3479,4.3479,4.3479,4.3479,4.3479,4.3552,4.3772,4.4892,4.5755,4.6195,4.7241,4.8196,4.8269,4.8287,4.8305,4.3479,4.3479,4.3479,4.3479,4.3479,4.3393,4.3178,4.2844,4.2272,4.1744,4.1277,4.0853,4.051,4.0196,4.0188,4.0146,4.0113,4.0113,4.0121,4.0238,4.0607,4.0971,4.1328,4.1963,4.2494,4.2865,4.2814,4.2826,4.291,4.258,4.2092,4.15,4.0673,3.9875,3.9186,3.8534,3.827,3.8278,3.7162,3.6834,3.7336,3.7503,3.731,3.668,3.6678,3.6351,3.5643,3.5799,3.5936,3.6009,3.6212,3.6285,3.6285,3.6285,3.6285,3.6303,3.6721,3.7144,3.7588,3.8432,3.9221,3.9939,4.0744,4.1056,4.0689,4.0598,4.0891,4.1662,4.1754,4.1937,4.2359,4.2727,4.2965,4.2928,4.3313,4.3479,4.3479,4.3479,4.3479,4.3496,4.3532,4.3531,4.3531,4.3549,4.3549,4.3531,4.3496,4.3479,4.3479,4.3479,4.3479,4.3479,4.3479,4.3479,4.3479,4.3479,4.3479,4.3479,4.3479,4.3479,4.3479,4.3479,4.3479,4.3479,4.3479,4.3479,4.3497,4.4433,4.5259,4.5957,4.6801,4.7682,4.8141,4.8267,4.8228,4.3479,4.3479,4.3479,4.3479,4.348,4.3286,4.3069,4.2844,4.2175,4.1622,4.1186,4.071,4.0345,4.0096,4.0113,4.0113,4.0113,4.0113,4.0138,4.0196,4.0631,4.0995,4.1283,4.2005,4.2536,4.2882,4.3214,4.3411,4.3497,4.3479,4.3152,4.2337,4.1251,4.043,3.9943,3.9575,3.9398,3.9289,3.8,3.7411,3.7619,3.7826,3.7667,3.7069,3.7067,3.6829,3.6333,3.6404,3.6495,3.6571,3.6743,3.6909,3.7092,3.711,3.7184,3.7404,3.797,3.8579,3.9224,4.0561,4.137,4.1389,4.2103,4.2561,4.2525,4.2011,4.1901,4.2451,4.258,4.2818,4.3296,4.3442,4.3479,4.3479,4.3479,4.3479,4.3479,4.3479,4.3479,4.3479,4.3479,4.3479,4.3479,4.3479,4.3496,4.3496,4.3479,4.3479,4.3479,4.3479,4.3479,4.3479,4.3479,4.3479,4.3479,4.3479,4.3479,4.3479,4.3479,4.3479,4.3479,4.3479,4.3479,4.3479,4.3479,4.3479,4.357,4.4378,4.5186,4.5865,4.6801,4.7645,4.8158,4.8209,4.811,4.3479,4.3479,4.3479,4.3479,4.3462,4.3268,4.3105,4.2843,4.2195,4.164,4.1238,4.071,4.0362,4.0138,4.0113,4.0113,4.0113,4.0113,4.0146,4.0288,4.0576,4.0948,4.1391,4.1913,4.2412,4.2863,4.3142,4.3322,4.3497,4.3479,4.3339,4.3032,4.2643,4.2207,4.1783,4.102,4.0577,4.0451,3.9828,3.9189,3.8627,3.8905,3.8705,3.7995,3.8097,3.8129,3.8072,3.8152,3.8196,3.8274,3.8404,3.8799,3.9423,3.9567,3.9863,4.0508,4.0655,4.0802,4.0912,4.1699,4.2194,4.2249,4.291,4.3349,4.3351,4.3277,4.3294,4.3349,4.3349,4.3386,4.3479,4.3479,4.3479,4.3479,4.3479,4.3479,4.3479,4.3479,4.3479,4.3479,4.3479,4.3479,4.3479,4.3479,4.3479,4.3479,4.3479,4.3479,4.3479,4.3479,4.3479,4.3479,4.3479,4.3479,4.3479,4.3479,4.3479,4.3479,4.3479,4.3479,4.3479,4.3479,4.3479,4.3479,4.3479,4.3479,4.3791,4.4654,4.5663,4.5993,4.6966,4.8196,4.8267,4.8151,4.7992,4.334,4.3322,4.3411,4.3481,4.3462,4.3286,4.3359,4.3531,4.287,4.2308,4.1888,4.1381,4.0754,4.0113,4.0113,4.0113,4.0113,4.0113,4.0121,4.0213,4.0534,4.0871,4.1186,4.174,4.2231,4.2727,4.3012,4.3251,4.3429,4.348,4.341,4.3269,4.3105,4.2825,4.2458,4.2051,4.1785,4.1603,4.1426,4.1049,4.045,4.0113,3.9876,3.9673,3.9739,3.9773,3.979,3.9873,3.9957,3.9973,4.0072,4.0251,4.0598,4.0616,4.0728,4.1113,4.1554,4.2029,4.2506,4.2818,4.3002,4.3002,4.3331,4.3479,4.3479,4.3479,4.3479,4.3479,4.3479,4.3479,4.3479,4.3479,4.3479,4.3479,4.3479,4.3479,4.3479,4.3479,4.3479,4.3479,4.3479,4.3479,4.3479,4.3479,4.3479,4.3479,4.3479,4.3479,4.3479,4.3479,4.3479,4.3479,4.3479,4.3479,4.3479,4.3479,4.3479,4.3479,4.3479,4.3479,4.3479,4.3479,4.3479,4.3479,4.3479,4.3479,4.3479,4.4342,4.5296,4.5957,4.7131,4.8287,4.8247,4.8052,4.7832,4.3232,4.3469,4.3889,4.4106,4.4122,4.3926,4.4049,4.4267,4.3611,4.3059,4.2623,4.2137,4.1469,4.0731,4.0316,4.0113,4.0113,4.0113,4.0113,4.0138,4.0453,4.0728,4.0984,4.1485,4.2023,4.2474,4.2823,4.3142,4.3358,4.3428,4.3446,4.3376,4.3286,4.3123,4.2843,4.2747,4.2631,4.2492,4.2552,4.2382,4.1993,4.1542,4.1123,4.0829,4.0842,4.0874,4.0874,4.0996,4.1048,4.1029,4.1079,4.1205,4.1407,4.1425,4.1517,4.1772,4.2304,4.2873,4.3461,4.3479,4.3479,4.3479,4.3479,4.3479,4.3479,4.3479,4.3479,4.3479,4.3479,4.3479,4.3479,4.3479,4.3479,4.3479,4.3479,4.3479,4.3479,4.3479,4.3479,4.3479,4.3479,4.3479,4.3479,4.3479,4.3479,4.3479,4.3479,4.3479,4.3479,4.3479,4.3479,4.3479,4.3479,4.3479,4.3479,4.3479,4.3479,4.3479,4.3479,4.3479,4.3479,4.3479,4.3479,4.3479,4.3479,4.3699,4.4011,4.4599,4.5498,4.6452,4.748,4.8267,4.8226,4.7972,4.7645,4.324,4.4172,4.5221,4.5627,4.5755,4.5496,4.5302,4.5016,4.4391,4.3822,4.3276,4.2834,4.2482,4.2042,4.0807,4.013,4.013,4.0113,4.0113,4.0096,4.028,4.0493,4.0825,4.1255,4.1687,4.2195,4.2555,4.2957,4.3358,4.3394,4.3412,4.3394,4.3376,4.3287,4.3105,4.3049,4.3012,4.2862,4.2974,4.3012,4.3032,4.3105,4.2445,4.1255,4.1101,4.1207,4.1152,4.1132,4.115,4.115,4.1205,4.148,4.2139,4.2268,4.2561,4.3239,4.3369,4.3441,4.3478,4.3479,4.3479,4.3479,4.3479,4.3479,4.3479,4.3479,4.3479,4.3479,4.3479,4.3479,4.3479,4.3479,4.3479,4.3479,4.3479,4.3479,4.3479,4.3479,4.3479,4.3479,4.3479,4.3479,4.3479,4.3479,4.3479,4.3479,4.3479,4.3479,4.3479,4.3479,4.3479,4.3479,4.3479,4.3479,4.3479,4.3479,4.3479,4.3479,4.3479,4.3479,4.3479,4.3479,4.3479,4.3534,4.3644,4.3975,4.4563,4.5406,4.6471,4.7297,4.7773,4.8267,4.813,4.7886,4.7511,4.3696,4.4775,4.5303,4.566,4.581,4.5548,4.5622,4.5789,4.512,4.4558,4.4056,4.3623,4.3027,4.2252,4.1745,4.1238,4.0781,4.0333,4.0113,4.0096,4.0238,4.0412,4.0638,4.0977,4.1391,4.1831,4.2195,4.2692,4.3233,4.334,4.3411,4.3445,4.3463,4.3411,4.3305,4.3305,4.3196,4.3049,4.3086,4.3104,4.3104,4.3178,4.2923,4.2465,4.2567,4.2635,4.2635,4.2635,4.2635,4.2635,4.2635,4.2745,4.3037,4.3057,4.3167,4.3442,4.3479,4.3479,4.3479,4.3479,4.3479,4.3479,4.3479,4.3479,4.3479,4.3479,4.3479,4.3479,4.3479,4.3479,4.3479,4.3479,4.3479,4.3479,4.3479,4.3479,4.3479,4.3479,4.3479,4.3479,4.3479,4.3479,4.3479,4.3479,4.3479,4.3479,4.3479,4.3479,4.3479,4.3479,4.3479,4.3479,4.3479,4.3479,4.3479,4.3479,4.3479,4.3479,4.3479,4.3479,4.3479,4.3479,4.3479,4.3589,4.3736,4.436,4.5003,4.603,4.7113,4.7773,4.8287,4.817,4.7974,4.7663,4.7214,4.4503,4.5446,4.5965,4.6292,4.6464,4.6254,4.6302,4.6493,4.585,4.5292,4.4784,4.4395,4.3785,4.3085,4.2777,4.2405,4.1863,4.1153,4.0823,4.079,4.0663,4.067,4.0768,4.0814,4.1041,4.1436,4.1941,4.2476,4.3013,4.3215,4.3358,4.3464,4.3479,4.348,4.3429,4.3394,4.3323,4.3215,4.3141,4.3086,4.3067,4.3012,4.2975,4.3068,4.3214,4.3357,4.3481,4.3497,4.3479,4.3479,4.3479,4.3479,4.3479,4.3479,4.3479,4.3479,4.3479,4.3479,4.3479,4.3479,4.3479,4.3479,4.3479,4.3479,4.3479,4.3479,4.3479,4.3479,4.3479,4.3479,4.3463,4.3463,4.348,4.3497,4.3479,4.3479,4.3479,4.3479,4.3479,4.3479,4.3479,4.3479,4.3479,4.3479,4.3479,4.3479,4.3479,4.3479,4.3479,4.3479,4.3479,4.3479,4.3479,4.3479,4.3479,4.3479,4.3479,4.3479,4.3479,4.3479,4.3479,4.3479,4.3552,4.3663,4.4121,4.48,4.5645,4.6672,4.7443,4.8122,4.8229,4.813,4.779,4.7371,4.6903,4.5641,4.6205,4.7303,4.7709,4.7753,4.7613,4.7452,4.6995,4.6525,4.5865,4.5286,4.5045,4.4661,4.44,4.3718,4.3386,4.3217,4.2634,4.2228,4.2059,4.1491,4.1281,4.1384,4.0973,4.0951,4.1296,4.1815,4.2346,4.28,4.301,4.3178,4.3376,4.3445,4.3497,4.3479,4.3447,4.3394,4.3323,4.316,4.2994,4.2882,4.2749,4.2673,4.2711,4.2844,4.3068,4.3358,4.3464,4.3497,4.3479,4.3479,4.3479,4.3479,4.3479,4.3479,4.3479,4.3479,4.3479,4.3479,4.3479,4.3479,4.3479,4.3479,4.3479,4.3479,4.3479,4.3479,4.3479,4.3479,4.348,4.3411,4.3412,4.3411,4.348,4.348,4.3463,4.3462,4.3479,4.3479,4.3479,4.3479,4.3479,4.3479,4.3479,4.3479,4.3479,4.3479,4.3479,4.3479,4.3479,4.3479,4.3479,4.3479,4.3479,4.3479,4.3479,4.3479,4.3479,4.3479,4.3479,4.3479,4.3497,4.3681,4.3864,4.4874,4.5572,4.6617,4.7516,4.7772,4.8248,4.8189,4.801,4.7582,4.7129,4.6607,4.5879,4.6758,4.7342,4.7723,4.7904,4.7702,4.741,4.7039,4.6411,4.5854,4.5389,4.5032,4.482,4.4714,4.4449,4.4364,4.4347,4.4075,4.341,4.2448,4.2066,4.1991,4.1976,4.192,4.2124,4.2473,4.2514,4.2735,4.3069,4.2941,4.2957,4.3233,4.3376,4.3464,4.3479,4.3429,4.3341,4.3178,4.2938,4.271,4.2492,4.2353,4.2292,4.2313,4.2552,4.2823,4.305,4.3305,4.3446,4.3479,4.3479,4.3479,4.3479,4.3479,4.3479,4.3479,4.3479,4.3479,4.3479,4.3479,4.3479,4.3479,4.3479,4.3479,4.3479,4.3479,4.3479,4.3479,4.3479,4.348,4.3394,4.3305,4.3269,4.3304,4.3286,4.3286,4.3304,4.3394,4.3446,4.3479,4.3479,4.3479,4.3479,4.3479,4.3479,4.3479,4.3479,4.3479,4.3479,4.3479,4.3479,4.3479,4.3479,4.3497,4.3515,4.3608,4.3736,4.3663,4.3589,4.3497,4.3479,4.3699,4.3864,4.4544,4.5498,4.6415,4.7461,4.803,4.8212,4.8151,4.8032,4.7728,4.7345,4.6858,4.6339,4.6194,4.7025,4.7359,4.7572,4.7657,4.7551,4.7276,4.6858,4.6266,4.576,4.531,4.4951,4.4803,4.4803,4.4803,4.4803,4.4803,4.4803,4.4228,4.321,4.2777,4.2726,4.2685,4.2538,4.2671,4.2994,4.2971,4.3149,4.3501,4.3176,4.3141,4.3411,4.3342,4.3323,4.3357,4.3323,4.3215,4.303,4.2729,4.2436,4.2187,4.1998,4.1892,4.1892,4.2166,4.2454,4.2711,4.3087,4.334,4.3463,4.3479,4.3479,4.3479,4.3479,4.3479,4.3479,4.3479,4.3479,4.3479,4.3479,4.3479,4.3479,4.3479,4.3479,4.3479,4.3479,4.3479,4.3479,4.3479,4.3463,4.334,4.3178,4.3032,4.292,4.2957,4.3013,4.3087,4.3251,4.3358,4.3446,4.348,4.3479,4.3479,4.3479,4.3479,4.3479,4.3479,4.3479,4.3479,4.3479,4.3497,4.3516,4.3479,4.3497,4.3551,4.3718,4.3956,4.3883,4.3754,4.3589,4.3479,4.3975,4.4305,4.5443,4.647,4.691,4.7845,4.8046,4.8228,4.8052,4.7832,4.7496,4.7102,4.6578,4.6062,4.6661,4.7002,4.7338,4.7403,4.732,4.7385,4.712,4.659,4.6137,4.5684,4.5247,4.4913,4.4776,4.482,4.4803,4.4803,4.4803,4.4803,4.4686,4.4287,4.3826,4.3487,4.342,4.3071,4.2993,4.3082,4.3243,4.3503,4.3822,4.3554,4.3605,4.382,4.3461,4.3196,4.3306,4.3159,4.3031,4.29,4.2573,4.2251,4.1917,4.1675,4.1515,4.1426,4.1719,4.2047,4.2396,4.288,4.3251,4.3463,4.3479,4.3479,4.3479,4.3479,4.3479,4.3479,4.3479,4.3497,4.3497,4.348,4.3479,4.3479,4.3479,4.3479,4.3479,4.3479,4.3479,4.3479,4.3497,4.3392,4.3233,4.3013,4.2749,4.2418,4.2516,4.2692,4.2863,4.3068,4.3233,4.3394,4.3464,4.3479,4.3479,4.3479,4.3479,4.3479,4.3479,4.3479,4.3534,4.3588,4.3606,4.3699,4.3883,4.4176,4.4397,4.4525,4.4764,4.469,4.4525,4.4342,4.4195,4.4672,4.5113,4.625,4.7075,4.755,4.7841,4.8002,4.7992,4.779,4.7518,4.7218,4.6765,4.6217,4.5952,4.6772,4.6888,4.7156,4.7183,4.7093,4.7116,4.687,4.6423,4.5912,4.5529,4.5167,4.4803,4.4737,4.4803,4.482,4.4803,4.4854,4.4854,4.4737,4.4581,4.4401,4.4265,4.4265,4.4152,4.4065,4.4126,4.3835,4.3864,4.418,4.3875,4.3912,4.4228,4.3791,4.3617,4.3698,4.3282,4.2956,4.2844,4.253,4.2163,4.1805,4.1426,4.1215,4.1192,4.1408,4.1727,4.2169,4.2765,4.3215,4.3462,4.3479,4.3479,4.3479,4.3462,4.3463,4.3429,4.3411,4.3429,4.3411,4.3411,4.3446,4.3479,4.3479,4.3479,4.3479,4.3479,4.3479,4.3479,4.3445,4.334,4.3123,4.2842,4.2394,4.1856,4.2076,4.2369,4.2611,4.2862,4.3068,4.3322,4.3445,4.3497,4.3552,4.3552,4.3589,4.3608,4.3644,4.3644,4.3882,4.414,4.4378,4.4617,4.4837,4.5149,4.5388,4.5498,4.5571,4.5571,4.5535,4.5535,4.5572,4.592,4.6323,4.6963,4.74,4.7872,4.7846,4.7875,4.7708,4.7475,4.7173,4.6817,4.6339,4.5846,4.5856,4.6637,4.6637,4.6865,4.6842,4.6702,4.6731,4.6518,4.6137,4.576,4.5468,4.5167,4.4848,4.4765,4.492,4.5154,4.5252,4.5252,4.5269,4.5202,4.5021,4.475,4.4598,4.4581,4.4598,4.4626,4.4703,4.4388,4.4416,4.4544,4.4225,4.4259,4.4412,4.4116,4.4038,4.4209,4.3973,4.3742,4.3684,4.3169,4.2604,4.2203,4.1452,4.1029,4.1006,4.1134,4.1485,4.2082,4.2609,4.3031,4.3286,4.3393,4.3393,4.3375,4.334,4.3323,4.3269,4.3233,4.3178,4.3215,4.3233,4.3287,4.3322,4.3393,4.3464,4.3481,4.348,4.3479,4.3479,4.3429,4.3305,4.3049,4.2591,4.2119,4.189,4.1988,4.2163,4.2243,4.2496,4.2844,4.316,4.3376,4.3646,4.392,4.4011,4.4195,4.4433,4.4654,4.4635,4.4672,4.4984,4.5223,4.5406,4.5553,4.5773,4.6049,4.6195,4.6342,4.636,4.6505,4.6524,4.6468,4.6779,4.7016,4.7303,4.7718,4.7909,4.7708,4.75,4.7262,4.7017,4.6724,4.6429,4.599,4.5996,4.5929,4.6357,4.6357,4.6495,4.6381,4.6186,4.6259,4.6112,4.5786,4.5606,4.5415,4.5211,4.5026,4.508,4.5121,4.575,4.5988,4.5977,4.596,4.5919,4.563,4.5196,4.4835,4.4807,4.4666,4.4615,4.4626,4.4737,4.479,4.4803,4.4561,4.4626,4.4715,4.4472,4.4417,4.4577,4.4685,4.4866,4.4653,4.3963,4.3419,4.2921,4.2097,4.1512,4.1316,4.1259,4.1485,4.1927,4.2331,4.265,4.3031,4.3105,4.3142,4.3142,4.3086,4.303,4.2993,4.29,4.2844,4.2881,4.2937,4.3121,4.3231,4.3433,4.356,4.376,4.3942,4.4012,4.403,4.3703,4.3689,4.335,4.2549,4.2241,4.2287,4.2306,4.2108,4.2013,4.2281,4.2787,4.3229,4.3524,4.4034,4.4509,4.4874,4.5057,4.5168,4.5351,4.5314,4.5443,4.5755,4.5938,4.6049,4.6177,4.6287,4.6581,4.6837,4.702,4.7166,4.7378,4.7392,4.6968,4.7112,4.733,4.7561,4.7614,4.7493,4.7258,4.7035,4.6824,4.6637,4.6435,4.6087,4.5814,4.622,4.6345,4.6186,4.6087,4.6112,4.5963,4.5743,4.576,4.5675,4.5477,4.5363,4.53,4.5331,4.5631,4.5749,4.5767,4.6408,4.6724,4.6653,4.6607,4.6595,4.6447,4.5805,4.55,4.5314,4.4925,4.4632,4.4615,4.4626,4.4692,4.4801,4.4844,4.4999,4.5122,4.4801,4.4692,4.497,4.4796,4.4628,4.4736,4.4403,4.409,4.3738,4.3012,4.2425,4.2259,4.205,4.1771,4.1608,4.177,4.1987,4.2236,4.2573,4.2802,4.2786,4.2728,4.2631,4.2573,4.2534,4.2496,4.2534,4.2607,4.2902,4.3543,4.3824,4.4248,4.4924,4.5076,4.5205,4.526,4.5186,4.4739,4.4163,4.3642,4.3161,4.2916,4.2746,4.2712,4.2885,4.3439,4.395,4.4457,4.4811,4.5241,4.5498,4.5627,4.5773,4.592,4.5975,4.5938,4.6214,4.6581,4.6709,4.6837,4.7058,4.7186,4.724,4.7403,4.7398,4.7446,4.7652,4.7862,4.7455,4.725,4.7385,4.7356,4.7288,4.7116,4.692,4.6642,4.647,4.6285,4.6239,4.6176,4.6251,4.6561,4.6861,4.5829,4.5632,4.5606,4.5503,4.5319,4.5336,4.5327,4.5283,4.523,4.5453,4.5824,4.6145,4.6304,4.6544,4.7185,4.7441,4.7357,4.7327,4.7107,4.6802,4.6329,4.6041,4.5686,4.5297,4.4976,4.4699,4.4598,4.4654,4.4737,4.4831,4.4944,4.5123,4.4993,4.5119,4.5383,4.5234,4.5421,4.5412,4.4944,4.4577,4.4277,4.345,4.2911,4.2749,4.2533,4.2302,4.2168,4.2352,4.2247,4.2161,4.2264,4.2409,4.231,4.2234,4.2151,4.2092,4.2047,4.2026,4.2044,4.2423,4.2899,4.3516,4.4025,4.464,4.5164,4.5526,4.5716,4.5753,4.5604,4.5294,4.4585,4.4008,4.3635,4.357,4.3366,4.3485,4.389,4.4038,4.4263,4.4757,4.5059,4.5611,4.5987,4.6266,4.6727,4.7002,4.7186,4.7168,4.726,4.7572,4.7609,4.7736,4.7994,4.8103,4.8044,4.7945,4.7713,4.7586,4.7409,4.7617,4.7535,4.7423,4.7359,4.7273,4.7126,4.6896,4.6685,4.6374,4.6422,4.6696,4.679,4.6679,4.6755,4.7121,4.7361,4.5345,4.515,4.515,4.5069,4.4978,4.4951,4.5032,4.514,4.5287,4.5787,4.6498,4.6536,4.7055,4.7409,4.7997,4.8188,4.8118,4.8024,4.78,4.7394,4.709,4.6735,4.6295,4.5974,4.5618,4.497,4.4699,4.4632,4.4626,4.4726,4.4803,4.4869,4.5096,4.5251,4.5528,4.5827,4.5944,4.5901,4.54,4.4991,4.4692,4.3846,4.3271,4.2805,4.2824,4.2766,4.2714,4.2821,4.2849,4.2255,4.2185,4.2149,4.1998,4.1697,4.1679,4.1714,4.1783,4.1918,4.2181,4.2582,4.3024,4.3288,4.4161,4.4943,4.536,4.587,4.6145,4.6188,4.6147,4.5812,4.4871,4.4519,4.4275,4.4148,4.4092,4.4319,4.4631,4.4249,4.4382,4.4902,4.557,4.6158,4.6626,4.6987,4.7563,4.8027,4.8175,4.8248,4.8267,4.823,4.8081,4.8026,4.8135,4.8073,4.803,4.7801,4.7636,4.7669,4.7375,4.7494,4.7583,4.7498,4.7377,4.716,4.6983,4.6845,4.676,4.6694,4.6856,4.7227,4.7324,4.7231,4.7373,4.7674,4.7915,4.5059,4.5049,4.4896,4.4841,4.4803,4.4737,4.4748,4.4988,4.5593,4.609,4.6491,4.7631,4.8094,4.8331,4.8762,4.8904,4.8714,4.868,4.8646,4.8376,4.8003,4.7547,4.7293,4.6819,4.6498,4.6109,4.5427,4.4818,4.475,4.4643,4.493,4.4888,4.4954,4.5118,4.5291,4.5468,4.5632,4.5735,4.5483,4.5269,4.5018,4.4652,4.4044,4.3383,4.3396,4.3221,4.2815,4.2774,4.2715,4.2595,4.2595,4.2586,4.2332,4.1639,4.152,4.1849,4.1988,4.2154,4.2587,4.2933,4.3523,4.4178,4.4705,4.5481,4.6216,4.6834,4.6975,4.7229,4.7205,4.7003,4.6473,4.562,4.5249,4.5033,4.4702,4.4578,4.4739,4.4744,4.488,4.5424,4.6063,4.6587,4.6906,4.7213,4.7538,4.7804,4.7937,4.7992,4.8012,4.8032,4.7995,4.7977,4.8034,4.7911,4.7785,4.7519,4.734,4.7577,4.7504,4.7633,4.764,4.7536,4.7402,4.7584,4.7428,4.7247,4.7155,4.7039,4.7193,4.7532,4.764,4.7746,4.7966,4.822,4.8508,4.4858,4.4793,4.4709,4.4709,4.4682,4.4643,4.4682,4.4922,4.5642,4.6299,4.6993,4.7963,4.8629,4.8822,4.9056,4.9107,4.9032,4.9018,4.9018,4.89,4.8646,4.824,4.7973,4.7513,4.7124,4.6718,4.607,4.5732,4.5737,4.5783,4.554,4.5326,4.5343,4.5267,4.5063,4.5123,4.5264,4.53,4.53,4.5247,4.5096,4.4886,4.4438,4.4213,4.405,4.3919,4.3715,4.3634,4.3484,4.3168,4.3066,4.2845,4.2482,4.2151,4.1851,4.2294,4.2388,4.2491,4.2937,4.3211,4.3804,4.4276,4.4893,4.5649,4.6425,4.6941,4.745,4.7723,4.7723,4.7446,4.6776,4.6259,4.5735,4.5257,4.4896,4.4737,4.4737,4.4831,4.5177,4.5632,4.5979,4.6371,4.6856,4.7132,4.7421,4.7603,4.7666,4.7726,4.7726,4.7747,4.7747,4.7886,4.788,4.7757,4.7649,4.7469,4.7357,4.7558,4.7674,4.7775,4.7962,4.7929,4.8237,4.8517,4.8271,4.7695,4.7682,4.761,4.7742,4.7886,4.8165,4.8409,4.8528,4.8748,4.8917,4.4692,4.4598,4.4598,4.4598,4.4598,4.4598,4.4772,4.5094,4.5801,4.6618,4.7431,4.8199,4.8822,4.9093,4.9152,4.9077,4.9018,4.9018,4.9018,4.9001,4.8951,4.8646,4.8277,4.8058,4.7902,4.7547,4.7327,4.7073,4.6633,4.6583,4.638,4.6104,4.605,4.5824,4.5439,4.5539,4.5339,4.5152,4.5135,4.5046,4.4782,4.4654,4.4598,4.4598,4.4598,4.4547,4.4412,4.4423,4.4185,4.3819,4.3633,4.343,4.2922,4.277,4.285,4.3019,4.2926,4.2892,4.3259,4.3634,4.4141,4.4403,4.5061,4.5673,4.6266,4.6812,4.7341,4.7696,4.7717,4.7425,4.6847,4.6308,4.5786,4.531,4.4951,4.4748,4.4682,4.4709,4.4803,4.523,4.5658,4.6087,4.6501,4.6771,4.6994,4.7107,4.7191,4.7276,4.7298,4.7381,4.7453,4.7675,4.7725,4.7593,4.7523,4.7533,4.7595,4.7866,4.7951,4.8014,4.8259,4.8494,4.8775,4.8916,4.8511,4.8022,4.809,4.8212,4.8318,4.8508,4.8849,4.8968,4.8866,4.8849,4.8968,4.4615,4.4598,4.4598,4.4598,4.4598,4.4632,4.5004,4.563,4.6486,4.7291,4.795,4.8702,4.9093,4.9152,4.9063,4.9032,4.9018,4.9018,4.9018,4.9018,4.9001,4.8951,4.8849,4.8866,4.8697,4.8426,4.8545,4.7936,4.731,4.7022,4.6819,4.6713,4.6697,4.6578,4.6348,4.6276,4.6235,4.5744,4.5608,4.5286,4.4778,4.4649,4.4598,4.4598,4.4598,4.4598,4.4598,4.4598,4.4479,4.4445,4.4412,4.4395,4.4344,4.4344,4.4344,4.4169,4.3864,4.3599,4.4128,4.4342,4.4466,4.4596,4.5045,4.5424,4.602,4.6719,4.7298,4.749,4.7533,4.7316,4.6847,4.6332,4.5786,4.5414,4.508,4.4895,4.4772,4.4948,4.4981,4.4922,4.5385,4.5693,4.6042,4.6295,4.6525,4.6619,4.6725,4.6843,4.7032,4.7251,4.7375,4.7654,4.774,4.7628,4.7576,4.7577,4.7761,4.8092,4.8214,4.8294,4.8528,4.8778,4.887,4.889,4.8555,4.847,4.8589,4.8711,4.8866,4.8934,4.9001,4.9018,4.9001,4.9018,4.9018,4.4598,4.4598,4.4598,4.4598,4.4649,4.5026,4.5382,4.5889,4.698,4.767,4.8077,4.8755,4.9094,4.9094,4.9001,4.9018,4.9018,4.9018,4.9018,4.9018,4.9018,4.9018,4.8984,4.9001,4.9001,4.9018,4.8984,4.8748,4.8105,4.7936,4.7885,4.7445,4.7394,4.7141,4.7005,4.6819,4.6599,4.6278,4.594,4.5551,4.5196,4.4869,4.4615,4.4615,4.4615,4.4615,4.4598,4.4598,4.4598,4.4598,4.4598,4.4598,4.4598,4.4581,4.4581,4.4564,4.431,4.4276,4.4513,4.4581,4.4626,4.4692,4.4913,4.5257,4.587,4.656,4.7143,4.7312,4.7363,4.7187,4.6824,4.6381,4.5887,4.5528,4.5443,4.5399,4.5298,4.5258,4.532,4.5202,4.516,4.5603,4.5916,4.6014,4.635,4.6636,4.6817,4.699,4.7278,4.7619,4.7699,4.777,4.7779,4.7723,4.7724,4.7705,4.7917,4.8211,4.8601,4.8697,4.8853,4.8998,4.9001,4.9018,4.8846,4.888,4.9018,4.9001,4.8968,4.8984,4.9001,4.9018,4.9018,4.9018,4.9018,4.4598,4.4598,4.4598,4.4598,4.4666,4.5399,4.5821,4.6143,4.7344,4.7973,4.8308,4.8765,4.9001,4.9018,4.9018,4.9018,4.9018,4.9018,4.9018,4.9018,4.9018,4.9018,4.9018,4.9018,4.9018,4.9018,4.9018,4.8917,4.8951,4.8883,4.8578,4.8206,4.8189,4.7936,4.7547,4.7462,4.7411,4.7039,4.6397,4.6041,4.5889,4.5483,4.5145,4.4959,4.4869,4.4784,4.4615,4.4598,4.4598,4.4598,4.4598,4.4598,4.4598,4.4598,4.4598,4.4598,4.4496,4.4513,4.4581,4.4598,4.4598,4.4654,4.4803,4.5177,4.5768,4.6394,4.6788,4.7002,4.7053,4.6944,4.6743,4.6491,4.6271,4.608,4.6045,4.6067,4.606,4.6003,4.5974,4.5947,4.5903,4.5846,4.6032,4.5915,4.6155,4.6581,4.6886,4.7158,4.7489,4.7917,4.8082,4.8134,4.8275,4.826,4.8237,4.8221,4.8299,4.8374,4.8758,4.8964,4.9015,4.9032,4.9001,4.9018,4.9018,4.9018,4.9018,4.9018,4.9018,4.9018,4.9018,4.9018,4.9018,4.9018,4.9018,4.4598,4.4598,4.4598,4.4615,4.4671,4.5382,4.6109,4.6769,4.7597,4.8294,4.8798,4.8984,4.9018,4.9018,4.9018,4.9018,4.9018,4.9018,4.9018,4.9018,4.9018,4.9018,4.9018,4.9018,4.9018,4.9018,4.9018,4.9018,4.9018,4.9001,4.8968,4.8934,4.8748,4.8832,4.8697,4.8443,4.824,4.78,4.7107,4.6752,4.6701,4.6464,4.6177,4.572,4.5568,4.5331,4.4682,4.4801,4.4886,4.4886,4.4801,4.4767,4.4801,4.4649,4.4615,4.4598,4.4598,4.4598,4.4598,4.4598,4.4598,4.4665,4.4831,4.5113,4.5555,4.5862,4.6211,4.6584,4.6743,4.6755,4.6722,4.6733,4.6743,4.6638,4.6657,4.6822,4.6806,4.6747,4.6718,4.6718,4.6629,4.6455,4.6624,4.6623,4.6658,4.7113,4.7455,4.7746,4.7837,4.8198,4.8421,4.8598,4.889,4.8963,4.9018,4.8934,4.8721,4.8657,4.8897,4.8984,4.9001,4.9018,4.9018,4.9018,4.9018,4.9018,4.9018,4.9018,4.9018,4.9018,4.9018,4.9018,4.9018,4.9018,4.9018,4.4598,4.4598,4.4598,4.4869,4.5331,4.6058,4.6786,4.753,4.8257,4.8714,4.9018,4.9018,4.9018,4.9018,4.9018,4.9018,4.9018,4.9018,4.9018,4.9018,4.9018,4.9018,4.9018,4.9018,4.9018,4.9018,4.9018,4.9018,4.9018,4.9018,4.9018,4.9001,4.9018,4.9001,4.9001,4.9018,4.8815,4.8511,4.7902,4.7496,4.7394,4.6972,4.665,4.643,4.6363,4.6261,4.5991,4.5986,4.5969,4.5833,4.5466,4.5331,4.5224,4.4936,4.4767,4.4733,4.475,4.475,4.4682,4.4649,4.4598,4.4626,4.4793,4.5029,4.536,4.5528,4.576,4.6118,4.6635,4.6821,4.6978,4.7265,4.7425,4.7258,4.7318,4.7546,4.7552,4.7509,4.7479,4.7479,4.7175,4.6917,4.7158,4.7458,4.7518,4.7645,4.8014,4.8316,4.8371,4.8418,4.8664,4.8767,4.8995,4.9087,4.9107,4.9063,4.9018,4.9018,4.9018,4.9018,4.9018,4.9018,4.9018,4.9018,4.9018,4.9018,4.9018,4.9018,4.9018,4.9018,4.9018,4.9018,4.9018,4.9018,4.9018,4.4598,4.4632,4.4835,4.5213,4.5788,4.6481,4.7225,4.7922,4.8663,4.9001,4.9018,4.9018,4.9018,4.9018,4.9018,4.9018,4.9018,4.9018,4.9018,4.9018,4.9018,4.9018,4.9018,4.9018,4.9018,4.9018,4.9018,4.9018,4.9018,4.9018,4.9018,4.9018,4.9018,4.9018,4.9018,4.9018,4.9018,4.8849,4.8578,4.821,4.8108,4.7817,4.731,4.7225,4.7124,4.6904,4.6718,4.6566,4.6616,4.6498,4.6312,4.6075,4.5855,4.5602,4.5309,4.5241,4.5213,4.5229,4.5207,4.4801,4.4649,4.4626,4.4976,4.516,4.5299,4.5627,4.6215,4.642,4.6916,4.7212,4.7299,4.7674,4.7875,4.774,4.8187,4.8404,4.8284,4.824,4.824,4.824,4.7953,4.7784,4.7885,4.8206,4.8203,4.825,4.8419,4.867,4.8751,4.8768,4.887,4.8955,4.8995,4.9032,4.9001,4.9018,4.9018,4.9018,4.9018,4.9018,4.9018,4.9018,4.9018,4.9018,4.9018,4.9018,4.9018,4.9018,4.9018,4.9018,4.9018,4.9018,4.9018,4.9018,4.9018,4.4598,4.4671,4.5348,4.5669,4.5872,4.6498,4.7259,4.8041,4.8714,4.9018,4.9018,4.9018,4.9018,4.9018,4.9018,4.9018,4.9052,4.9069,4.9137,4.9171,4.939,4.9187,4.9221,4.9306,4.9492,4.9103,4.9272,4.9407,4.9221,4.939,4.9306,4.9272,4.9424,4.9204,4.9052,4.9018,4.9018,4.9001,4.8917,4.8866,4.8815,4.868,4.8325,4.802,4.7885,4.7648,4.7361,4.7242,4.7259,4.7175,4.6955,4.6786,4.6718,4.6583,4.6447,4.6464,4.6515,4.6583,4.6583,4.5393,4.4953,4.4987,4.5523,4.575,4.5988,4.6414,4.68,4.6869,4.7309,4.7447,4.7694,4.806,4.8201,4.8409,4.8804,4.8917,4.8761,4.8731,4.868,4.8646,4.8832,4.8917,4.89,4.8917,4.8883,4.8883,4.8951,4.9018,4.9018,4.9018,4.9018,4.9018,4.9018,4.9018,4.9018,4.9018,4.9018,4.9018,4.9018,4.9018,4.9018,4.9018,4.9018,4.9018,4.9018,4.9018,4.9018,4.9018,4.912,4.9221,4.9052,4.9018,4.9018,4.9154,4.9306,4.4598,4.4666,4.5399,4.5991,4.6498,4.7208,4.7953,4.8595,4.89,4.9018,4.9018,4.9018,4.9018,4.9018,4.9018,4.9018,4.9103,4.9627,4.9729,4.9763,5.0118,5.0439,5.0422,5.0304,5.0388,5.0473,5.0473,5.0371,5.0541,5.0321,5.0422,5.049,5.0202,4.9881,4.9272,4.9018,4.9018,4.9018,4.9001,4.9001,4.9018,4.9001,4.8883,4.8578,4.8578,4.8392,4.8139,4.8054,4.8054,4.8003,4.78,4.7547,4.7428,4.7276,4.6904,4.6853,4.6836,4.6786,4.6752,4.6256,4.6121,4.616,4.6227,4.646,4.6569,4.6687,4.6939,4.726,4.7692,4.7853,4.8162,4.8609,4.883,4.8838,4.907,4.9026,4.8934,4.8934,4.8917,4.89,4.9001,4.9018,4.9018,4.9018,4.9018,4.9018,4.9018,4.9018,4.9018,4.9018,4.9018,4.9018,4.9018,4.9018,4.9018,4.9018,4.9018,4.9018,4.9018,4.9018,4.9018,4.9018,4.9018,4.9018,4.9018,4.9018,4.9137,4.9255,4.9407,4.9441,4.9458,4.9543,4.9712,4.9881,5.005,4.4598,4.4716,4.5669,4.6346,4.6887,4.7597,4.8342,4.8917,4.9018,4.9018,4.9018,4.9018,4.9018,4.9018,4.9018,4.9255,4.9407,4.983,5.0388,5.0473,5.093,5.1048,5.1133,5.1268,5.1031,5.1251,5.1219,5.1134,5.105,5.1151,5.1133,5.1099,5.1234,5.0642,5.005,4.9898,4.9712,4.9627,4.9475,4.9289,4.9137,4.9001,4.9001,4.8968,4.8968,4.8934,4.8984,4.9018,4.9001,4.8849,4.8612,4.8274,4.8088,4.7885,4.7547,4.7564,4.7564,4.7597,4.7614,4.7631,4.7564,4.7581,4.7361,4.7192,4.7259,4.756,4.7691,4.7937,4.8154,4.8333,4.8643,4.907,4.9087,4.9107,4.9077,4.9001,4.9018,4.9018,4.9018,4.9018,4.9018,4.9018,4.9018,4.9018,4.9018,4.9018,4.9018,4.9018,4.9018,4.9018,4.9018,4.9018,4.9018,4.9018,4.9018,4.9018,4.9018,4.9018,4.9052,4.912,4.9018,4.9018,4.9018,4.9035,4.9069,4.9171,4.9357,4.9526,4.9847,5.0084,5.0219,5.0321,5.0456,5.0591,5.0727,4.4598,4.4835,4.6177,4.6752,4.6921,4.7682,4.8409,4.9001,4.9018,4.9018,4.9018,4.9018,4.9018,4.9018,4.9052,4.9424,5.005,5.0219,5.0727,5.1166,5.1572,5.1539,5.1555,5.1572,5.1742,5.1506,5.1522,5.1809,5.1403,5.1674,5.164,5.1505,5.1691,5.1471,5.1369,5.1251,5.0862,5.0371,5.0101,4.9796,4.9424,4.9187,4.9137,4.9086,4.9018,4.9018,4.9018,4.9018,4.9018,4.8984,4.8951,4.8951,4.8951,4.8984,4.9001,4.8951,4.8866,4.8781,4.8714,4.8663,4.8714,4.8511,4.8223,4.8037,4.8054,4.8325,4.8474,4.8575,4.8758,4.8846,4.9032,4.9015,4.9015,4.9032,4.9032,4.9018,4.9018,4.9018,4.9018,4.9018,4.9018,4.9018,4.9018,4.9018,4.9018,4.9018,4.9018,4.9018,4.9018,4.9018,4.9018,4.9018,4.9018,4.9018,4.9018,4.9018,4.9018,4.9018,4.9255,4.9323,4.9187,4.9289,4.9627,4.9695,4.934,4.9407,4.9932,5.0236,5.0456,5.0693,5.1014,5.1099,5.1234,5.1234,5.1369,4.4598,4.4767,4.6194,4.6786,4.6972,4.8156,4.8832,4.8984,4.9018,4.9018,4.9018,4.9018,4.9035,4.9035,4.9543,4.9864,5.0439,5.1082,5.164,5.2063,5.2401,5.2706,5.279,5.2706,5.2807,5.279,5.2756,5.2655,5.2807,5.2773,5.2739,5.2875,5.2621,5.2689,5.2706,5.2807,5.1944,5.1251,5.0963,5.0422,4.9982,4.9779,4.9543,4.9255,4.912,4.9086,4.9018,4.9018,4.9018,4.9018,4.9018,4.9018,4.9018,4.9018,4.9001,4.9001,4.8984,4.8984,4.9018,4.9018,4.9018,4.9018,4.8748,4.8765,4.8765,4.8832,4.9018,4.9018,4.9018,4.9018,4.9018,4.9018,4.9018,4.9018,4.9018,4.9018,4.9018,4.9018,4.9018,4.9018,4.9018,4.9018,4.9018,4.9018,4.9018,4.9018,4.9018,4.9018,4.9018,4.9018,4.9018,4.9018,4.9018,4.9018,4.9018,4.9018,4.9018,4.9052,4.9357,4.9712,4.9898,5.0084,5.0422,5.0439,5.0168,5.0371,5.0794,5.1014,5.1133,5.1606,5.1944,5.1961,5.1995,5.2012,5.2131,4.4598,4.4801,4.6189,4.7107,4.7784,4.8629,4.9018,4.9018,4.9018,4.9018,4.9018,4.9018,4.9154,4.9509,4.9915,5.0405,5.1116,5.1742,5.235,5.2892,5.3264,5.3331,5.3484,5.3518,5.3416,5.3518,5.3518,5.3315,5.3518,5.3518,5.345,5.3416,5.3518,5.3518,5.3433,5.3298,5.2976,5.2317,5.1775,5.1217,5.0828,5.0507,5.0084,4.961,4.9441,4.9323,4.9069,4.9052,4.9018,4.9018,4.9018,4.9018,4.9018,4.9018,4.9018,4.9018,4.9018,4.9018,4.9018,4.9018,4.9018,4.9018,4.9018,4.8984,4.8968,4.8984,4.9018,4.9018,4.9018,4.9018,4.9018,4.9018,4.9018,4.9018,4.9018,4.9018,4.9018,4.9018,4.9018,4.9018,4.9018,4.9018,4.9018,4.9018,4.9018,4.9018,4.9018,4.9018,4.9018,4.9018,4.9018,4.9018,4.9018,4.9018,4.9035,4.9154,4.9289,4.9424,4.9695,5.005,5.0456,5.0744,5.0947,5.1065,5.1082,5.1319,5.1572,5.1674,5.1843,5.2317,5.2689,5.2723,5.2739,5.279,5.2993,4.4598,4.4733,4.6206,4.7614,4.89,4.9001,4.9018,4.9018,4.9018,4.9018,4.9018,4.9018,4.9373,4.9864,5.0253,5.1048,5.1742,5.2384,5.2858,5.3467,5.345,5.3518,5.3518,5.3518,5.3518,5.3518,5.3518,5.3518,5.3518,5.3518,5.3518,5.3518,5.3518,5.3518,5.3518,5.3518,5.3315,5.3112,5.2587,5.2063,5.1505,5.12,5.0947,5.0321,5.0084,4.9915,4.934,4.9103,4.9052,4.9035,4.9018,4.9018,4.9018,4.9018,4.9018,4.9018,4.9018,4.9018,4.9018,4.9018,4.9018,4.9018,4.9018,4.9018,4.9018,4.9018,4.9018,4.9018,4.9018,4.9018,4.9018,4.9018,4.9018,4.9018,4.9018,4.9018,4.9018,4.9018,4.9018,4.9018,4.9018,4.9018,4.9018,4.9018,4.9018,4.9018,4.9204,4.9221,4.9323,4.9323,4.9204,4.9187,4.9052,4.9103,4.934,4.9475,4.9678,4.9881,5.0219,5.0659,5.1217,5.1386,5.1405,5.1709,5.208,5.2097,5.2249,5.2367,5.257,5.2959,5.3264,5.3399,5.345,5.3365,5.3382,4.4598,4.475,4.6177,4.7631,4.8917,4.9018,4.9018,4.9018,4.9018,4.9018,4.9018,4.9069,4.9441,5.0135,5.0676,5.1454,5.2249,5.2875,5.3264,5.345,5.3518,5.3518,5.3518,5.3518,5.3518,5.3518,5.3518,5.3518,5.3518,5.3518,5.3518,5.3518,5.3518,5.3518,5.3518,5.3518,5.3501,5.3484,5.3247,5.2723,5.2164,5.1944,5.1708,5.1183,5.0879,5.0541,5.0084,4.983,4.9475,4.9154,4.9035,4.9018,4.9018,4.9018,4.9018,4.9018,4.9018,4.9018,4.9018,4.9018,4.9018,4.9018,4.9018,4.9018,4.9018,4.9018,4.9018,4.9018,4.9018,4.9018,4.9018,4.9018,4.9018,4.9018,4.9018,4.9018,4.9018,4.9018,4.9018,4.9018,4.9018,4.9035,4.9035,4.9052,4.9018,4.9255,4.9678,4.9898,5.0101,5.0152,4.9796,4.9661,4.9187,4.9221,4.956,4.9949,5.0236,5.0744,5.12,5.1606,5.1995,5.2232,5.2435,5.2824,5.3095,5.2926,5.2892,5.3129,5.3365,5.3518,5.3518,5.3518,5.3518,5.345,5.3467,4.4598,4.4801,4.6177,4.7648,4.8849,4.9018,4.9018,4.9018,4.9018,4.9018,4.9018,4.9086,4.9576,5.0439,5.1065,5.1911,5.2706,5.3247,5.3416,5.3484,5.3518,5.3518,5.3518,5.3518,5.3518,5.3518,5.3518,5.3518,5.3518,5.3518,5.3518,5.3518,5.3518,5.3518,5.3518,5.3518,5.3518,5.3518,5.3518,5.323,5.279,5.2723,5.2435,5.1944,5.1589,5.1251,5.0862,5.0591,5.0371,5.0101,5.0101,4.9763,4.9678,4.956,4.934,4.912,4.9018,4.9018,4.9018,4.9018,4.9018,4.9018,4.9018,4.9018,4.9018,4.9018,4.9018,4.9018,4.9018,4.9018,4.9018,4.9018,4.9018,4.9018,4.9018,4.9018,4.9018,4.9018,4.9018,4.9018,4.9086,4.9272,4.9357,4.9627,4.9695,5.0219,5.0557,5.0574,5.0777,5.1082,5.0693,5.0405,5.0118,5.0016,5.0422,5.0727,5.093,5.1505,5.2097,5.2367,5.2655,5.3095,5.3467,5.3433,5.3433,5.3416,5.345,5.3518,5.3518,5.3518,5.3518,5.3518,5.3518,5.3518,5.3518,4.4733,4.5072,4.6261,4.7648,4.89,4.9018,4.9018,4.9018,4.9018,4.9018,4.9052,4.912,5.0016,5.0796,5.142,5.2418,5.3129,5.3399,5.3501,5.3518,5.3518,5.3518,5.3518,5.3518,5.3518,5.3518,5.3518,5.3518,5.3518,5.3518,5.3518,5.3518,5.3518,5.3518,5.3518,5.3518,5.3518,5.3518,5.3518,5.3518,5.3484,5.3501,5.3027,5.2655,5.2401,5.2063,5.1574,5.132,5.1352,5.1133,5.0963,5.0676,5.0422,5.0219,4.9763,4.9509,4.9323,4.9221,4.9052,4.9018,4.9018,4.9018,4.9018,4.9018,4.9018,4.9018,4.9018,4.9018,4.9018,4.9018,4.9018,4.9018,4.9018,4.9018,4.9018,4.9137,4.9154,4.9204,4.9238,4.9255,4.9492,4.9695,4.9898,5.0168,5.0524,5.1065,5.1352,5.132,5.1454,5.1826,5.186,5.1742,5.1606,5.1555,5.1454,5.1454,5.1623,5.2164,5.2706,5.2993,5.323,5.3416,5.3518,5.3501,5.3501,5.3518,5.3518,5.3518,5.3518,5.3518,5.3518,5.3518,5.3518,5.3518,5.3518,4.5309,4.6426,4.673,4.7665,4.89,4.9018,4.9018,4.9018,4.9018,4.9018,4.9154,4.9695,5.0422,5.1251,5.1894,5.2672,5.3331,5.3518,5.3518,5.3518,5.3518,5.3518,5.3518,5.3518,5.3518,5.3518,5.3518,5.3518,5.3518,5.3518,5.3518,5.3518,5.3518,5.3518,5.3518,5.3518,5.3518,5.3518,5.3518,5.3518,5.3518,5.3501,5.3484,5.3315,5.3281,5.2773,5.2334,5.2114,5.1725,5.142,5.1319,5.1202,5.1099,5.0963,5.0557,5.0101,4.9898,4.9576,4.9407,4.9221,4.9204,4.9018,4.9018,4.9018,4.9018,4.9018,4.9018,4.9018,4.9018,4.9018,4.9018,4.9018,4.9018,4.9052,4.9069,4.9441,4.9644,4.9881,5.005,5.0287,5.0608,5.0744,5.0862,5.1031,5.1082,5.1589,5.1995,5.2029,5.2164,5.2553,5.2892,5.2841,5.279,5.2587,5.2249,5.2147,5.2334,5.2875,5.3213,5.3298,5.3382,5.345,5.3518,5.3518,5.3518,5.3518,5.3518,5.3518,5.3518,5.3518,5.3518,5.3518,5.3518,5.3518,5.3518]}]]